[[{"header":{"parameterUnit":"m.s-1","parameterCategory":1,"la1":30.6,"la2":29.2853,"lo1":-89.7004,"lo2":-87.6739,"dy":0.0162,"dx":0.0183,"nx":112,"ny":82,"refTime":"2024-04-11T06:00:00:Z","depth":0,"parameterNumber":2,"parameterNumberName":"U-component_of_WINDS"},"data":[0.0,0.0,0.0,0.0,0.0,0.0,0.0,0.0,0.0,0.0,0.0,0.0,0.0,0.0,0.0,0.0,0.0,0.0,0.0,0.0,0.0,0.0,0.0,0.0,0.0,0.0,0.0,0.0,0.0,0.0,0.0,0.0,0.0,0.0,0.0,0.0,0.0,0.0,0.0,0.0,0.0,0.0,0.0,0.0,0.0,0.0,0.0,0.0,0.0,0.0,0.0,0.0,0.0,0.0,0.0,0.0,0.0,0.0,0.0,0.0,0.0,0.0,0.0,0.0,0.0,0.0,0.0,0.0,0.0,0.0,0.0,0.0,0.0,0.0,0.0,0.0,0.0,0.0,0.0,0.0,0.0,0.0,0.0,0.0,0.0,0.0,0.0,0.0,0.0,0.0,-1.5316,-1.5764,-1.6795,-1.7568,-1.784,-1.7799,-1.7283,-1.6157,0.0,0.0,0.0,0.0,0.0,0.0,0.0,0.0,0.0,0.0,0.0,0.0,0.0,0.0,0.0,0.0,0.0,0.0,0.0,0.0,0.0,0.0,0.0,0.0,0.0,0.0,0.0,0.0,0.0,0.0,0.0,0.0,0.0,0.0,0.0,0.0,0.0,0.0,0.0,0.0,0.0,0.0,0.0,0.0,0.0,0.0,0.0,0.0,0.0,0.0,0.0,0.0,0.0,0.0,0.0,0.0,0.0,0.0,0.0,0.0,0.0,0.0,0.0,0.0,0.0,0.0,0.0,0.0,0.0,0.0,0.0,0.0,0.0,0.0,0.0,0.0,0.0,0.0,0.0,0.0,0.0,0.0,0.0,0.0,0.0,0.0,0.0,0.0,0.0,0.0,0.0,0.0,0.0,0.0,0.0,0.0,0.0,0.0,0.0,0.0,0.0,0.0,0.0,0.0,-1.5411,-1.6469,-1.7202,-1.769,-1.784,-1.7514,-1.6944,-1.613,0.0,0.0,0.0,0.0,0.0,0.0,0.0,0.0,0.0,0.0,0.0,0.0,0.0,0.0,0.0,0.0,0.0,0.0,0.0,0.0,0.0,0.0,0.0,0.0,0.0,0.0,0.0,0.0,0.0,0.0,0.0,0.0,0.0,0.0,0.0,0.0,0.0,0.0,0.0,0.0,0.0,0.0,0.0,0.0,0.0,0.0,0.0,0.0,0.0,0.0,0.0,0.0,0.0,0.0,0.0,0.0,0.0,0.0,0.0,0.0,0.0,0.0,0.0,0.0,0.0,0.0,0.0,0.0,0.0,0.0,0.0,0.0,0.0,0.0,0.0,0.0,0.0,0.0,0.0,0.0,0.0,0.0,0.0,0.0,0.0,0.0,0.0,0.0,0.0,0.0,0.0,0.0,0.0,0.0,0.0,0.0,0.0,0.0,0.0,0.0,0.0,0.0,0.0,-1.533,-1.5845,-1.6876,-1.7378,-1.7704,-1.784,-1.7528,-1.6958,-1.613,-1.5927,0.0,0.0,0.0,0.0,0.0,0.0,0.0,0.0,0.0,0.0,0.0,0.0,0.0,0.0,0.0,0.0,0.0,0.0,0.0,0.0,0.0,0.0,0.0,0.0,0.0,0.0,0.0,0.0,0.0,0.0,0.0,0.0,0.0,0.0,0.0,0.0,0.0,0.0,0.0,0.0,0.0,0.0,0.0,0.0,0.0,0.0,0.0,0.0,0.0,0.0,0.0,0.0,0.0,0.0,0.0,0.0,0.0,0.0,0.0,0.0,0.0,0.0,0.0,0.0,0.0,0.0,0.0,0.0,0.0,0.0,0.0,0.0,0.0,0.0,0.0,0.0,0.0,0.0,0.0,0.0,0.0,0.0,0.0,0.0,0.0,0.0,0.0,0.0,0.0,0.0,0.0,0.0,0.0,0.0,0.0,0.0,0.0,0.0,0.0,0.0,0.0,0.0,-1.5913,-1.6293,-1.7148,-1.7514,-1.7745,-1.784,-1.7487,-1.6931,-1.613,-1.571,0.0,0.0,0.0,0.0,0.0,0.0,0.0,0.0,0.0,0.0,0.0,0.0,0.0,0.0,0.0,0.0,0.0,0.0,0.0,0.0,0.0,0.0,0.0,0.0,0.0,0.0,0.0,0.0,0.0,0.0,0.0,0.0,0.0,0.0,0.0,0.0,0.0,0.0,0.0,0.0,0.0,0.0,0.0,0.0,0.0,0.0,0.0,0.0,0.0,0.0,0.0,0.0,0.0,0.0,0.0,0.0,0.0,0.0,0.0,0.0,0.0,0.0,0.0,0.0,0.0,0.0,0.0,0.0,0.0,0.0,0.0,0.0,0.0,0.0,0.0,0.0,0.0,0.0,0.0,0.0,0.0,0.0,0.0,0.0,0.0,0.0,0.0,0.0,0.0,0.0,0.0,0.0,0.0,0.0,0.0,0.0,0.0,0.0,0.0,0.0,0.0,0.0,-1.5837,-1.6564,-1.7324,-1.7663,-1.784,-1.7867,-1.7202,-1.6592,-1.6117,-1.5411,0.0,0.0,0.0,0.0,0.0,0.0,0.0,0.0,0.0,0.0,0.0,0.0,0.0,0.0,0.0,0.0,0.0,0.0,0.0,0.0,0.0,0.0,0.0,0.0,0.0,0.0,0.0,0.0,0.0,0.0,0.0,0.0,0.0,0.0,0.0,0.0,0.0,0.0,0.0,0.0,0.0,0.0,0.0,0.0,0.0,0.0,0.0,0.0,0.0,0.0,0.0,0.0,0.0,0.0,0.0,0.0,0.0,0.0,0.0,0.0,0.0,0.0,0.0,0.0,0.0,0.0,0.0,0.0,0.0,0.0,0.0,0.0,0.0,0.0,0.0,0.0,0.0,0.0,0.0,0.0,0.0,0.0,0.0,0.0,0.0,0.0,0.0,0.0,0.0,0.0,0.0,0.0,0.0,0.0,0.0,0.0,0.0,0.0,0.0,0.0,0.0,0.0,-1.6171,-1.6727,-1.7351,-1.769,-1.7826,-1.7992,-1.7405,-1.6822,-1.5823,0.0,0.0,0.0,0.0,0.0,0.0,0.0,0.0,0.0,0.0,0.0,0.0,0.0,0.0,0.0,0.0,0.0,0.0,0.0,0.0,0.0,0.0,0.0,0.0,0.0,0.0,0.0,0.0,0.0,0.0,0.0,0.0,0.0,0.0,0.0,0.0,0.0,0.0,0.0,0.0,0.0,0.0,0.0,0.0,0.0,0.0,0.0,0.0,0.0,0.0,0.0,0.0,0.0,0.0,0.0,0.0,0.0,0.0,0.0,0.0,0.0,0.0,0.0,0.0,0.0,0.0,0.0,0.0,0.0,0.0,0.0,0.0,0.0,0.0,0.0,0.0,0.0,0.0,0.0,0.0,0.0,0.0,0.0,0.0,0.0,0.0,0.0,0.0,0.0,0.0,0.0,0.0,0.0,0.0,0.0,0.0,0.0,0.0,0.0,0.0,0.0,0.0,-1.2892,-1.5246,-1.6668,-1.723,-1.7731,-1.788,-1.788,-1.5933,-1.5179,-1.6062,0.0,0.0,0.0,0.0,0.0,0.0,0.0,0.0,0.0,0.0,0.0,0.0,0.0,0.0,0.0,0.0,0.0,0.0,0.0,0.0,0.0,0.0,0.0,0.0,0.0,0.0,0.0,0.0,0.0,0.0,0.0,0.0,0.0,0.0,0.0,0.0,0.0,0.0,0.0,0.0,0.0,0.0,0.0,0.0,0.0,0.0,0.0,0.0,0.0,0.0,0.0,0.0,0.0,0.0,0.0,0.0,0.0,0.0,0.0,0.0,0.0,0.0,0.0,0.0,0.0,0.0,0.0,0.0,0.0,0.0,0.0,0.0,0.0,0.0,0.0,0.0,0.0,0.0,0.0,0.0,0.0,0.0,0.0,0.0,0.0,0.0,0.0,0.0,0.0,0.0,0.0,0.0,0.0,0.0,0.0,0.0,0.0,0.0,0.0,0.0,0.0,0.0,-0.7595,-1.3261,-1.6828,-1.72,-1.7619,-1.7793,-1.7981,-1.2345,-1.1212,0.0,0.0,0.0,0.0,0.0,0.0,0.0,0.0,0.0,0.0,0.0,0.0,0.0,0.0,0.0,0.0,0.0,0.0,0.0,0.0,0.0,0.0,0.0,0.0,0.0,0.0,0.0,0.0,0.0,0.0,0.0,0.0,0.0,0.0,0.0,0.0,0.0,0.0,0.0,0.0,0.0,0.0,0.0,0.0,0.0,0.0,0.0,0.0,0.0,0.0,0.0,0.0,0.0,0.0,0.0,0.0,0.0,0.0,0.0,0.0,0.0,0.0,0.0,0.0,0.0,0.0,0.0,0.0,0.0,0.0,0.0,0.0,0.0,0.0,0.0,0.0,0.0,0.0,0.0,0.0,0.0,0.0,0.0,0.0,0.0,0.0,0.0,0.0,0.0,0.0,0.0,0.0,0.0,0.0,0.0,0.0,0.0,0.0,0.0,0.0,0.0,0.0,0.0,-0.2385,-1.1032,-1.6948,-1.7398,-1.3854,-1.3227,-1.7649,-1.2292,-0.7824,-0.5248,0.0,0.0,0.0,0.0,0.0,0.0,0.0,0.0,0.0,0.0,0.0,0.0,0.0,0.0,0.0,0.0,0.0,0.0,0.0,0.0,0.0,0.0,0.0,0.0,0.0,0.0,0.0,0.0,0.0,0.0,0.0,0.0,0.0,0.0,0.0,0.0,0.0,0.0,0.0,0.0,0.0,0.0,0.0,0.0,0.0,0.0,0.0,0.0,0.0,0.0,0.0,0.0,0.0,0.0,0.0,0.0,0.0,0.0,0.0,0.0,0.0,0.0,0.0,0.0,0.0,0.0,0.0,0.0,0.0,0.0,0.0,0.0,0.0,0.0,0.0,0.0,0.0,0.0,0.0,0.0,0.0,0.0,0.0,0.0,0.0,0.0,0.0,0.0,0.0,0.0,0.0,0.0,0.0,0.0,0.0,0.0,0.0,0.0,0.0,0.0,0.0,0.0,-0.0,-0.5885,-1.2064,-1.669,-1.4483,-1.2006,-1.0902,-0.7356,-0.3871,-0.0202,0.0,0.0,0.0,0.0,0.0,0.0,0.0,0.0,0.0,0.0,0.0,0.0,0.0,0.0,0.0,0.0,0.0,0.0,0.0,0.0,0.0,0.0,0.0,0.0,0.0,0.0,0.0,0.0,0.0,0.0,0.0,0.0,0.0,0.0,0.0,0.0,0.0,0.0,0.0,0.0,0.0,0.0,0.0,0.0,0.0,0.0,0.0,0.0,0.0,0.0,0.0,0.0,0.0,0.0,0.0,0.0,0.0,0.0,0.0,0.0,0.0,0.0,0.0,0.0,0.0,0.0,0.0,0.0,0.0,0.0,0.0,0.0,0.0,0.0,0.0,0.0,0.0,0.0,0.0,0.0,0.0,0.0,0.0,0.0,0.0,0.0,0.0,0.0,0.0,0.0,0.0,0.0,0.0,0.0,0.0,0.0,0.0,0.0,0.0,0.0,0.0,0.0,-0.0,-0.0,-0.3972,-1.4365,-1.5899,-1.178,-0.0922,-0.0,-0.0,-0.0,0.0,0.0,0.0,0.0,0.0,0.0,0.0,0.0,0.0,0.0,0.0,0.0,0.0,0.0,0.0,0.0,0.0,0.0,0.0,0.0,0.0,0.0,0.0,0.0,0.0,0.0,0.0,0.0,0.0,0.0,0.0,0.0,0.0,0.0,0.0,0.0,0.0,0.0,0.0,0.0,0.0,0.0,0.0,0.0,0.0,0.0,0.0,0.0,0.0,0.0,0.0,0.0,0.0,0.0,0.0,0.0,0.0,0.0,0.0,0.0,1.403,1.3647,0.0,0.0,0.0,0.0,0.0,0.0,0.0,0.0,0.0,0.0,0.0,0.0,0.0,0.0,0.0,0.0,0.0,0.0,0.0,0.0,0.0,0.0,0.0,0.0,0.0,0.0,0.0,0.0,0.0,0.0,0.0,0.0,0.0,0.0,0.0,0.0,0.0,0.0,0.0,0.0,-0.0,-0.0,-0.0897,-0.3259,-0.3727,-0.2794,-0.0234,-0.0,-0.0,-0.0,-0.0,0.0,0.0,0.0,0.0,0.0,0.0,0.0,0.0,0.0,0.0,0.0,0.0,0.0,0.0,0.0,0.0,0.0,0.0,0.0,0.0,0.0,0.0,0.0,0.0,0.0,0.0,0.0,0.0,0.0,0.0,0.0,0.0,0.0,0.0,0.0,0.0,0.0,0.0,0.0,0.0,0.0,0.0,0.0,0.0,0.0,0.0,0.0,0.0,0.0,0.0,0.0,0.0,0.0,0.0,0.0,0.0,0.0,0.0,0.0,1.5224,1.4372,0.0,0.0,0.0,0.0,0.0,0.0,0.0,0.0,0.0,0.0,0.0,0.0,0.0,0.0,0.0,0.0,0.0,0.0,0.0,0.0,0.0,0.0,0.0,0.0,0.0,0.0,0.0,0.0,0.0,0.0,0.0,0.0,0.0,0.0,0.0,0.0,0.0,0.0,0.0,0.0,-0.0,-0.0,-0.0,-0.0,-0.0,-0.0,-0.0,-0.0,-0.0,-0.0,-0.0,0.0,0.0,0.0,0.0,0.0,0.0,0.0,0.0,0.0,0.0,0.0,0.0,0.0,0.0,0.0,0.0,0.0,0.0,0.0,0.0,0.0,0.0,0.0,0.0,0.0,0.0,0.0,0.0,0.0,0.0,0.0,0.0,0.0,0.0,0.0,0.0,0.0,0.0,0.0,0.0,0.0,0.0,0.0,0.0,0.0,0.0,0.0,0.0,0.0,0.0,0.0,0.0,0.0,1.7517,1.6813,1.6168,1.3829,1.4368,1.685,1.5006,1.3197,1.1276,0.3305,0.0,0.0,0.0,0.0,0.0,0.0,0.0,0.0,0.0,0.0,0.0,0.0,0.0,0.0,0.0,0.0,0.0,0.0,0.0,0.0,0.0,0.0,-0.0,-0.0,-0.0,-0.0,-0.0,0.0,0.0,0.0,0.0,0.0,0.0,0.0,0.0,0.0,0.0,0.0,-0.0,-0.0,-0.0,-0.0,-0.0,-0.0,-0.0,-0.0,-0.0,-0.0,-0.0,-0.0,0.0,0.0,0.0,0.0,0.0,0.0,0.0,0.0,0.0,0.0,0.0,0.0,0.0,0.0,0.0,0.0,0.0,0.0,0.0,0.0,0.0,0.0,0.0,0.0,0.0,0.0,0.0,0.0,0.0,0.0,0.0,0.0,1.5574,1.6157,0.0,0.0,0.0,0.0,0.0,0.0,0.0,0.0,0.0,0.0,0.0,0.0,0.0,1.8057,1.8355,1.8626,1.8776,1.8843,1.847,1.5232,0.9655,0.4386,0.7409,1.6353,0.652,0.0,0.182,0.045,0.0,0.0,0.0,0.0,0.0,0.0,0.0,0.0,0.0,0.0,0.0,0.0,0.0,0.0,0.0,0.0,0.0,0.0,0.0,0.0,0.0,0.0,-0.0,-0.0,-0.0,-0.0,-0.0,-0.0,-0.0,-0.0,-0.0,-0.0,0.0,0.0,0.0,0.0,0.0,0.0,-0.0,-0.0,-0.0,-0.0,-0.0,-0.0,-0.0,-0.0,-0.0,-0.0,-0.0,-0.0,-0.0,-0.0,0.0,0.0,0.0,0.0,0.0,0.0,0.0,0.0,0.0,0.0,0.0,0.0,0.0,0.0,0.0,0.0,0.0,0.0,0.0,0.0,0.0,0.0,0.0,0.0,0.0,0.0,0.0,0.0,0.0,1.5913,1.6415,1.6429,1.67,1.6931,0.0,0.0,0.0,0.0,0.0,0.0,0.0,0.0,0.0,1.8518,1.8816,1.9074,1.9291,1.9508,1.9698,1.9875,1.9424,1.5771,0.8945,0.2827,0.2594,0.7083,0.2104,-0.0,-0.0,-0.0,-0.0,-0.0,0.0,0.0,0.0,0.0,-0.0,-0.0,-0.0,-0.0,-0.0,-0.0,0.0,0.0,0.0,0.0,0.0,0.0,0.0,-0.0,-0.0,-0.0,-0.0,-0.0,-0.0,-0.0,-0.0,-0.0,-0.0,-0.0,-0.0,-0.0,-0.0,-0.0,0.0,0.0,0.0,-0.0,-0.0,-0.0,-0.0,-0.0,-0.0,-0.0,-0.0,-0.0,-0.0,-0.0,-0.0,-0.0,-0.0,-0.0,-0.0,0.0,0.0,0.0,0.0,0.0,0.0,0.0,0.0,0.0,0.0,0.0,0.0,0.0,0.0,0.0,0.0,0.0,0.0,0.0,0.0,0.0,0.0,0.0,0.0,0.0,0.0,0.0,0.0,1.703,1.7053,1.6836,1.727,1.7568,0.0,0.0,0.0,0.0,0.0,0.0,1.8694,1.9074,1.9373,1.959,1.9902,2.0119,2.0282,2.0471,2.0661,2.0851,2.0613,1.7623,1.2367,0.3774,-0.0,-0.0,-0.0,-0.0,-0.0,-0.0,-0.0,-0.0,-0.0,-0.0,-0.0,-0.0,-0.0,-0.0,-0.0,-0.0,-0.0,-0.0,-0.0,-0.0,-0.0,0.0,0.0,0.0,0.0,-0.0,-0.0,-0.0,-0.0,-0.0,-0.0,-0.0,-0.0,-0.0,-0.0,-0.0,-0.0,-0.0,-0.0,-0.0,0.0,-0.0,-0.0,-0.0,-0.0,-0.0,-0.0,-0.0,-0.0,-0.0,-0.0,-0.0,-0.0,-0.0,-0.0,-0.0,-0.0,-0.0,-0.0,-0.0,0.0,0.0,0.0,0.0,0.0,0.0,0.0,0.0,0.0,0.0,0.0,0.0,0.0,0.0,0.0,0.0,0.0,0.0,0.0,0.0,0.0,0.0,0.0,0.0,0.0,0.0,0.0,0.0,0.0,1.7541,1.8233,0.0,0.0,0.0,0.0,1.8884,1.8925,1.9183,1.9766,1.9956,2.0241,2.0689,2.0987,2.1218,2.1353,2.1437,2.1531,2.1411,2.1266,2.1172,2.0356,0.6419,-0.0,-0.0,-0.0,-0.0,-0.0,-0.0,-0.0,-0.0,-0.0,-0.0,-0.0,-0.0,-0.0,-0.0,-0.0,-0.0,-0.0,-0.0,-0.0,-0.0,-0.0,-0.0,0.0,0.0,-0.0,-0.0,-0.0,-0.0,-0.0,-0.0,-0.0,-0.0,-0.0,-0.0,-0.0,-0.0,-0.0,-0.0,-0.0,0.0,-0.0,-0.0,-0.0,-0.0,-0.0,-0.0,-0.0,-0.0,-0.0,-0.0,-0.0,-0.0,-0.0,-0.0,-0.0,-0.0,-0.0,-0.0,-0.0,-0.0,-0.0,0.0,0.0,0.0,0.0,0.0,0.0,0.0,0.0,0.0,0.0,0.0,0.0,0.0,0.0,0.0,0.0,0.0,0.0,0.0,0.0,0.0,0.0,0.0,0.0,0.0,0.0,0.0,0.0,1.8762,1.9454,0.0,1.963,1.9576,1.9657,1.9956,2.0173,2.0539,2.1136,2.1584,2.1991,2.2344,2.2547,2.2696,2.2509,2.2536,1.9883,1.4935,1.9671,2.2023,2.1367,0.6812,-0.0,-0.0,-0.0,-0.0,-0.0,-0.0,-0.0,-0.0,-0.0,-0.0,-0.0,-0.0,-0.0,-0.0,-0.0,-0.0,-0.0,-0.0,-0.0,-0.0,-0.0,-0.0,-0.0,-0.0,-0.0,-0.0,-0.0,-0.0,-0.0,-0.0,-0.0,-0.0,-0.0,-0.0,-0.0,-0.0,-0.0,-0.0,-0.0,-0.0,-0.0,-0.0,-0.0,-0.0,-0.0,-0.0,-0.0,-0.0,-0.0,-0.0,-0.0,-0.0,-0.0,-0.0,-0.0,-0.0,-0.0,-0.0,-0.0,-0.0,-0.0,-0.0,0.0,0.0,0.0,0.0,0.0,0.0,0.0,0.0,0.0,0.0,0.0,0.0,0.0,0.0,0.0,0.0,0.0,0.0,0.0,0.0,0.0,0.0,0.0,0.0,0.0,0.0,1.9468,1.9766,2.0553,2.1001,2.0811,2.0824,2.0987,2.1285,2.153,2.1937,2.2534,2.294,2.328,2.3524,2.3673,2.3434,2.3394,2.0363,1.759,1.4808,1.4851,1.4816,1.4425,0.46,-0.0,-0.0,-0.0,-0.0,-0.0,-0.0,-0.0,-0.0,-0.0,-0.0,-0.0,-0.0,-0.0,-0.0,-0.0,-0.0,-0.0,-0.0,-0.0,-0.0,-0.0,-0.0,-0.0,-0.0,-0.0,-0.0,-0.0,-0.0,-0.0,-0.0,-0.0,-0.0,-0.0,-0.0,-0.0,-0.0,-0.0,-0.0,-0.0,-0.0,-0.0,-0.0,-0.0,-0.0,-0.0,-0.0,-0.0,-0.0,-0.0,-0.0,-0.0,-0.0,-0.0,-0.0,-0.0,-0.0,-0.0,-0.0,-0.0,-0.0,-0.0,-0.0,-0.0,0.0,0.0,0.0,0.0,0.0,0.0,0.0,0.0,0.0,0.0,0.0,0.0,0.0,0.0,0.0,0.0,0.0,0.0,0.0,0.0,0.0,0.0,0.0,2.2361,2.1033,2.0254,2.058,2.153,2.2059,2.1774,2.214,2.252,2.2818,2.2981,2.3307,2.389,2.3931,2.3999,2.4161,2.4297,2.3956,2.3431,1.5654,1.4986,2.1339,0.6779,-0.0,-0.0,-0.0,-0.0,-0.0,-0.0,-0.0,-0.0,-0.0,-0.0,-0.0,-0.0,-0.0,-0.0,-0.0,-0.0,-0.0,-0.0,-0.0,-0.0,-0.0,-0.0,-0.0,-0.0,-0.0,-0.0,-0.0,-0.0,-0.0,-0.0,-0.0,-0.0,-0.0,-0.0,-0.0,-0.0,-0.0,-0.0,-0.0,-0.0,-0.0,-0.0,-0.0,-0.0,-0.0,-0.0,0.0,-0.0,-0.0,-0.0,-0.0,-0.0,-0.0,-0.0,-0.0,-0.0,-0.0,-0.0,-0.0,-0.0,-0.0,-0.0,-0.0,-0.0,-0.0,-0.0,0.0,0.0,0.0,0.0,0.0,0.0,0.0,0.0,0.0,0.0,0.0,0.0,0.0,0.0,0.0,0.0,0.0,0.0,0.0,0.0,0.0,2.1788,2.057,2.0613,2.0881,2.1353,2.2072,2.2805,2.3293,2.3429,2.3551,2.3714,2.3904,2.4053,2.4297,2.4691,2.4813,2.4935,2.5098,2.4935,2.484,2.4867,1.6269,1.0026,0.6011,0.2105,-0.0,-0.0,-0.0,-0.0,-0.0,-0.0,-0.0,-0.0,-0.0,-0.0,-0.0,-0.0,-0.0,-0.0,-0.0,-0.0,-0.0,-0.0,-0.0,-0.0,-0.0,-0.0,-0.0,-0.0,-0.0,-0.0,-0.0,-0.0,-0.0,-0.0,-0.0,-0.0,-0.0,-0.0,-0.0,-0.0,-0.0,-0.0,-0.0,-0.0,-0.0,-0.0,-0.0,-0.0,-0.0,-0.0,-0.0,-0.0,-0.0,-0.0,-0.0,-0.0,-0.0,-0.0,-0.0,-0.0,-0.0,-0.0,-0.0,-0.0,-0.0,-0.0,-0.0,-0.0,-0.0,0.0,0.0,0.0,0.0,0.0,0.0,0.0,0.0,0.0,0.0,0.0,0.0,0.0,0.0,0.0,0.0,0.0,0.0,0.0,0.0,0.0,0.0,2.1726,2.077,2.1218,2.1692,2.2344,2.3239,2.3768,2.4175,2.4473,2.4541,2.4609,2.4718,2.4867,2.5016,2.5192,2.5287,2.5369,2.5464,2.5355,2.5342,2.5382,1.6924,0.8375,-0.0,-0.0,-0.0,-0.0,-0.0,-0.0,-0.0,-0.0,-0.0,-0.0,-0.0,-0.0,-0.0,0.0,0.0,0.0,0.0,-0.0,-0.0,-0.0,-0.0,-0.0,-0.0,-0.0,-0.0,-0.0,-0.0,-0.0,-0.0,-0.0,-0.0,-0.0,-0.0,-0.0,-0.0,-0.0,-0.0,-0.0,-0.0,-0.0,-0.0,-0.0,0.0,-0.0,-0.0,-0.0,-0.0,-0.0,-0.0,-0.0,-0.0,-0.0,-0.0,-0.0,-0.0,-0.0,-0.0,0.0,0.0,0.0,-0.0,-0.0,-0.0,0.0,0.0,0.0,-0.0,-0.0,-0.0,0.0,0.0,-0.0,-0.0,0.0,0.0,0.0,0.0,0.0,0.0,0.0,0.0,0.0,0.0,0.0,0.0,0.0,0.0,0.0,0.0,2.2937,2.2235,2.3253,2.3185,2.3334,2.4121,2.4473,2.4758,2.5043,2.5179,2.526,2.5287,2.541,2.5505,2.5518,2.5518,0.0,0.0,0.0,2.5363,2.5019,1.7227,0.9504,0.1571,0.0625,-0.0,-0.0,-0.0,-0.0,-0.0,-0.0,-0.0,-0.0,-0.0,-0.0,-0.0,-0.0,-0.0,-0.0,-0.0,-0.0,-0.0,-0.0,0.0,0.0,-0.0,-0.0,-0.0,-0.0,-0.0,-0.0,-0.0,-0.0,-0.0,-0.0,-0.0,-0.0,-0.0,-0.0,-0.0,-0.0,-0.0,-0.0,-0.0,-0.0,-0.0,-0.0,-0.0,-0.0,-0.0,-0.0,-0.0,-0.0,-0.0,-0.0,-0.0,-0.0,0.0,-0.0,-0.0,-0.0,-0.0,-0.0,-0.0,-0.0,-0.0,-0.0,-0.0,-0.0,-0.0,-0.0,-0.0,-0.0,-0.0,-0.0,-0.0,0.0,0.0,0.0,0.0,0.0,0.0,0.0,0.0,0.0,0.0,0.0,0.0,0.0,0.0,0.0,2.2751,2.2812,2.3429,2.4351,2.4541,2.465,2.4826,2.5003,2.5179,2.5355,2.541,2.5464,2.5586,2.564,2.5694,2.5817,2.5817,2.5817,2.5817,2.5749,2.5708,2.5762,1.9468,1.4251,1.0402,0.3464,0.0,-0.0,-0.0,-0.0,-0.0,-0.0,-0.0,-0.0,-0.0,-0.0,-0.0,-0.0,-0.0,-0.0,-0.0,-0.0,-0.0,-0.0,-0.0,-0.0,-0.0,-0.0,-0.0,-0.0,-0.0,0.0,-0.0,-0.0,-0.0,-0.0,-0.0,-0.0,-0.0,-0.0,-0.0,-0.0,-0.0,-0.0,-0.0,-0.0,-0.0,-0.0,-0.0,-0.0,-0.0,-0.0,-0.0,-0.0,-0.0,-0.0,-0.0,-0.0,-0.0,-0.0,-0.0,-0.0,-0.0,-0.0,-0.0,-0.0,-0.0,-0.0,-0.0,-0.0,-0.0,-0.0,-0.0,-0.0,-0.0,-0.0,-0.0,0.0,0.0,0.0,0.0,0.0,0.0,0.0,0.0,0.0,0.0,0.0,2.5518,2.3197,0.0,2.3927,2.3485,2.3836,2.4487,2.5247,2.5477,2.5518,2.5369,2.5423,2.5518,2.5667,2.5694,2.5708,2.5803,2.5803,2.583,2.5898,2.5898,2.5939,2.6006,2.5871,2.5871,2.6006,2.2828,2.0769,1.9478,1.4954,0.8541,-0.0,-0.0,-0.0,-0.0,-0.0,-0.0,-0.0,-0.0,-0.0,-0.0,-0.0,-0.0,-0.0,-0.0,-0.0,-0.0,-0.0,-0.0,-0.0,-0.0,-0.0,-0.0,-0.0,-0.0,-0.0,-0.0,-0.0,-0.0,-0.0,-0.0,-0.0,-0.0,-0.0,-0.0,-0.0,-0.0,-0.0,-0.0,-0.0,-0.0,-0.0,-0.0,-0.0,-0.0,-0.0,-0.0,-0.0,-0.0,-0.0,-0.0,-0.0,-0.0,-0.0,-0.0,-0.0,-0.0,-0.0,-0.0,-0.0,-0.0,-0.0,-0.0,-0.0,-0.0,-0.0,-0.0,-0.0,-0.0,-0.0,-0.0,0.0,0.0,0.0,0.0,0.0,0.0,0.0,0.0,2.3745,2.4418,2.4629,2.4127,2.2647,2.2954,2.3646,2.4704,2.5098,2.5464,2.6006,2.6183,2.6169,2.5898,2.583,2.5871,2.5979,2.5993,2.5993,2.5993,2.5993,2.5993,2.5993,2.5993,2.6047,2.6169,2.6061,2.6074,2.5926,2.6006,2.5898,2.5939,2.5817,1.8585,0.5099,0.319,0.2554,0.2554,0.0631,-0.0,-0.0,-0.0,-0.0,-0.0,-0.0,-0.0,-0.0,-0.0,-0.0,-0.0,-0.0,-0.0,-0.0,-0.0,-0.0,-0.0,-0.0,-0.0,-0.0,-0.0,-0.0,-0.0,-0.0,-0.0,-0.0,-0.0,-0.0,-0.0,-0.0,-0.0,-0.0,-0.0,-0.0,-0.0,-0.0,-0.0,-0.0,-0.0,-0.0,-0.0,-0.0,-0.0,-0.0,-0.0,-0.0,-0.0,-0.0,-0.0,-0.0,-0.0,-0.0,-0.0,-0.0,-0.0,-0.0,-0.0,-0.0,-0.0,-0.0,-0.0,-0.0,-0.0,-0.0,-0.0,3.5605,3.0007,2.5387,2.5395,2.469,2.4366,0.0,0.0,2.5843,2.7289,2.5852,2.409,2.4053,2.4691,2.5342,2.5871,2.6101,2.6332,2.6658,2.6712,2.6658,2.6508,2.6359,2.6291,2.6305,2.6305,2.6305,2.6305,2.6305,2.6305,2.6305,2.6305,2.6332,2.6346,2.6332,2.6332,2.6346,2.6305,2.6237,2.6101,2.5819,2.5028,2.2828,1.5082,1.1511,1.1133,0.3461,-0.0,-0.0,-0.0,-0.0,-0.0,-0.0,-0.0,-0.0,-0.0,-0.0,-0.0,-0.0,-0.0,-0.0,-0.0,-0.0,-0.0,-0.0,-0.0,-0.0,-0.0,-0.0,-0.0,-0.0,-0.0,-0.0,-0.0,-0.0,-0.0,-0.0,-0.0,-0.0,-0.0,-0.0,-0.0,-0.0,-0.0,-0.0,-0.0,-0.0,-0.0,-0.0,-0.0,-0.0,-0.0,-0.0,-0.0,-0.0,-0.0,-0.0,-0.0,-0.0,-0.0,-0.0,-0.0,-0.0,-0.0,-0.0,-0.0,-0.0,-0.0,-0.0,-0.0,-0.0,-0.0,3.897,3.3327,2.8123,0.0,2.6871,2.5437,2.4797,2.4659,2.4744,2.5883,2.5381,2.5003,2.5315,2.5844,2.6359,0.0,2.6902,2.7078,2.7295,2.7241,2.7105,2.6875,2.6712,2.659,2.6481,2.6644,2.6712,2.6631,2.6698,2.6712,2.6631,2.6631,2.6658,2.6753,2.6576,2.6522,2.6603,2.6454,2.6332,2.6278,2.6196,2.6129,2.5711,2.2033,2.0615,1.9838,0.6022,-0.0,-0.0,-0.0,-0.0,-0.0,-0.0,-0.0,-0.0,-0.0,-0.0,-0.0,-0.0,-0.0,-0.0,-0.0,-0.0,-0.0,-0.0,-0.0,-0.0,-0.0,-0.0,-0.0,-0.0,-0.0,-0.0,-0.0,-0.0,-0.0,-0.0,-0.0,-0.0,-0.0,-0.0,-0.0,-0.0,-0.0,-0.0,-0.0,-0.0,-0.0,-0.0,-0.0,-0.0,-0.0,-0.0,-0.0,-0.0,-0.0,-0.0,-0.0,-0.0,-0.0,-0.0,-0.0,-0.0,-0.0,-0.0,-0.0,-0.0,-0.0,-0.0,-0.0,-0.0,-0.0,3.9939,3.5381,0.0,3.0047,2.8035,2.5948,2.3925,2.3863,2.4406,2.5003,2.5505,2.5952,2.6359,2.6725,2.7078,2.7377,2.7526,2.7634,2.7743,2.7594,2.735,2.701,2.6807,2.6644,2.6522,2.678,2.6956,2.6929,2.7065,2.7119,2.7051,2.7051,2.7078,2.716,2.6943,2.6861,2.6929,2.6685,2.6522,2.6481,2.6332,2.6237,2.5872,2.6034,2.5925,2.5151,1.0218,0.2215,-0.0,-0.0,-0.0,-0.0,-0.0,-0.0,-0.0,-0.0,-0.0,-0.0,-0.0,-0.0,-0.0,-0.0,-0.0,-0.0,-0.0,-0.0,-0.0,-0.0,-0.0,-0.0,-0.0,-0.0,-0.0,-0.0,-0.0,-0.0,-0.0,-0.0,-0.0,-0.0,-0.0,-0.0,-0.0,-0.0,-0.0,-0.0,-0.0,-0.0,-0.0,-0.0,-0.0,-0.0,-0.0,-0.0,-0.0,-0.0,-0.0,-0.0,-0.0,-0.0,-0.0,-0.0,-0.0,-0.0,-0.0,-0.0,-0.0,-0.0,-0.0,-0.0,-0.0,-0.0,3.6822,3.3701,3.1072,2.8294,2.5837,2.4066,2.4948,2.541,2.5803,2.64,2.6644,2.6848,2.716,2.735,2.7539,2.7838,2.7892,2.7892,2.7906,2.7648,2.7309,2.6861,2.6549,2.6373,0.0,2.6644,2.6929,2.72,2.7363,2.7526,2.7662,2.7662,2.7607,2.7458,2.7458,2.7377,2.7227,2.7078,2.6943,2.678,2.6631,2.6413,2.6129,2.5966,2.5939,2.5336,1.6326,0.7956,-0.0,-0.0,-0.0,-0.0,-0.0,-0.0,-0.0,-0.0,-0.0,-0.0,-0.0,-0.0,-0.0,-0.0,-0.0,-0.0,-0.0,-0.0,-0.0,-0.0,-0.0,-0.0,-0.0,-0.0,-0.0,-0.0,-0.0,-0.0,-0.0,-0.0,-0.0,-0.0,-0.0,-0.0,-0.0,-0.0,-0.0,-0.0,-0.0,-0.0,-0.0,-0.0,-0.0,-0.0,-0.0,-0.0,-0.0,-0.0,-0.0,-0.0,-0.0,-0.0,-0.0,-0.0,-0.0,-0.0,-0.0,-0.0,-0.0,-0.0,-0.0,-0.0,-0.0,-0.0,3.7493,3.4727,3.2384,2.9693,2.6922,2.5138,2.5939,2.6196,2.6359,2.6658,2.6603,2.6508,2.6495,2.6712,2.6943,2.7132,2.7594,2.7906,2.7906,2.8001,2.7689,2.6631,2.659,0.0,0.0,0.0,0.0,2.72,2.739,2.758,2.7824,2.7757,2.7716,2.777,2.758,2.7404,2.7241,2.7105,2.6956,2.6807,2.6549,2.6332,2.6129,2.5966,2.583,2.5708,2.2732,1.3332,-0.0,-0.0,-0.0,-0.0,-0.0,-0.0,-0.0,-0.0,-0.0,-0.0,-0.0,-0.0,-0.0,-0.0,-0.0,-0.0,-0.0,-0.0,-0.0,-0.0,-0.0,-0.0,-0.0,-0.0,-0.0,-0.0,-0.0,-0.0,-0.0,-0.0,-0.0,-0.0,-0.0,-0.0,-0.0,-0.0,-0.0,-0.0,-0.0,-0.0,-0.0,-0.0,-0.0,-0.0,-0.0,-0.0,-0.0,-0.0,-0.0,-0.0,-0.0,-0.0,-0.0,-0.0,-0.0,-0.0,-0.0,-0.0,-0.0,-0.0,-0.0,-0.0,-0.0,-0.0,3.692,3.6009,3.5406,2.9611,2.8204,2.7818,2.6768,2.6603,2.6658,2.6712,2.6454,2.6129,2.5939,2.5952,2.6101,2.6359,2.6888,2.7377,2.7716,2.7784,2.7512,2.6698,2.6536,2.6346,0.0,0.0,0.0,2.7119,2.7309,2.7539,2.7892,2.7879,2.7879,2.7906,2.7784,2.7607,2.7404,2.72,2.6983,2.6712,2.6481,2.6278,2.6129,2.5966,2.5817,2.5681,2.5654,1.7804,0.4407,0.1258,-0.0,-0.0,-0.0,-0.0,-0.0,-0.0,-0.0,-0.0,-0.0,-0.0,-0.0,-0.0,-0.0,-0.0,-0.0,-0.0,-0.0,-0.0,-0.0,-0.0,-0.0,-0.0,-0.0,-0.0,-0.0,-0.0,-0.0,-0.0,-0.0,-0.0,-0.0,-0.0,-0.0,-0.0,-0.0,-0.0,-0.0,-0.0,-0.0,-0.0,-0.0,-0.0,-0.0,-0.0,-0.0,-0.0,-0.0,-0.0,-0.0,-0.0,-0.0,-0.0,-0.0,-0.0,-0.0,-0.0,-0.0,-0.0,-0.0,-0.0,-0.4941,-0.6944,3.4929,3.7227,3.8573,2.8083,2.9096,3.1204,2.752,2.6685,2.6712,2.6536,2.6129,2.5708,0.0,0.0,2.5111,2.5572,2.5925,2.6468,2.735,2.7132,2.6929,0.0,0.0,0.0,0.0,0.0,0.0,2.6997,0.0,2.7458,2.7906,2.8069,2.8069,2.7933,2.8055,2.7987,2.7689,2.7363,2.6997,2.6576,2.6427,2.6278,2.6129,2.5966,2.5898,2.5884,2.5722,2.0758,1.2395,0.3781,-0.0,-0.0,-0.0,-0.0,-0.0,-0.0,-0.0,-0.0,-0.0,-0.0,-0.0,-0.0,-0.0,-0.0,-0.0,-0.0,-0.0,-0.0,-0.0,-0.0,-0.0,-0.0,-0.0,-0.0,-0.0,-0.0,-0.0,-0.0,-0.0,-0.0,-0.0,-0.0,-0.0,-0.0,-0.0,-0.0,-0.0,-0.0,-0.0,-0.0,-0.0,-0.0,-0.0,-0.0,-0.0,-0.0,-0.0,-0.0,-0.0,-0.0,-0.0,-0.0,-0.0,-0.0,-0.0,-0.0,-0.0,-0.0,-0.0248,-0.1248,-1.391,-1.9722,3.5306,3.4165,3.253,2.7513,2.7196,2.7691,2.6878,2.6427,2.6169,2.5667,2.4948,2.4243,0.0,0.0,0.0,2.4758,2.5762,0.0,2.739,2.7757,0.0,2.7105,0.0,2.7105,2.6725,2.6712,0.0,0.0,2.7295,2.7539,2.8218,2.8177,2.8123,2.8082,2.7906,2.7662,2.7363,2.7065,2.6807,2.6576,2.6427,2.6278,2.6129,2.5966,2.5844,2.5749,2.5627,2.1944,1.4826,0.4392,-0.0,-0.0,-0.0,-0.0,-0.0,-0.0,-0.0,-0.0,-0.0,-0.0,-0.0,-0.0,-0.0,-0.0,-0.0,-0.0,-0.0,-0.0,-0.0,-0.0,-0.0,-0.0,-0.0,-0.0,-0.0,-0.0,-0.0,-0.0,-0.0,-0.0,-0.0,-0.0,-0.0,-0.0,-0.0,-0.0,-0.0,-0.0,-0.0,-0.0,-0.0,-0.0,-0.0,-0.0,-0.0,-0.0,-0.0,-0.0,-0.0,-0.0,-0.0,-0.0,-0.0,-0.0,-0.0,-0.0,-0.0,-0.0,-0.5009,-1.4772,-1.8649,-1.999,3.6489,3.5099,3.2849,2.7916,2.7691,2.8536,2.6356,2.5817,2.5369,2.446,2.37,2.3022,2.2425,0.0,0.0,0.0,0.0,0.0,2.7227,2.7716,2.7865,0.0,2.7634,0.0,2.7309,2.7309,2.7472,0.0,2.7539,2.758,2.8136,2.8163,2.8136,2.8136,2.7906,2.7594,2.716,2.6929,2.6698,2.6481,2.6332,2.6183,2.602,2.5939,2.5871,2.5776,2.5694,2.3647,2.0017,1.3561,0.6598,-0.0,-0.0,-0.0,-0.0,-0.0,-0.0,-0.0,-0.0,-0.0,-0.0,-0.0,-0.0,-0.0,-0.0,-0.0,-0.0,-0.0,-0.0,-0.0,-0.0,-0.0,-0.0,-0.0,-0.0,-0.0,-0.0,-0.0,-0.0,-0.0,-0.0,-0.0,-0.0,-0.0,-0.0,-0.0,-0.0,-0.0,-0.0,-0.0,-0.0,-0.0,-0.0,-0.0,-0.0,-0.0,-0.0,-0.0,-0.0,-0.0,-0.0,-0.0,-0.0,-0.0,-0.0,-0.0,-0.0,-0.0,-0.3783,-1.1105,-1.7229,-2.0111,3.852,3.7744,3.5821,2.9009,2.9614,3.0514,2.6268,2.4989,2.4433,2.313,2.2479,2.1991,2.1408,2.157,2.2113,2.3063,0.0,2.5491,2.7051,2.7404,2.7689,2.8136,2.796,2.7865,2.7987,2.7892,2.7987,2.8367,2.7919,2.7743,2.7987,2.8123,2.8163,2.8082,2.7933,2.758,2.701,2.6848,2.6631,2.6359,2.6196,2.6047,2.5898,2.5898,2.5898,2.5898,2.5817,2.5762,2.5403,2.5175,1.6441,0.3153,0.2207,0.0944,-0.0,-0.0,-0.0,-0.0,-0.0,-0.0,-0.0,-0.0,-0.0,-0.0,-0.0,-0.0,-0.0,-0.0,-0.0,-0.0,-0.0,-0.0,-0.0,-0.0,-0.0,-0.0,-0.0,-0.0,-0.0,-0.0,-0.0,-0.0,-0.0,-0.0,-0.0,-0.0,-0.0,-0.0,-0.0,-0.0,-0.0,-0.0,-0.0,-0.0,-0.0,-0.0,-0.0,-0.0,-0.0,-0.0,-0.0,-0.0,-0.0,-0.0,-0.0,-0.1023,-0.281,-0.2793,-0.2791,-0.3061,-1.4496,-1.9912,4.2374,3.8499,3.3122,3.2092,2.9263,2.6577,2.5312,2.4284,0.0,2.2303,2.1638,2.1082,2.0607,2.096,2.1747,2.3008,0.0,0.0,0.0,0.0,2.7879,0.0,0.0,0.0,2.8462,2.8448,0.0,0.0,2.8448,2.8408,2.8462,2.8489,2.8286,2.7784,2.7634,2.7309,2.6848,2.6698,2.6522,2.6359,2.6196,2.6047,2.5898,2.5898,2.5898,2.5898,2.5762,2.564,2.5518,2.5382,2.3358,2.0071,1.316,0.6243,-0.0,-0.0,-0.0,-0.0,-0.0,-0.0,-0.0,-0.0,-0.0,-0.0,-0.0,-0.0,-0.0,-0.0,-0.0,-0.0,-0.0,-0.0,-0.0,-0.0,-0.0,-0.0,-0.0,-0.0,-0.0,-0.0,-0.0,-0.0,-0.0,-0.0,-0.0,-0.0,-0.0,-0.0,-0.0,-0.0,-0.0,-0.0,-0.0,-0.0,-0.0,-0.0,-0.0,-0.0,-0.0,-0.0,-0.0,-0.0,-0.0,-0.0,-0.0,-0.5667,-1.7062,-1.7051,-1.6717,-1.6618,-1.928,-2.0084,3.7676,3.3901,2.9274,2.9675,2.7599,2.5315,2.4311,0.0,0.0,2.1218,2.0607,2.0214,1.9929,2.0349,0.0,0.0,0.0,0.0,0.0,0.0,0.0,0.0,0.0,0.0,0.0,0.0,2.8489,2.8584,2.8435,2.8421,2.8584,2.8435,2.8163,2.7716,2.7472,2.7173,2.6807,2.6644,2.6508,2.6359,2.6196,2.6047,2.5898,2.583,2.583,2.5898,2.5749,2.5694,2.5667,2.5477,2.5369,2.4675,2.0728,1.6548,1.18,0.3069,-0.0,-0.0,-0.0,-0.0,-0.0,-0.0,-0.0,-0.0,-0.0,-0.0,-0.0,-0.0,-0.0,-0.0,-0.0,-0.0,-0.0,-0.0,-0.0,-0.0,-0.0,-0.0,-0.0,-0.0,-0.0,-0.0,-0.0,-0.0,-0.0,-0.0,-0.0,-0.0,-0.0,-0.0,-0.0,-0.0,-0.0,-0.0,-0.0,-0.0,-0.0,-0.0,-0.0,-0.0,-0.0,-0.0,-0.3354,-1.0594,-1.0594,-1.2131,-1.5223,-1.8882,-2.0432,-2.0123,-1.3125,-0.9769,3.3511,3.0928,2.7862,2.7819,2.6552,2.4962,2.366,2.2588,2.1516,2.0254,1.9766,1.9522,1.94,1.9807,2.0404,0.0,2.2018,0.0,0.0,0.0,0.0,0.0,0.0,0.0,0.0,0.0,0.0,2.853,2.8313,2.8258,2.8421,2.8218,2.7946,2.7607,2.7363,2.7105,2.6807,2.6631,2.6468,2.6359,2.6169,2.602,2.5898,2.5776,2.5776,2.5844,2.5749,2.5708,2.5749,2.5518,2.5423,2.5095,2.5165,2.5016,2.3353,1.0087,0.3029,-0.0,-0.0,-0.0,-0.0,-0.0,-0.0,-0.0,-0.0,-0.0,-0.0,-0.0,-0.0,-0.0,-0.0,-0.0,-0.0,-0.0,-0.0,-0.0,-0.0,-0.0,-0.0,-0.0,-0.0,-0.0,-0.0,-0.0,-0.0,-0.0,-0.0,-0.0,-0.0,-0.0,-0.0,-0.0,-0.0,-0.0,-0.0,-0.0,-0.0,-0.0,-0.0,-0.0,-0.0,-0.0,-0.6452,-2.0256,-2.0526,-1.7855,-1.2587,-1.7797,-2.0432,-2.0229,-0.7978,-0.1288,3.7342,3.5629,3.2357,3.2175,2.84,2.4541,2.3334,2.2045,2.0838,1.9888,1.9454,1.9237,1.9223,1.9373,1.9847,2.0878,2.1462,2.2506,0.0,0.0,0.0,0.0,0.0,0.0,0.0,0.0,0.0,2.8367,2.8367,2.8245,2.7987,2.7946,2.7729,2.7295,2.7255,2.7105,2.6807,2.6522,2.6373,2.6359,2.6061,2.5925,2.5898,2.5884,2.5817,2.5708,2.5694,2.5532,2.5287,2.526,2.5179,2.5057,2.4948,2.5092,2.4872,2.321,1.3209,-0.0,-0.0,-0.0,-0.0,-0.0,-0.0,-0.0,-0.0,-0.0,-0.0,-0.0,-0.0,-0.0,-0.0,-0.0,-0.0,-0.0,-0.0,-0.0,-0.0,-0.0,-0.0,-0.0,-0.0,-0.0,-0.0,-0.0,-0.0,-0.0,-0.0,-0.0,-0.0,-0.0,-0.0,-0.0,-0.0,-0.0,-0.0,-0.0,-0.0,-0.0,-0.0,-0.0,-0.0,-0.0,-0.6452,-2.0256,-2.0526,-2.0203,-1.9574,-2.011,-2.0392,-2.0379,-1.2843,-0.5925,3.0047,2.9812,2.8979,2.88,2.6524,2.4134,2.3225,2.1828,2.0526,1.9807,1.9278,1.8979,1.9061,1.8898,1.9047,1.9902,2.0051,2.0702,2.252,0.0,0.0,0.0,0.0,0.0,0.0,0.0,0.0,2.7824,2.7919,2.7784,2.7404,2.7539,2.7526,2.7241,2.6983,2.678,2.6658,2.6468,2.6305,2.6224,2.6101,2.5952,2.5776,2.5667,2.5599,2.5545,2.5464,2.5396,2.5369,2.5315,2.522,2.5057,2.5188,2.4982,2.5037,2.5128,1.4307,-0.0,-0.0,-0.0,-0.0,-0.0,-0.0,-0.0,-0.0,-0.0,-0.0,-0.0,-0.0,-0.0,-0.0,-0.0,-0.0,-0.0,-0.0,-0.0,-0.0,-0.0,-0.0,-0.0,-0.0,-0.0,-0.0,-0.0,-0.0,-0.0,-0.0,-0.0,-0.0,-0.0,-0.0,-0.0,-0.0,-0.0,-0.0,-0.0,-0.0,-0.0,-0.0,-0.0,-0.0,-0.0,-0.2579,-0.7988,-1.6281,-2.0473,-2.0756,-2.0634,-2.0432,-2.0415,-1.7691,-1.5085,2.4704,2.5477,2.6074,2.6006,2.5016,2.3836,2.3008,2.157,2.0227,1.9535,1.8993,1.8654,1.8776,1.8531,1.8518,1.9074,1.9128,1.963,2.1041,2.1747,0.0,0.0,0.0,0.0,0.0,0.0,0.0,2.7417,2.7539,2.7458,2.7051,2.7187,2.7214,2.7051,2.6725,2.6549,2.6508,2.6359,2.6237,2.6129,2.6074,2.5939,2.5694,2.5586,2.5477,2.5396,2.5301,2.5287,2.5315,2.526,2.5165,2.5339,2.5078,2.5148,2.4297,1.94,1.0016,-0.0,-0.0,-0.0,-0.0,-0.0,-0.0,-0.0,-0.0,-0.0,-0.0,-0.0,-0.0,-0.0,-0.0,-0.0,-0.0,-0.0,-0.0,-0.0,-0.0,-0.0,-0.0,-0.0,-0.0,-0.0,-0.0,-0.0,-0.0,-0.0,-0.0,-0.0,-0.0,-0.0,-0.0,-0.0,-0.0,-0.0,-0.0,-0.0,-0.0,-0.0,-0.0,-0.0,-0.0,-0.0,-0.0,-0.0,-0.9519,-1.6559,-2.0593,-2.0716,-2.0566,-2.0613,-2.0534,-2.0494,2.3809,2.4786,2.5518,2.5654,2.4786,2.3632,2.2588,2.1177,1.9861,1.8952,1.8531,1.8314,1.8314,1.8314,1.8369,1.8518,1.9047,1.9752,2.0648,2.1543,0.0,0.0,0.0,0.0,0.0,0.0,0.0,2.7255,2.739,2.735,2.7051,2.6888,2.6725,2.659,2.6576,2.6508,2.6359,2.6196,2.6129,2.6129,2.5979,2.583,2.5694,2.5694,2.5518,2.5233,2.5301,2.522,2.5016,2.5003,2.4948,2.4853,2.5148,2.494,2.29,0.6466,0.0291,-0.0,-0.0,-0.0,-0.0,-0.0,-0.0,-0.0,-0.0,-0.0,-0.0,-0.0,-0.0,-0.0,-0.0,-0.0,-0.0,-0.0,-0.0,-0.0,-0.0,-0.0,-0.0,-0.0,-0.0,-0.0,-0.0,-0.0,-0.0,-0.0,-0.0,-0.0,-0.0,-0.0,-0.0,-0.0,-0.0,-0.0,-0.0,-0.0,-0.0,-0.0,-0.0,-0.0,-0.0,-0.0,-0.0,-0.0,-0.0257,-0.6972,-2.0401,-2.0933,-2.0741,-2.0613,-2.0403,-2.0613,2.1706,2.2574,2.3307,2.3253,2.2723,2.2018,2.1285,2.0349,1.9454,1.8749,1.8287,1.8043,1.8138,1.8002,1.807,1.8749,1.8925,1.9291,2.0187,0.0,0.0,0.0,0.0,0.0,0.0,0.0,0.0,2.6943,2.6888,2.6766,2.659,2.6522,2.6522,2.6576,2.6373,2.6251,2.6196,2.6047,2.5925,2.583,2.5776,2.5627,2.5369,2.5369,2.522,2.4935,2.5111,2.5016,2.4786,2.4962,2.4853,2.3921,1.2394,0.8053,0.7359,0.2048,-0.0,-0.0,-0.0,-0.0,-0.0,-0.0,-0.0,-0.0,-0.0,-0.0,-0.0,-0.0,-0.0,-0.0,-0.0,-0.0,-0.0,-0.0,-0.0,-0.0,-0.0,-0.0,-0.0,-0.0,-0.0,-0.0,-0.0,-0.0,-0.0,-0.0,-0.0,-0.0,-0.0,-0.0,-0.0,-0.0,-0.0,-0.0,-0.0,-0.0,-0.0,-0.0,-0.0,-0.0,-0.0,-0.0,-0.0,-0.0,-0.0,-0.4452,-1.3489,-1.3673,-1.6078,-2.0547,-2.0825,-2.1009,2.0227,2.1068,2.176,2.1774,2.1435,2.0946,2.0349,1.963,1.8925,1.8314,1.7935,1.7717,1.7826,1.769,1.7745,1.8301,1.8518,1.8843,1.9576,0.0,0.0,0.0,0.0,0.0,0.0,0.0,2.6644,2.6644,2.6549,2.6454,2.6359,2.6305,2.6305,2.64,2.6224,2.6101,2.6047,2.5952,2.583,2.5694,2.5694,2.5532,2.5233,2.5179,2.5016,2.4786,2.4908,2.4853,0.0,1.8211,1.9353,2.3447,0.6586,-0.0,-0.0,-0.0,-0.0,-0.0,-0.0,-0.0,-0.0,-0.0,-0.0,-0.0,-0.0,-0.0,-0.0,-0.0,-0.0,-0.0,-0.0,-0.0,-0.0,-0.0,-0.0,-0.0,-0.0,-0.0,-0.0,-0.0,-0.0,-0.0,-0.0,-0.0,-0.0,-0.0,-0.0,-0.0,-0.0,-0.0,-0.0,-0.0,-0.0,-0.0,-0.0,-0.0,-0.0,-0.0,-0.0,-0.0,-0.0,-0.0,-0.0,-0.0,-0.0,-0.2112,-0.6387,-0.6366,-0.8512,-1.2862,-1.3112,-1.601,0.0,2.0064,2.0594,2.0878,2.0648,2.02,1.9644,1.8979,0.0,1.7758,1.7514,1.7405,1.7433,1.7419,1.7419,1.7473,1.7962,1.8491,1.8952,0.0,0.0,0.0,0.0,0.0,0.0,0.0,2.6346,2.6346,2.6346,2.6332,2.6332,2.6183,2.6115,2.6101,2.6101,2.602,2.5884,2.5884,2.5817,2.5654,2.5654,2.5491,2.5192,2.5057,2.4921,2.4758,2.4758,2.4398,2.2438,0.6679,0.9085,2.1539,0.6226,-0.0,-0.0,-0.0,-0.0,-0.0,-0.0,-0.0,-0.0,-0.0,-0.0,-0.0,-0.0,-0.0,-0.0,-0.0,-0.0,-0.0,-0.0,-0.0,-0.0,-0.0,-0.0,-0.0,-0.0,-0.0,-0.0,-0.0,-0.0,-0.0,-0.0,-0.0,-0.0,-0.0,-0.0,-0.0,-0.0,-0.0,-0.0,-0.0,-0.0,-0.0,-0.0,-0.0,-0.0,-0.0,-0.0,-0.0,-0.0,-0.0,-0.0,-0.0,-0.0,-0.0,-0.0,-0.0,-0.0,-0.0,-0.0,-0.7488,1.7161,0.0,1.8233,1.8301,1.8409,1.8423,0.0,1.807,1.7921,0.0,0.0,1.7311,1.7555,1.7405,1.7433,1.8016,1.8314,1.8667,1.925,0.0,0.0,0.0,0.0,0.0,0.0,0.0,2.6183,2.6183,2.6074,2.6006,2.6006,2.5979,2.5898,2.5803,2.5803,2.5776,2.5749,2.5749,2.5599,2.5342,2.5342,2.5179,2.4894,2.4867,2.4704,2.4473,2.4663,2.0866,1.4234,0.4237,0.2404,0.5627,0.1467,-0.0,-0.0,-0.0,-0.0,-0.0,-0.0,-0.0,-0.0,-0.0,-0.0,-0.0,-0.0,-0.0,-0.0,-0.0,-0.0,-0.0,-0.0,-0.0,-0.0,-0.0,-0.0,-0.0,-0.0,-0.0,-0.0,-0.0,-0.0,-0.0,-0.0,-0.0,-0.0,-0.0,-0.0,-0.0,-0.0,-0.0,-0.0,-0.0,-0.0,-0.0,-0.0,-0.0,-0.0,-0.0,-0.0,-0.0,-0.0,-0.0,-0.0,-0.0,-0.0,-0.0,-0.0,-0.0,-0.0,-0.0,-0.0,-0.4809,1.6696,1.6809,1.7311,1.7311,1.7541,1.7717,1.7582,1.7555,0.0,0.0,0.0,1.7148,1.7311,1.7256,1.7378,1.7907,1.8247,1.8898,0.0,0.0,0.0,0.0,0.0,0.0,0.0,0.0,2.5952,2.602,2.5884,2.583,2.5898,2.5898,2.583,2.5694,2.5627,2.5586,2.5586,2.5586,2.5464,2.5233,2.5165,2.5016,2.4786,2.465,2.4514,2.4406,2.4501,2.1937,1.6581,0.479,-0.0,-0.0,-0.0,-0.0,-0.0,-0.0,-0.0,-0.0,-0.0,-0.0,-0.0,-0.0,-0.0,-0.0,-0.0,-0.0,-0.0,-0.0,-0.0,-0.0,-0.0,-0.0,-0.0,-0.0,-0.0,-0.0,-0.0,-0.0,-0.0,-0.0,-0.0,-0.0,-0.0,-0.0,-0.0,-0.0,-0.0,-0.0,-0.0,-0.0,-0.0,-0.0,-0.0,-0.0,-0.0,-0.0,-0.0,-0.0,-0.0,-0.0,-0.0,-0.0,-0.0,-0.0,-0.0,-0.0,-0.0,-0.0,-0.0,-0.0,-0.0,-0.2143,1.8168,1.813,1.8463,1.7953,1.7953,1.815,1.8023,0.0,0.0,0.0,0.0,0.0,0.0,0.0,0.0,0.0,0.0,0.0,0.0,0.0,0.0,0.0,0.0,0.0,0.0,2.5694,2.5708,2.583,2.5722,2.5722,2.5871,2.5844,2.5762,2.5627,2.5477,2.5369,2.5328,2.5355,2.5287,2.5125,2.5003,2.488,2.4718,2.446,2.4351,2.4365,2.2754,2.2978,2.2887,0.6799,-0.0,-0.0,-0.0,-0.0,-0.0,-0.0,-0.0,-0.0,-0.0,-0.0,-0.0,-0.0,-0.0,-0.0,-0.0,-0.0,-0.0,-0.0,-0.0,-0.0,-0.0,-0.0,-0.0,-0.0,-0.0,-0.0,-0.0,-0.0,-0.0,-0.0,-0.0,-0.0,-0.0,-0.0,-0.0,-0.0,-0.0,-0.0,-0.0,-0.0,-0.0,-0.0,-0.0,-0.0,-0.0,-0.0,-0.0,-0.0,-0.0,-0.0,-0.0,-0.0,-0.0,-0.0,-0.0,-0.0,-0.0,-0.0,-0.0,-0.0,-0.0,-0.0,2.3982,2.4361,2.3965,2.0815,2.0332,2.0611,2.0578,2.0545,0.0,0.0,0.0,0.0,0.0,0.0,0.0,0.0,0.0,0.0,0.0,0.0,0.0,0.0,0.0,0.0,2.4989,2.5287,2.5518,2.5532,2.5518,2.5572,2.5708,2.5599,2.5464,2.5301,2.5165,2.4962,2.4704,2.4826,2.4813,2.4663,2.465,2.4568,2.4419,2.4365,2.4243,2.3742,1.6786,1.767,2.2746,0.6756,-0.0,-0.0,-0.0,-0.0,-0.0,-0.0,-0.0,-0.0,-0.0,-0.0,-0.0,-0.0,-0.0,-0.0,-0.0,-0.0,-0.0,-0.0,-0.0,-0.0,-0.0,-0.0,-0.0,-0.0,-0.0,-0.0,-0.0,-0.0,-0.0,-0.0,-0.0,-0.0,-0.0,-0.0,-0.0,-0.0,-0.0,-0.0,-0.0,-0.0,-0.0,-0.0,-0.0,-0.0,-0.0,-0.0,-0.0,-0.0,-0.0,-0.0,-0.0,-0.0,-0.0,-0.0,-0.0,-0.0,-0.0,-0.0,-0.0,-0.0,-0.0,-0.0,2.4556,2.4709,2.5134,2.5502,2.4973,2.4324,2.3774,2.3606,0.0,0.0,0.0,0.0,0.0,0.0,0.0,0.0,0.0,0.0,0.0,0.0,0.0,0.0,0.0,0.0,2.5138,2.5274,2.5369,2.5464,2.5464,2.5505,2.5572,2.5586,2.545,2.5125,2.4962,2.4758,2.446,2.4433,2.4473,2.4568,2.4487,2.4365,2.4229,2.4229,2.4161,2.3728,1.5557,1.1632,1.04,0.2921,-0.0,-0.0,-0.0,-0.0,-0.0,-0.0,-0.0,-0.0,-0.0,-0.0,-0.0,-0.0,-0.0,-0.0,-0.0,-0.0,-0.0,-0.0,-0.0,-0.0,-0.0,-0.0,-0.0,-0.0,-0.0,-0.0,-0.0,-0.0,-0.0,-0.0,-0.0,-0.0,-0.0,-0.0,-0.0,-0.0,-0.0,-0.0,-0.0,-0.0,-0.0,-0.0,-0.0,-0.0,-0.0,-0.0,-0.0,-0.0,-0.0,-0.0,-0.0,-0.0,-0.0,-0.0,-0.0,-0.0,-0.0,-0.0,-0.0,-0.0,-0.0,-0.0,2.616,2.6037,2.7159,3.0047,2.9187,2.7586,2.7653,2.7144,0.0,0.0,0.0,0.0,0.0,0.0,0.0,0.0,0.0,0.0,0.0,0.0,0.0,0.0,2.4826,2.4989,2.5328,2.5287,2.526,2.5355,2.5396,2.541,2.541,2.5464,2.5315,2.4989,2.4786,2.4555,2.4297,2.4175,2.4229,2.446,2.4351,2.4202,2.4066,2.4066,2.4053,2.3702,1.5495,0.7415,-0.0,-0.0,-0.0,-0.0,-0.0,-0.0,-0.0,-0.0,-0.0,-0.0,-0.0,-0.0,-0.0,-0.0,-0.0,-0.0,-0.0,-0.0,-0.0,-0.0,-0.0,-0.0,-0.0,-0.0,-0.0,-0.0,-0.0,-0.0,-0.0,-0.0,-0.0,-0.0,-0.0,-0.0,-0.0,-0.0,-0.0,-0.0,-0.0,-0.0,-0.0,-0.0,-0.0,-0.0,-0.0,-0.0,-0.0,-0.0,-0.0,-0.0,-0.0,-0.0,-0.0,-0.0,-0.0,-0.0,-0.0,-0.0,-0.0,-0.0,-0.0,-0.0,-0.0,-0.0,3.2353,3.2484,3.2405,3.2947,3.121,2.9793,3.1856,3.1668,0.0,2.9477,0.0,0.0,0.0,0.0,0.0,0.0,0.0,0.0,0.0,0.0,0.0,2.4772,2.4921,2.5016,2.5057,2.5165,2.5179,2.5057,2.5179,2.5247,2.5247,2.5003,2.484,2.4813,2.4528,2.4297,2.4134,2.4121,2.4134,2.4161,2.4134,2.4053,2.3904,2.3904,2.3877,2.3782,1.5611,0.7605,-0.0,-0.0,-0.0,-0.0,-0.0,-0.0,-0.0,-0.0,-0.0,-0.0,-0.0,-0.0,-0.0,-0.0,-0.0,-0.0,-0.0,-0.0,-0.0,-0.0,-0.0,-0.0,-0.0,-0.0,-0.0,-0.0,-0.0,-0.0,-0.0,-0.0,-0.0,-0.0,-0.0,-0.0,-0.0,-0.0,-0.0,-0.0,-0.0,-0.0,-0.0,-0.0,-0.0,-0.0,-0.0,-0.0,-0.0,-0.0,-0.0,-0.0,-0.0,-0.0,-0.0,-0.0,-0.0,-0.0,-0.0,-0.0,-0.0,-0.0,-0.0,-0.0,-0.0,-0.0,3.2118,3.2385,3.2625,3.348,3.3094,0.0,0.0,3.499,3.5304,3.5771,3.5833,0.0,0.0,0.0,0.0,0.0,0.0,0.0,0.0,0.0,2.4758,2.4921,2.4894,2.4921,2.5003,2.4989,2.4962,2.5016,2.5138,2.5192,2.5111,2.5003,2.484,2.465,2.446,2.4229,2.3985,2.3985,2.3931,2.3863,2.3944,2.3863,2.3632,2.3714,2.3768,2.3447,2.0537,1.4586,0.6996,0.6861,0.4246,-0.0,-0.0,-0.0,-0.0,-0.0,-0.0,-0.0,-0.0,-0.0,-0.0,-0.0,-0.0,-0.0,-0.0,-0.0,-0.0,-0.0,-0.0,-0.0,-0.0,-0.0,-0.0,-0.0,-0.0,-0.0,-0.0,-0.0,-0.0,-0.0,-0.0,-0.0,-0.0,-0.0,-0.0,-0.0,-0.0,-0.0,-0.0,-0.0,-0.0,-0.0,-0.0,-0.0,-0.0,-0.0,-0.0,-0.0,-0.0,-0.0,-0.0,-0.0,-0.0,-0.0,-0.0,-0.0,-0.0,-0.0,-0.0,-0.0,-0.0,-0.0,3.1717,3.1877,3.2171,3.3106,3.2989,0.0,3.4811,3.6682,3.8504,4.0428,4.0829,0.0,0.0,0.0,0.0,0.0,0.0,0.0,0.0,0.0,2.488,2.4948,2.4867,2.4826,2.4935,2.4894,2.4921,2.5016,2.5138,2.5138,2.4948,2.4894,2.4758,2.4514,2.4351,2.4161,2.389,2.389,2.3809,2.3605,2.37,2.3646,2.3456,2.3551,2.3632,2.3353,2.3361,2.007,1.4834,1.4814,1.0426,0.3374,0.0846,-0.0,-0.0,-0.0,-0.0,-0.0,-0.0,-0.0,-0.0,-0.0,-0.0,-0.0,-0.0,-0.0,-0.0,-0.0,-0.0,-0.0,-0.0,-0.0,-0.0,-0.0,-0.0,-0.0,-0.0,-0.0,-0.0,-0.0,-0.0,-0.0,-0.0,-0.0,-0.0,-0.0,-0.0,-0.0,-0.0,-0.0,-0.0,-0.0,-0.0,-0.0,-0.0,-0.0,-0.0,-0.0,-0.0,-0.0,-0.0,-0.0,-0.0,-0.0,-0.0,-0.0,-0.0,-0.0,-0.0,-0.0,-0.0,-0.0,3.2171,3.1904,3.1744,3.2038,0.0,0.0,3.2321,3.6129,4.0,4.2939,0.0,4.1726,3.882,0.0,0.0,0.0,0.0,0.0,0.0,2.4826,2.4962,2.4813,2.4786,2.4786,2.4786,2.4935,2.5016,2.5016,2.5138,2.5098,2.4813,2.465,2.4487,2.4351,2.4189,2.4053,2.389,2.389,2.3727,2.3456,2.3456,2.3456,2.3456,2.3456,2.3456,2.3429,2.3212,2.3076,2.2777,2.2523,1.8049,1.0603,0.3073,-0.0,-0.0,-0.0,-0.0,-0.0,-0.0,-0.0,-0.0,-0.0,-0.0,-0.0,-0.0,-0.0,-0.0,-0.0,-0.0,-0.0,-0.0,-0.0,-0.0,-0.0,-0.0,-0.0,-0.0,-0.0,-0.0,-0.0,-0.0,-0.0,-0.0,-0.0,-0.0,-0.0,-0.0,-0.0,-0.0,-0.0,-0.0,-0.0,-0.0,-0.0,-0.0,-0.0,-0.0,-0.0,-0.0,-0.0,-0.0,-0.0,-0.0,-0.0,-0.0,-0.0,-0.0,-0.0,-0.0,-0.0,-0.0,-0.0,3.2225,3.2038,0.0,0.0,0.0,0.0,0.0,3.5274,0.0,0.0,0.0,0.0,4.2146,0.0,0.0,0.0,0.0,2.5257,2.4941,2.4813,2.484,2.4786,2.4704,2.4636,2.4636,2.4663,2.4704,2.4704,2.484,2.484,2.4636,2.4487,2.4379,2.4351,2.4107,2.389,2.3754,2.3632,2.3483,2.3293,2.3293,2.3293,2.3293,2.3293,2.3347,2.3429,2.3049,2.294,2.3008,2.2375,2.1049,1.8741,1.6517,0.9222,-0.0,-0.0,-0.0,-0.0,-0.0,-0.0,-0.0,-0.0,-0.0,-0.0,-0.0,-0.0,-0.0,-0.0,-0.0,-0.0,-0.0,-0.0,-0.0,-0.0,-0.0,-0.0,-0.0,-0.0,-0.0,-0.0,-0.0,-0.0,-0.0,-0.0,-0.0,-0.0,-0.0,-0.0,-0.0,-0.0,-0.0,-0.0,-0.0,-0.0,-0.0,-0.0,-0.0,-0.0,-0.0,-0.0,-0.0,-0.0,-0.0,-0.0,-0.0,-0.0,-0.0,-0.0,-0.0,-0.0,-0.0,-0.0,3.2652,0.0,0.0,0.0,0.0,0.0,0.0,0.0,0.0,0.0,0.0,0.0,0.0,0.0,0.0,0.0,2.8569,2.5836,2.4927,2.4704,2.4704,2.4704,2.4568,2.4473,2.4473,2.4473,2.4514,2.4568,2.465,2.4636,2.4487,2.4338,2.4229,2.4175,2.3931,2.3727,2.3592,2.3497,2.3375,2.3225,2.3225,2.3225,2.3225,2.3225,2.3239,2.3253,2.2873,2.271,2.2723,2.2479,2.2371,2.2384,2.2161,1.6785,0.837,0.5585,0.4469,0.3918,0.1121,-0.0,-0.0,-0.0,-0.0,-0.0,-0.0,-0.0,-0.0,-0.0,-0.0,-0.0,-0.0,-0.0,-0.0,-0.0,-0.0,-0.0,-0.0,-0.0,-0.0,-0.0,-0.0,-0.0,-0.0,-0.0,-0.0,-0.0,-0.0,-0.0,-0.0,-0.0,-0.0,-0.0,-0.0,-0.0,-0.0,-0.0,-0.0,-0.0,-0.0,-0.0,-0.0,-0.0,-0.0,-0.0,-0.0,-0.0,-0.0,-0.0,-0.0,-0.0,-0.0,-0.0,0.0,0.0,0.0,0.0,0.0,0.0,0.0,0.0,0.0,0.0,0.0,0.0,0.0,0.0,0.0,0.0,2.9042,2.788,2.5093,2.4541,2.4541,2.4541,2.4419,2.4351,2.4338,2.4351,2.4392,2.4487,2.4514,2.446,2.4297,2.4161,2.4012,2.3877,2.3727,2.3592,2.3456,2.3429,2.3361,2.3225,2.3198,2.3198,2.3198,2.3198,2.3117,2.2954,2.2683,2.2466,2.2344,2.2344,2.2344,2.2344,2.2384,2.2411,2.1553,1.48,1.2288,1.1167,0.4466,0.1118,-0.0,-0.0,-0.0,-0.0,-0.0,-0.0,-0.0,-0.0,-0.0,-0.0,-0.0,-0.0,-0.0,-0.0,-0.0,-0.0,-0.0,-0.0,-0.0,-0.0,-0.0,-0.0,-0.0,-0.0,-0.0,-0.0,-0.0,-0.0,-0.0,-0.0,-0.0,-0.0,-0.0,-0.0,-0.0,-0.0,-0.0,-0.0,-0.0,-0.0,-0.0,-0.0,-0.0,-0.0,-0.0,-0.0,-0.0,-0.0,-0.0,-0.0,-0.0,-0.0,0.0,0.0,0.0,0.0,0.0,0.0,0.0,0.0,0.0,0.0,0.0,0.0,0.0,0.0,0.0,2.9241,2.6977,2.5058,2.4514,2.4473,2.4406,2.4406,2.4365,2.4297,2.4175,2.4284,2.4256,2.4053,2.4161,2.4107,2.3836,2.3782,2.3768,2.3727,2.3578,2.3483,2.3456,2.3334,2.3253,2.3225,2.3117,2.3063,2.3063,2.3063,2.29,2.2642,2.2588,2.2466,2.2344,2.2344,2.2344,2.2344,2.2357,2.2371,2.2121,2.0431,1.99,1.9645,1.7951,0.9786,-0.0,-0.0,-0.0,-0.0,-0.0,-0.0,-0.0,-0.0,-0.0,-0.0,-0.0,-0.0,-0.0,-0.0,-0.0,-0.0,-0.0,-0.0,-0.0,-0.0,-0.0,-0.0,-0.0,-0.0,-0.0,-0.0,-0.0,-0.0,-0.0,-0.0,-0.0,-0.0,-0.0,-0.0,-0.0,-0.0,-0.0,-0.0,-0.0,-0.0,-0.0,-0.0,-0.0,-0.0,-0.0,-0.0,-0.0,-0.0,-0.0,-0.0,-0.0,-0.0,0.0,0.0,0.0,0.0,0.0,0.0,0.0,0.0,0.0,0.0,0.0,0.0,0.0,0.0,0.0,2.6757,2.5299,2.4202,2.4419,2.4338,2.4256,2.4351,2.4284,2.4175,2.4039,2.408,2.3999,2.37,2.3754,2.37,2.347,2.347,2.347,2.347,2.3375,2.3347,2.3347,2.3253,2.3185,2.3117,2.3049,2.294,2.2805,2.2805,2.271,2.2547,2.2479,2.2411,2.2344,2.2344,2.2344,2.2344,2.2344,2.2357,2.2371,2.2371,2.2384,2.2425,2.2161,1.7084,0.9507,0.2235,-0.0,-0.0,-0.0,-0.0,-0.0,-0.0,-0.0,-0.0,-0.0,-0.0,-0.0,-0.0,-0.0,-0.0,-0.0,-0.0,-0.0,-0.0,-0.0,-0.0,-0.0,-0.0,-0.0,-0.0,-0.0,-0.0,-0.0,-0.0,-0.0,-0.0,-0.0,-0.0,-0.0,-0.0,-0.0,-0.0,-0.0,-0.0,-0.0,-0.0,-0.0,-0.0,-0.0,-0.0,-0.0,-0.0,-0.0,-0.0,-0.0,-0.0,0.0,0.0,0.0,0.0,0.0,0.0,0.0,0.0,0.0,0.0,0.0,0.0,0.0,0.0,2.4053,2.408,2.4066,2.4107,2.4243,2.4134,2.408,2.4229,2.4121,2.3999,2.3877,2.3836,2.37,2.3429,2.3375,2.3307,2.3158,2.3158,2.3158,2.3158,2.3158,2.3158,2.3158,2.3158,2.3076,2.2981,2.294,2.2778,2.252,2.252,2.252,2.252,2.2398,2.2344,2.2344,2.2344,2.2344,2.2344,2.2344,2.2344,2.2344,2.2344,2.2344,2.2344,2.2384,2.2161,1.9924,0.6422,0.1119,-0.0,-0.0,-0.0,-0.0,-0.0,-0.0,-0.0,-0.0,-0.0,-0.0,-0.0,-0.0,-0.0,-0.0,-0.0,-0.0,-0.0,-0.0,-0.0,-0.0,-0.0,-0.0,-0.0,-0.0,-0.0,-0.0,-0.0,-0.0,-0.0,-0.0,-0.0,-0.0,-0.0,-0.0,-0.0,-0.0,-0.0,-0.0,-0.0,-0.0,-0.0,-0.0,-0.0,-0.0,-0.0,-0.0,-0.0,-0.0,-0.0,0.0,0.0,0.0,0.0,0.0,0.0,0.0,0.0,0.0,0.0,0.0,0.0,0.0,0.0,2.3782,2.3904,2.3822,2.3782,2.3931,2.3822,2.3754,2.3768,2.3754,2.3727,2.3714,2.3592,2.3429,2.3253,2.313,2.3008,2.2846,2.2832,2.2832,2.2832,2.2832,2.2832,2.2832,2.2832,2.2832,2.2818,2.2683,2.2534,2.2371,2.2371,2.2371,2.2371,2.2344,2.2344,2.2344,2.2344,2.2344,2.2344,2.2344,2.2344,2.2344,2.2344,2.2344,2.2344,2.2344,2.2411,2.0783,1.2574,0.5313,-0.0,-0.0,-0.0,-0.0,-0.0,-0.0,-0.0,-0.0,-0.0,-0.0,-0.0,-0.0,-0.0,-0.0,-0.0,-0.0,-0.0,-0.0,-0.0,-0.0,-0.0,-0.0,-0.0,-0.0,-0.0,-0.0,-0.0,-0.0,-0.0,-0.0,-0.0,-0.0,-0.0,-0.0,-0.0,-0.0,-0.0,-0.0,-0.0,-0.0,-0.0,-0.0,-0.0,-0.0,-0.0,-0.0,-0.0,-0.0,-0.0,0.0,0.0,0.0,0.0,0.0,0.0,0.0,0.0,0.0,0.0,0.0,0.0,0.0,2.4877,2.3578,2.3632,2.366,2.37,2.3768,2.3714,2.3687,2.3687,2.3687,2.3646,2.3551,2.3415,2.3225,2.2995,2.2832,2.2696,2.2534,2.2601,2.2656,2.2656,2.2723,2.2778,2.2778,2.2778,2.2751,2.2656,2.2493,2.2398,2.2344,2.2344,2.2344,2.2344,2.2344,2.2344,2.2344,2.2344,2.2344,2.2344,2.2344,2.2344,2.2344,2.2344,2.2344,2.2344,2.2371,2.2425,2.1644,1.8531,0.9524,-0.0,-0.0,-0.0,-0.0,-0.0,-0.0,-0.0,-0.0,-0.0,-0.0,-0.0,-0.0,-0.0,-0.0,-0.0,-0.0,-0.0,-0.0,-0.0,-0.0,-0.0,-0.0,-0.0,-0.0,-0.0,-0.0,-0.0,-0.0,-0.0,-0.0,-0.0,-0.0,-0.0,-0.0,-0.0,-0.0,-0.0,-0.0,-0.0,-0.0,-0.0,-0.0,-0.0,-0.0,-0.0,-0.0,-0.0,-0.0,-0.0,0.0,0.0,0.0,0.0,0.0,0.0,0.0,0.0,0.0,0.0,0.0,0.0,0.0,2.7564,2.4431,2.3334,2.3429,2.3524,2.3551,2.3551,2.3551,2.3551,2.3551,2.351,2.3347,2.3198,2.3008,2.2751,2.2588,2.2452,2.2344,2.2452,2.2506,2.2506,2.2601,2.2669,2.2669,2.2669,2.2601,2.2506,2.2398,2.2344,2.2344,2.2344,2.2344,2.2344,2.2344,2.2344,2.2344,2.2344,2.2344,2.2344,2.2344,2.2344,2.2344,2.2344,2.2344,2.2344,2.2384,2.1024,1.9657,2.171,1.2075,-0.0,-0.0,-0.0,-0.0,-0.0,-0.0,-0.0,-0.0,-0.0,-0.0,-0.0,-0.0,-0.0,-0.0,-0.0,-0.0,-0.0,-0.0,-0.0,-0.0,-0.0,-0.0,-0.0,-0.0,-0.0,-0.0,-0.0,-0.0,-0.0,-0.0,-0.0,-0.0,-0.0,-0.0,-0.0,-0.0,-0.0,-0.0,-0.0,-0.0,-0.0,-0.0,-0.0,-0.0,-0.0,-0.0,-0.0,-0.0,-0.0,0.0,0.0,0.0,0.0,0.0,0.0,0.0,0.0,0.0,0.0,0.0,0.0,0.0,3.2491,2.676,2.3564,2.3049,2.3103,2.3225,2.3239,2.3239,2.3239,2.3239,2.3185,2.3049,2.2886,2.2751,2.2574,2.2425,2.2344,2.2344,2.2344,2.2357,2.2357,2.2357,2.2357,2.2357,2.2357,2.2357,2.2357,2.2344,2.2344,2.2344,2.2344,2.2344,2.2344,2.2344,2.2344,2.2344,2.2344,2.2344,2.2344,2.2344,2.2344,2.2344,2.2344,2.2344,2.2344,2.2384,1.7608,1.286,1.9984,1.2075,-0.0,-0.0,-0.0,-0.0,-0.0,-0.0,-0.0,-0.0,-0.0,-0.0,-0.0,-0.0,-0.0,-0.0,-0.0,-0.0,-0.0,-0.0,-0.0,-0.0,-0.0,-0.0,-0.0,-0.0,-0.0,-0.0,-0.0,-0.0,-0.0,-0.0,-0.0,-0.0,-0.0,-0.0,-0.0,-0.0,-0.0,-0.0,-0.0,-0.0,-0.0,-0.0,-0.0,-0.0,-0.0,-0.0,-0.0,-0.0,-0.0,3.1984,0.0,0.0,0.0,0.0,0.0,0.0,0.0,0.0,0.0,0.0,0.0,3.5613,3.1147,2.76,2.629,2.4467,2.2886,2.294,2.294,2.294,2.294,2.294,2.2927,2.2873,2.2723,2.2601,2.2547,2.2425,2.2344,2.2344,2.2344,2.2344,2.2344,2.2344,2.2344,2.2344,2.2344,2.2344,2.2344,2.2344,2.2344,2.2344,2.2344,2.2344,2.2344,2.2344,2.2344,2.2344,2.2344,2.2344,2.2344,2.2344,2.2344,2.2344,2.2344,2.2344,2.2357,2.2161,1.7351,1.0888,0.8685,0.4488,-0.0,-0.0,-0.0,-0.0,-0.0,-0.0,-0.0,-0.0,-0.0,-0.0,-0.0,-0.0,-0.0,-0.0,-0.0,-0.0,-0.0,-0.0,-0.0,-0.0,-0.0,-0.0,-0.0,-0.0,-0.0,-0.0,-0.0,-0.0,-0.0,-0.0,-0.0,-0.0,-0.0,-0.0,-0.0,-0.0,-0.0,-0.0,-0.0,-0.0,-0.0,-0.0,-0.0,-0.0,-0.0,-0.0,-0.0,-0.0,-0.0,3.1637,0.0,0.0,0.0,0.0,0.0,0.0,0.0,0.0,0.0,0.0,0.0,3.5725,3.179,2.9033,2.659,2.4263,2.271,2.271,2.2751,2.2778,2.2778,2.2778,2.2764,2.271,2.2601,2.2534,2.2479,2.2398,2.2344,2.2344,2.2344,2.2344,2.2344,2.2344,2.2344,2.2344,2.2344,2.2344,2.2344,2.2344,2.2344,2.2344,2.2344,2.2344,2.2344,2.2344,2.2344,2.2344,2.2344,2.2344,2.2344,2.2344,2.2344,2.2344,2.2344,2.2357,2.2371,2.2188,1.9088,1.3163,0.3362,-0.0,-0.0,-0.0,-0.0,-0.0,-0.0,-0.0,-0.0,-0.0,-0.0,-0.0,-0.0,-0.0,-0.0,-0.0,-0.0,-0.0,-0.0,-0.0,-0.0,-0.0,-0.0,-0.0,-0.0,-0.0,-0.0,-0.0,-0.0,-0.0,-0.0,-0.0,-0.0,-0.0,-0.0,-0.0,-0.0,-0.0,-0.0,-0.0,-0.0,-0.0,-0.0,-0.0,-0.0,-0.0,-0.0,-0.0,-0.0,-0.0,-0.0,0.0,0.0,0.0,0.0,0.0,0.0,0.0,0.0,0.0,0.0,0.0,0.0,3.856,3.5144,3.0725,2.3406,2.2452,2.2547,2.2547,2.2683,2.2764,2.2764,2.2764,2.271,2.2547,2.2547,2.2479,2.2357,2.2344,2.2344,2.2344,2.2344,2.2344,2.2344,2.2344,2.2344,2.2344,2.2344,2.2344,2.2344,2.2344,2.2344,2.2344,2.2344,2.2344,2.2344,2.2344,2.2344,2.2344,2.2344,2.2344,2.2344,2.2344,2.2344,2.2344,2.2344,2.2371,2.2411,2.191,2.2241,1.9728,0.4768,-0.0,-0.0,-0.0,-0.0,-0.0,-0.0,-0.0,-0.0,-0.0,-0.0,-0.0,-0.0,-0.0,-0.0,-0.0,-0.0,-0.0,-0.0,-0.0,-0.0,-0.0,-0.0,-0.0,-0.0,-0.0,-0.0,-0.0,-0.0,-0.0,-0.0,-0.0,-0.0,-0.0,-0.0,-0.0,-0.0,-0.0,-0.0,-0.0,-0.0,-0.0,-0.0,-0.0,-0.0,-0.0,-0.0,-0.0,-0.0,-0.0,-0.0,3.1022,0.0,0.0,0.0,0.0,0.0,3.5004,3.5965,0.0,0.0,0.0,0.0,3.3744,3.0975,2.7207,2.2793,2.2235,2.2398,2.2398,2.2425,2.2466,2.2466,2.2466,2.2452,2.2411,2.2398,2.2371,2.2344,2.2344,2.2344,2.2344,2.2344,2.2344,2.2344,2.2344,2.2344,2.2344,2.2344,2.2344,2.2344,2.2344,2.2344,2.2344,2.2344,2.2344,2.2344,2.2344,2.2344,2.2344,2.2344,2.2344,2.2344,2.2344,2.2344,2.2344,2.2344,2.2371,2.1553,1.6219,1.7683,1.9728,0.4768,-0.0,-0.0,-0.0,-0.0,-0.0,-0.0,-0.0,-0.0,-0.0,-0.0,-0.0,-0.0,-0.0,-0.0,-0.0,-0.0,-0.0,-0.0,-0.0,-0.0,-0.0,-0.0,-0.0,-0.0,-0.0,-0.0,-0.0,-0.0,-0.0,-0.0,-0.0,-0.0,-0.0,-0.0,-0.0,-0.0,-0.0,-0.0,-0.0,-0.0,-0.0,-0.0,-0.0,-0.0,-0.0,-0.0,-0.0,-0.0,-0.0,-0.0,3.1503,3.1583,3.1957,3.2412,0.0,0.0,3.2558,3.2735,3.321,0.0,0.0,0.0,2.9538,2.7952,2.5567,2.202,2.1706,2.195,2.2221,2.2249,2.2276,2.2344,2.2344,2.2344,2.2344,2.2344,2.2344,2.2344,2.2344,2.2344,2.2344,2.2344,2.2344,2.2344,2.2344,2.2344,2.2344,2.2344,2.2344,2.2344,2.2344,2.2344,2.2344,2.2344,2.2344,2.2344,2.2344,2.2344,2.2344,2.2344,2.2344,2.2344,2.2344,2.2344,2.2344,2.2344,2.2371,2.1263,1.3687,1.2024,1.1501,0.2804,-0.0,-0.0,-0.0,-0.0,-0.0,-0.0,-0.0,-0.0,-0.0,-0.0,-0.0,-0.0,-0.0,-0.0,-0.0,-0.0,-0.0,-0.0,-0.0,-0.0,-0.0,-0.0,-0.0,-0.0,-0.0,-0.0,-0.0,-0.0,-0.0,-0.0,-0.0,-0.0,-0.0,-0.0,-0.0,-0.0,-0.0,-0.0,-0.0,-0.0,-0.0,-0.0,-0.0,-0.0,-0.0,-0.0,-0.0,-0.0,-0.0,-0.0,3.2385,3.2332,3.2679,3.3828,3.2919,0.0,3.1191,3.0042,2.8963,2.8554,2.8625,2.809,2.5834,2.5584,2.4597,2.1381,2.1001,2.1299,2.1923,2.2045,2.2113,2.2276,2.2303,2.2316,2.2344,2.2344,2.2344,2.2344,2.2344,2.2344,2.2344,2.2344,2.2344,2.2344,2.2344,2.2344,2.2344,2.2344,2.2344,2.2344,2.2344,2.2344,2.2344,2.2344,2.2344,2.2344,2.2344,2.2344,2.2344,2.2344,2.2344,2.2344,2.2344,2.2344,2.2344,2.2344,2.2371,2.1276,1.48,0.6976,-0.0,-0.0,-0.0,-0.0,-0.0,-0.0,-0.0,-0.0,-0.0,-0.0,-0.0,-0.0,-0.0,-0.0,-0.0,-0.0,-0.0,-0.0,-0.0,-0.0,-0.0,-0.0,-0.0,-0.0,-0.0,-0.0,-0.0,-0.0,-0.0,-0.0,-0.0,-0.0,-0.0,-0.0,-0.0,-0.0,-0.0,-0.0,-0.0,-0.0,-0.0,-0.0,-0.0,-0.0,-0.0,-0.0,-0.0,-0.0,-0.0,-0.0,-0.0,-0.0,3.3187,3.3694,3.4015,3.3106,3.3828,0.0,2.9284,2.8741,2.8704,0.0,2.4385,2.297,2.3966,2.218,2.0387,2.0285,2.0227,2.0566,2.1285,2.1597,2.1815,2.195,2.2072,2.2194,2.2316,2.2344,2.2344,2.2344,2.2344,2.2344,2.2344,2.2344,2.2344,2.2344,2.2344,2.2344,2.2344,2.2344,2.2344,2.2344,2.2344,2.2344,2.2344,2.2344,2.2344,2.2344,2.2344,2.2344,2.2344,2.2344,2.2344,2.2344,2.2344,2.2344,2.2344,2.2344,2.2371,2.2121,2.0708,1.1167,-0.0,-0.0,-0.0,-0.0,-0.0,-0.0,-0.0,-0.0,-0.0,-0.0,-0.0,-0.0,-0.0,-0.0,-0.0,-0.0,-0.0,-0.0,-0.0,-0.0,-0.0,-0.0,-0.0,-0.0,-0.0,-0.0,-0.0,-0.0,-0.0,-0.0,-0.0,-0.0,-0.0,-0.0,-0.0,-0.0,-0.0,-0.0,-0.0,-0.0,-0.0,-0.0,-0.0,-0.0,-0.0,-0.0,-0.0,-0.0,-0.0,-0.0,-0.0,-0.0,3.3855,3.4095,3.4469,3.4148,3.4202,0.0,0.0,2.6805,2.5965,2.4,2.2122,2.1498,2.4165,2.3294,2.2025,2.0998,2.1108,2.1328,2.0477,2.0838,2.1299,2.153,2.176,2.195,2.2099,2.2181,2.2249,2.2344,2.2344,2.2344,2.2344,2.2344,2.2344,2.2344,2.2344,2.2344,2.2344,2.2344,2.2344,2.2344,2.2344,2.2344,2.2344,2.2344,2.2344,2.2344,2.2344,2.2344,2.2344,2.2344,2.2344,2.2344,2.2344,2.2344,2.2344,2.2344,2.2357,2.2371,2.2411,1.733,1.0603,0.6697,0.5589,0.4754,0.1119,-0.0,-0.0,-0.0,-0.0,-0.0,-0.0,-0.0,-0.0,-0.0,-0.0,-0.0,-0.0,-0.0,-0.0,-0.0,-0.0,-0.0,-0.0,-0.0,-0.0,-0.0,-0.0,-0.0,-0.0,-0.0,-0.0,-0.0,-0.0,-0.0,-0.0,-0.0,-0.0,-0.0,-0.0,-0.0,-0.0,-0.0,-0.0,-0.0,-0.0,-0.0,-0.0,-0.0,-0.0,-0.0,-0.0,-0.0,3.5004,3.5057,3.5538,3.5618,3.4977,3.3072,0.0,0.0,0.0,2.2222,2.1464,0.0,0.0,0.0,0.0,2.2117,2.2811,2.2662,1.9713,2.0436,2.1357,2.1068,2.1353,2.1584,2.1774,2.195,2.2127,2.2289,2.2316,2.2344,2.2344,2.2344,2.2344,2.2344,2.2344,2.2344,2.2344,2.2344,2.2344,2.2344,2.2344,2.2344,2.2344,2.2344,2.2344,2.2344,2.2344,2.2344,2.2344,2.2344,2.2344,2.2344,2.2344,2.2344,2.2344,2.2344,2.2344,2.2344,2.2371,2.2411,2.1276,1.5356,1.3401,1.1731,0.2793,-0.0,-0.0,-0.0,-0.0,-0.0,-0.0,-0.0,-0.0,-0.0,-0.0,-0.0,-0.0,-0.0,-0.0,-0.0,-0.0,-0.0,-0.0,-0.0,-0.0,-0.0,-0.0,-0.0,-0.0,-0.0,-0.0,-0.0,-0.0,-0.0,-0.0,-0.0,-0.0,-0.0,-0.0,-0.0,-0.0,-0.0,-0.0,-0.0,-0.0,-0.0,-0.0,-0.0,-0.0,-0.0,-0.0,-0.0,3.7569,3.8557,3.9092,3.6313,3.7462,3.7391,3.0238,0.0,2.8643,2.468,0.0,2.3886,2.4187,0.0,0.0,2.1898,2.4056,2.4325,1.9458,2.1353,2.2444,2.0944,2.0865,2.1041,2.1462,2.1747,2.1977,2.2127,2.2262,2.2344,2.2344,2.2344,2.2344,2.2344,2.2344,2.2344,2.2344,2.2344,2.2344,2.2344,2.2344,2.2344,2.2344,2.2344,2.2344,2.2344,2.2344,2.2344,2.2344,2.2344,2.2344,2.2344,2.2344,2.2344,2.2344,2.2344,2.2344,2.2344,2.2344,2.2371,2.2121,2.1276,2.1036,1.8508,0.419,-0.0,-0.0,-0.0,-0.0,-0.0,-0.0,-0.0,-0.0,-0.0,-0.0,-0.0,-0.0,-0.0,-0.0,-0.0,-0.0,-0.0,-0.0,-0.0,-0.0,-0.0,-0.0,-0.0,-0.0,-0.0,-0.0,-0.0,-0.0,-0.0,-0.0,-0.0,-0.0,-0.0,-0.0,-0.0,-0.0,-0.0,-0.0,-0.0,-0.0,-0.0,-0.0,-0.0,-0.0,-0.0,-0.0,-0.0,3.8023,3.8611,3.9065,3.7328,3.7462,3.663,3.1474,2.8803,2.7174,2.6959,0.0,0.0,0.0,0.0,0.0,0.0,2.7461,2.7371,2.3878,2.2811,2.1939,2.0093,2.0227,2.0566,2.1001,2.1408,2.1652,2.172,2.1937,2.2113,2.2194,2.2194,2.2249,2.2344,2.2344,2.2344,2.2344,2.2344,2.2344,2.2344,2.2344,2.2344,2.2344,2.2344,2.2344,2.2344,2.2344,2.2344,2.2344,2.2344,2.2344,2.2344,2.2344,2.2344,2.2344,2.2344,2.2344,2.2344,2.2344,2.2357,2.2371,2.2371,2.2411,2.1024,1.4809,1.0046,0.6419,0.643,0.643,0.5592,0.1119,-0.0,-0.0,-0.0,-0.0,-0.0,-0.0,-0.0,-0.0,-0.0,-0.0,-0.0,-0.0,-0.0,-0.0,-0.0,-0.0,-0.0,-0.0,-0.0,-0.0,-0.0,-0.0,-0.0,-0.0,-0.0,-0.0,-0.0,-0.0,-0.0,-0.0,-0.0,-0.0,-0.0,-0.0,-0.0,-0.0,-0.0,-0.0,-0.0,-0.0,-0.0,3.8718,3.9038,3.9332,3.7916,3.7275,3.6141,3.2761,2.9932,2.8643,3.0226,2.9186,0.0,0.0,0.0,3.2657,2.9734,0.0,3.0119,2.6663,2.4804,2.3268,2.1664,2.1358,2.1362,2.1794,2.1506,2.1258,2.1258,2.1611,2.1869,2.1991,2.2072,2.2181,2.2344,2.2344,2.2344,2.2344,2.2344,2.2344,2.2344,2.2344,2.2344,2.2344,2.2344,2.2344,2.2344,2.2344,2.2344,2.2344,2.2344,2.2344,2.2344,2.2344,2.2344,2.2344,2.2344,2.2344,2.2344,2.2344,2.2344,2.2344,2.2344,2.2357,2.2384,2.2411,1.8463,1.4244,1.4252,1.4252,1.286,0.7543,0.4469,0.3073,0.308,0.1401,-0.0,-0.0,-0.0,-0.0,-0.0,-0.0,-0.0,-0.0,-0.0,-0.0,-0.0,-0.0,-0.0,-0.0,-0.0,-0.0,-0.0,-0.0,-0.0,-0.0,-0.0,-0.0,-0.0,-0.0,-0.0,-0.0,-0.0,-0.0,-0.0,-0.0,-0.0,-0.0,-0.0,-0.0,-0.0,-0.0,-0.0,4.0428,4.1016,4.1283,3.7809,3.7595,3.7462,3.4576,3.498,3.5856,3.4714,3.5803,3.6467,3.5004,3.5164,3.4398,3.0605,3.2628,0.0,0.0,2.7253,2.8236,2.6985,2.5156,2.4119,2.4483,2.2286,2.0783,2.0783,2.134,2.1692,2.1692,2.195,2.2181,2.2344,2.2344,2.2344,2.2344,2.2344,2.2344,2.2344,2.2344,2.2344,2.2344,2.2344,2.2344,2.2344,2.2344,2.2344,2.2344,2.2344,2.2344,2.2344,2.2344,2.2344,2.2344,2.2344,2.2344,2.2344,2.2344,2.2344,2.2344,2.2344,2.2344,2.2357,2.2384,2.2121,2.1857,2.191,2.1923,2.1923,2.1644,1.6228,1.0882,1.0882,0.5306,-0.0,-0.0,-0.0,-0.0,-0.0,-0.0,-0.0,-0.0,-0.0,-0.0,-0.0,-0.0,-0.0,-0.0,-0.0,-0.0,-0.0,-0.0,-0.0,-0.0,-0.0,-0.0,-0.0,-0.0,-0.0,-0.0,-0.0,-0.0,-0.0,-0.0,-0.0,-0.0,-0.0,-0.0,-0.0,-0.0,-0.0,4.163,4.2111,4.2138,3.9386,3.8771,3.8183,3.5618,3.4617,3.4228,3.4848,3.5081,3.5181,3.567,3.5939,3.575,3.3974,3.4452,3.4137,0.0,3.1391,3.0957,2.9214,2.7235,2.5442,2.3842,2.3086,2.1948,2.012,2.0349,2.0811,2.1218,2.1516,2.1828,2.2181,2.2289,2.2344,2.2344,2.2344,2.2344,2.2344,2.2344,2.2344,2.2344,2.2344,2.2344,2.2344,2.2344,2.2344,2.2344,2.2344,2.2344,2.2344,2.2344,2.2344,2.2344,2.2344,2.2344,2.2344,2.2344,2.2344,2.2344,2.2344,2.2344,2.2344,2.2357,2.2357,2.2371,2.2384,2.2384,2.2384,2.2425,2.0443,1.8463,1.8486,1.6527,1.2024,0.2236,-0.0,-0.0,-0.0,-0.0,-0.0,-0.0,-0.0,-0.0,-0.0,-0.0,-0.0,-0.0,-0.0,-0.0,-0.0,-0.0,-0.0,-0.0,-0.0,-0.0,-0.0,-0.0,-0.0,-0.0,-0.0,-0.0,-0.0,-0.0,-0.0,-0.0,-0.0,-0.0,-0.0,-0.0,-0.0,4.2191,4.2592,4.2619,4.0588,3.992,3.9225,3.7195,3.6111,3.5813,3.6484,3.642,3.6344,3.7397,3.7114,3.658,3.5885,3.5191,3.4309,0.0,3.2786,3.23,3.1111,2.9169,2.7135,2.4452,2.4393,2.3074,1.9255,2.0459,2.1014,2.0648,2.1109,2.157,2.2018,2.2235,2.2344,2.2344,2.2344,2.2344,2.2344,2.2344,2.2344,2.2344,2.2344,2.2344,2.2344,2.2344,2.2344,2.2344,2.2344,2.2344,2.2344,2.2344,2.2344,2.2344,2.2344,2.2344,2.2344,2.2344,2.2344,2.2344,2.2344,2.2344,2.2316,2.2276,2.2249,2.2289,2.2452,2.2371,2.2316,2.2547,2.2493,2.2384,2.2425,2.2188,1.9621,1.0053,0.5861,0.3073,0.056,-0.0,-0.0,-0.0,-0.0,-0.0,-0.0,-0.0,-0.0,-0.0,-0.0,-0.0,-0.0,-0.0,-0.0,-0.0,-0.0,-0.0,-0.0,-0.0,-0.0,-0.0,-0.0,-0.0,-0.0,-0.0,-0.0,-0.0,-0.0,-0.0,-0.0,-0.0,-0.0]},{"header":{"parameterUnit":"m.s-1","parameterCategory":1,"la1":30.6,"la2":29.2853,"lo1":-89.7004,"lo2":-87.6739,"dy":0.0162,"dx":0.0183,"nx":112,"ny":82,"refTime":"2024-04-11T06:00:00:Z","depth":0,"parameterNumber":3,"parameterNumberName":"V-component_of_WINDS"},"data":[0.0,0.0,0.0,0.0,0.0,0.0,0.0,0.0,0.0,0.0,0.0,0.0,0.0,0.0,0.0,0.0,0.0,0.0,0.0,0.0,0.0,0.0,0.0,0.0,0.0,0.0,0.0,0.0,0.0,0.0,0.0,0.0,0.0,0.0,0.0,0.0,0.0,0.0,0.0,0.0,0.0,0.0,0.0,0.0,0.0,0.0,0.0,0.0,0.0,0.0,0.0,0.0,0.0,0.0,0.0,0.0,0.0,0.0,0.0,0.0,0.0,0.0,0.0,0.0,0.0,0.0,0.0,0.0,0.0,0.0,0.0,0.0,0.0,0.0,0.0,0.0,0.0,0.0,0.0,0.0,0.0,0.0,0.0,0.0,0.0,0.0,0.0,0.0,0.0,0.0,-8.6863,-8.9402,-9.5249,-9.9635,-10.1173,-10.0943,-9.8019,-9.1633,0.0,0.0,0.0,0.0,0.0,0.0,0.0,0.0,0.0,0.0,0.0,0.0,0.0,0.0,0.0,0.0,0.0,0.0,0.0,0.0,0.0,0.0,0.0,0.0,0.0,0.0,0.0,0.0,0.0,0.0,0.0,0.0,0.0,0.0,0.0,0.0,0.0,0.0,0.0,0.0,0.0,0.0,0.0,0.0,0.0,0.0,0.0,0.0,0.0,0.0,0.0,0.0,0.0,0.0,0.0,0.0,0.0,0.0,0.0,0.0,0.0,0.0,0.0,0.0,0.0,0.0,0.0,0.0,0.0,0.0,0.0,0.0,0.0,0.0,0.0,0.0,0.0,0.0,0.0,0.0,0.0,0.0,0.0,0.0,0.0,0.0,0.0,0.0,0.0,0.0,0.0,0.0,0.0,0.0,0.0,0.0,0.0,0.0,0.0,0.0,0.0,0.0,0.0,0.0,-8.7401,-9.3403,-9.7557,-10.0327,-10.1173,-9.9327,-9.6095,-9.1479,0.0,0.0,0.0,0.0,0.0,0.0,0.0,0.0,0.0,0.0,0.0,0.0,0.0,0.0,0.0,0.0,0.0,0.0,0.0,0.0,0.0,0.0,0.0,0.0,0.0,0.0,0.0,0.0,0.0,0.0,0.0,0.0,0.0,0.0,0.0,0.0,0.0,0.0,0.0,0.0,0.0,0.0,0.0,0.0,0.0,0.0,0.0,0.0,0.0,0.0,0.0,0.0,0.0,0.0,0.0,0.0,0.0,0.0,0.0,0.0,0.0,0.0,0.0,0.0,0.0,0.0,0.0,0.0,0.0,0.0,0.0,0.0,0.0,0.0,0.0,0.0,0.0,0.0,0.0,0.0,0.0,0.0,0.0,0.0,0.0,0.0,0.0,0.0,0.0,0.0,0.0,0.0,0.0,0.0,0.0,0.0,0.0,0.0,0.0,0.0,0.0,0.0,0.0,-8.694,-8.9863,-9.5711,-9.8557,-10.0404,-10.1173,-9.9404,-9.6172,-9.1479,-9.0325,0.0,0.0,0.0,0.0,0.0,0.0,0.0,0.0,0.0,0.0,0.0,0.0,0.0,0.0,0.0,0.0,0.0,0.0,0.0,0.0,0.0,0.0,0.0,0.0,0.0,0.0,0.0,0.0,0.0,0.0,0.0,0.0,0.0,0.0,0.0,0.0,0.0,0.0,0.0,0.0,0.0,0.0,0.0,0.0,0.0,0.0,0.0,0.0,0.0,0.0,0.0,0.0,0.0,0.0,0.0,0.0,0.0,0.0,0.0,0.0,0.0,0.0,0.0,0.0,0.0,0.0,0.0,0.0,0.0,0.0,0.0,0.0,0.0,0.0,0.0,0.0,0.0,0.0,0.0,0.0,0.0,0.0,0.0,0.0,0.0,0.0,0.0,0.0,0.0,0.0,0.0,0.0,0.0,0.0,0.0,0.0,0.0,0.0,0.0,0.0,0.0,0.0,-9.0248,-9.2402,-9.725,-9.9327,-10.0635,-10.1173,-9.9173,-9.6019,-9.1479,-8.9094,0.0,0.0,0.0,0.0,0.0,0.0,0.0,0.0,0.0,0.0,0.0,0.0,0.0,0.0,0.0,0.0,0.0,0.0,0.0,0.0,0.0,0.0,0.0,0.0,0.0,0.0,0.0,0.0,0.0,0.0,0.0,0.0,0.0,0.0,0.0,0.0,0.0,0.0,0.0,0.0,0.0,0.0,0.0,0.0,0.0,0.0,0.0,0.0,0.0,0.0,0.0,0.0,0.0,0.0,0.0,0.0,0.0,0.0,0.0,0.0,0.0,0.0,0.0,0.0,0.0,0.0,0.0,0.0,0.0,0.0,0.0,0.0,0.0,0.0,0.0,0.0,0.0,0.0,0.0,0.0,0.0,0.0,0.0,0.0,0.0,0.0,0.0,0.0,0.0,0.0,0.0,0.0,0.0,0.0,0.0,0.0,0.0,0.0,0.0,0.0,0.0,0.0,-9.0975,-9.3941,-9.825,-10.0173,-10.1173,-10.1327,-9.7557,-9.4095,-9.1402,-8.7401,0.0,0.0,0.0,0.0,0.0,0.0,0.0,0.0,0.0,0.0,0.0,0.0,0.0,0.0,0.0,0.0,0.0,0.0,0.0,0.0,0.0,0.0,0.0,0.0,0.0,0.0,0.0,0.0,0.0,0.0,0.0,0.0,0.0,0.0,0.0,0.0,0.0,0.0,0.0,0.0,0.0,0.0,0.0,0.0,0.0,0.0,0.0,0.0,0.0,0.0,0.0,0.0,0.0,0.0,0.0,0.0,0.0,0.0,0.0,0.0,0.0,0.0,0.0,0.0,0.0,0.0,0.0,0.0,0.0,0.0,0.0,0.0,0.0,0.0,0.0,0.0,0.0,0.0,0.0,0.0,0.0,0.0,0.0,0.0,0.0,0.0,0.0,0.0,0.0,0.0,0.0,0.0,0.0,0.0,0.0,0.0,0.0,0.0,0.0,0.0,0.0,0.0,-9.171,-9.4864,-9.8404,-10.0327,-10.1096,-10.075,-9.8711,-9.5403,-9.0898,0.0,0.0,0.0,0.0,0.0,0.0,0.0,0.0,0.0,0.0,0.0,0.0,0.0,0.0,0.0,0.0,0.0,0.0,0.0,0.0,0.0,0.0,0.0,0.0,0.0,0.0,0.0,0.0,0.0,0.0,0.0,0.0,0.0,0.0,0.0,0.0,0.0,0.0,0.0,0.0,0.0,0.0,0.0,0.0,0.0,0.0,0.0,0.0,0.0,0.0,0.0,0.0,0.0,0.0,0.0,0.0,0.0,0.0,0.0,0.0,0.0,0.0,0.0,0.0,0.0,0.0,0.0,0.0,0.0,0.0,0.0,0.0,0.0,0.0,0.0,0.0,0.0,0.0,0.0,0.0,0.0,0.0,0.0,0.0,0.0,0.0,0.0,0.0,0.0,0.0,0.0,0.0,0.0,0.0,0.0,0.0,0.0,0.0,0.0,0.0,0.0,0.0,-8.8914,-9.2343,-9.5747,-9.898,-10.0558,-10.1404,-10.1404,-9.9197,-9.5836,-9.1095,0.0,0.0,0.0,0.0,0.0,0.0,0.0,0.0,0.0,0.0,0.0,0.0,0.0,0.0,0.0,0.0,0.0,0.0,0.0,0.0,0.0,0.0,0.0,0.0,0.0,0.0,0.0,0.0,0.0,0.0,0.0,0.0,0.0,0.0,0.0,0.0,0.0,0.0,0.0,0.0,0.0,0.0,0.0,0.0,0.0,0.0,0.0,0.0,0.0,0.0,0.0,0.0,0.0,0.0,0.0,0.0,0.0,0.0,0.0,0.0,0.0,0.0,0.0,0.0,0.0,0.0,0.0,0.0,0.0,0.0,0.0,0.0,0.0,0.0,0.0,0.0,0.0,0.0,0.0,0.0,0.0,0.0,0.0,0.0,0.0,0.0,0.0,0.0,0.0,0.0,0.0,0.0,0.0,0.0,0.0,0.0,0.0,0.0,0.0,0.0,0.0,0.0,-8.9051,-9.2886,-9.6671,-10.0095,-10.1212,-10.2213,-10.329,-9.8762,-9.4729,0.0,0.0,0.0,0.0,0.0,0.0,0.0,0.0,0.0,0.0,0.0,0.0,0.0,0.0,0.0,0.0,0.0,0.0,0.0,0.0,0.0,0.0,0.0,0.0,0.0,0.0,0.0,0.0,0.0,0.0,0.0,0.0,0.0,0.0,0.0,0.0,0.0,0.0,0.0,0.0,0.0,0.0,0.0,0.0,0.0,0.0,0.0,0.0,0.0,0.0,0.0,0.0,0.0,0.0,0.0,0.0,0.0,0.0,0.0,0.0,0.0,0.0,0.0,0.0,0.0,0.0,0.0,0.0,0.0,0.0,0.0,0.0,0.0,0.0,0.0,0.0,0.0,0.0,0.0,0.0,0.0,0.0,0.0,0.0,0.0,0.0,0.0,0.0,0.0,0.0,0.0,0.0,0.0,0.0,0.0,0.0,0.0,0.0,0.0,0.0,0.0,0.0,0.0,-9.1062,-9.4986,-9.8632,-10.125,-10.1796,-10.2194,-10.2713,-10.0107,-9.6715,-9.2429,0.0,0.0,0.0,0.0,0.0,0.0,0.0,0.0,0.0,0.0,0.0,0.0,0.0,0.0,0.0,0.0,0.0,0.0,0.0,0.0,0.0,0.0,0.0,0.0,0.0,0.0,0.0,0.0,0.0,0.0,0.0,0.0,0.0,0.0,0.0,0.0,0.0,0.0,0.0,0.0,0.0,0.0,0.0,0.0,0.0,0.0,0.0,0.0,0.0,0.0,0.0,0.0,0.0,0.0,0.0,0.0,0.0,0.0,0.0,0.0,0.0,0.0,0.0,0.0,0.0,0.0,0.0,0.0,0.0,0.0,0.0,0.0,0.0,0.0,0.0,0.0,0.0,0.0,0.0,0.0,0.0,0.0,0.0,0.0,0.0,0.0,0.0,0.0,0.0,0.0,0.0,0.0,0.0,0.0,0.0,0.0,0.0,0.0,0.0,0.0,0.0,0.0,-9.1875,-9.6226,-10.0056,-10.2478,-10.305,-10.3367,-10.3725,-10.2,-9.8518,-9.2812,0.0,0.0,0.0,0.0,0.0,0.0,0.0,0.0,0.0,0.0,0.0,0.0,0.0,0.0,0.0,0.0,0.0,0.0,0.0,0.0,0.0,0.0,0.0,0.0,0.0,0.0,0.0,0.0,0.0,0.0,0.0,0.0,0.0,0.0,0.0,0.0,0.0,0.0,0.0,0.0,0.0,0.0,0.0,0.0,0.0,0.0,0.0,0.0,0.0,0.0,0.0,0.0,0.0,0.0,0.0,0.0,0.0,0.0,0.0,0.0,0.0,0.0,0.0,0.0,0.0,0.0,0.0,0.0,0.0,0.0,0.0,0.0,0.0,0.0,0.0,0.0,0.0,0.0,0.0,0.0,0.0,0.0,0.0,0.0,0.0,0.0,0.0,0.0,0.0,0.0,0.0,0.0,0.0,0.0,0.0,0.0,0.0,0.0,0.0,0.0,0.0,0.0,-9.2422,-9.7031,-10.1094,-10.3855,-10.4816,-10.5437,-10.5699,-10.4062,-10.0312,-9.3594,0.0,0.0,0.0,0.0,0.0,0.0,0.0,0.0,0.0,0.0,0.0,0.0,0.0,0.0,0.0,0.0,0.0,0.0,0.0,0.0,0.0,0.0,0.0,0.0,0.0,0.0,0.0,0.0,0.0,0.0,0.0,0.0,0.0,0.0,0.0,0.0,0.0,0.0,0.0,0.0,0.0,0.0,0.0,0.0,0.0,0.0,0.0,0.0,0.0,0.0,0.0,0.0,0.0,0.0,0.0,0.0,0.0,0.0,0.0,0.0,-9.5301,-9.5593,0.0,0.0,0.0,0.0,0.0,0.0,0.0,0.0,0.0,0.0,0.0,0.0,0.0,0.0,0.0,0.0,0.0,0.0,0.0,0.0,0.0,0.0,0.0,0.0,0.0,0.0,0.0,0.0,0.0,0.0,0.0,0.0,0.0,0.0,0.0,0.0,0.0,0.0,0.0,0.0,-9.6015,-9.9297,-10.273,-10.6669,-10.6732,-10.6682,-10.7421,-10.5937,-10.289,-9.7969,-9.4453,0.0,0.0,0.0,0.0,0.0,0.0,0.0,0.0,0.0,0.0,0.0,0.0,0.0,0.0,0.0,0.0,0.0,0.0,0.0,0.0,0.0,0.0,0.0,0.0,0.0,0.0,0.0,0.0,0.0,0.0,0.0,0.0,0.0,0.0,0.0,0.0,0.0,0.0,0.0,0.0,0.0,0.0,0.0,0.0,0.0,0.0,0.0,0.0,0.0,0.0,0.0,0.0,0.0,0.0,0.0,0.0,0.0,0.0,0.0,-9.8913,-9.7619,0.0,0.0,0.0,0.0,0.0,0.0,0.0,0.0,0.0,0.0,0.0,0.0,0.0,0.0,0.0,0.0,0.0,0.0,0.0,0.0,0.0,0.0,0.0,0.0,0.0,0.0,0.0,0.0,0.0,0.0,0.0,0.0,0.0,0.0,0.0,0.0,0.0,0.0,0.0,0.0,-9.7812,-10.1328,-10.4765,-10.8281,-10.8593,-10.8593,-10.8593,-10.7812,-10.5312,-10.0469,-9.7734,0.0,0.0,0.0,0.0,0.0,0.0,0.0,0.0,0.0,0.0,0.0,0.0,0.0,0.0,0.0,0.0,0.0,0.0,0.0,0.0,0.0,0.0,0.0,0.0,0.0,0.0,0.0,0.0,0.0,0.0,0.0,0.0,0.0,0.0,0.0,0.0,0.0,0.0,0.0,0.0,0.0,0.0,0.0,0.0,0.0,0.0,0.0,0.0,0.0,0.0,0.0,0.0,0.0,-10.3291,-10.4674,-10.6593,-10.6843,-10.7324,-10.7911,-10.5106,-10.1962,-9.8969,-10.0961,0.0,0.0,0.0,0.0,0.0,0.0,0.0,0.0,0.0,0.0,0.0,0.0,0.0,0.0,0.0,0.0,0.0,0.0,0.0,0.0,0.0,0.0,-10.0937,-10.4062,-10.5,-10.3906,-9.9687,0.0,0.0,0.0,0.0,0.0,0.0,0.0,0.0,0.0,0.0,0.0,-9.9219,-10.3515,-10.7187,-10.9922,-11.0937,-11.1015,-11.0312,-11.0078,-10.7969,-10.3203,-10.1562,-9.8828,0.0,0.0,0.0,0.0,0.0,0.0,0.0,0.0,0.0,0.0,0.0,0.0,0.0,0.0,0.0,0.0,0.0,0.0,0.0,0.0,0.0,0.0,0.0,0.0,0.0,0.0,0.0,0.0,0.0,0.0,0.0,0.0,-8.8325,-9.1633,0.0,0.0,0.0,0.0,0.0,0.0,0.0,0.0,0.0,0.0,0.0,0.0,0.0,-10.2404,-10.4097,-10.5636,-10.6482,-10.6867,-10.8913,-11.0123,-11.0359,-11.1632,-11.3038,-11.4541,-11.4815,0.0,-10.4281,-10.3202,0.0,0.0,0.0,0.0,0.0,0.0,0.0,0.0,0.0,0.0,0.0,0.0,0.0,0.0,0.0,0.0,0.0,0.0,0.0,0.0,0.0,0.0,-10.5078,-10.7031,-10.8125,-10.8437,-10.7812,-10.5469,-10.2812,-10.0,-9.7969,-9.6015,0.0,0.0,0.0,0.0,0.0,0.0,-10.1875,-10.6093,-11.0078,-11.3515,-11.3906,-11.3906,-11.3828,-11.3125,-11.1406,-10.8515,-10.4687,-10.2265,-10.1562,-9.6172,0.0,0.0,0.0,0.0,0.0,0.0,0.0,0.0,0.0,0.0,0.0,0.0,0.0,0.0,0.0,0.0,0.0,0.0,0.0,0.0,0.0,0.0,0.0,0.0,0.0,0.0,0.0,0.0,0.0,-9.0248,-9.3095,-9.3172,-9.4711,-9.6019,0.0,0.0,0.0,0.0,0.0,0.0,0.0,0.0,0.0,-10.502,-10.6713,-10.8175,-10.9406,-11.0637,-11.1714,-11.2714,-11.4536,-11.5885,-11.6924,-11.7778,-11.8878,-12.0104,-12.0528,-11.8515,-11.4609,-11.0937,-10.8828,-10.7734,0.0,0.0,0.0,0.0,-10.3203,-10.3828,-10.3515,-10.3281,-10.3515,-10.4609,0.0,0.0,0.0,0.0,0.0,0.0,0.0,-10.3828,-10.6093,-10.8203,-11.039,-11.25,-11.4531,-11.5703,-11.5234,-11.3125,-10.9922,-10.4922,-10.3437,-10.1797,-9.8125,-9.6015,0.0,0.0,0.0,-10.2031,-10.6015,-10.9375,-11.2422,-11.4922,-11.5234,-11.5234,-11.5234,-11.4765,-11.3672,-11.1562,-10.8828,-10.6797,-10.5781,-10.1875,-9.9375,0.0,0.0,0.0,0.0,0.0,0.0,0.0,0.0,0.0,0.0,0.0,0.0,0.0,0.0,0.0,0.0,0.0,0.0,0.0,0.0,0.0,0.0,0.0,0.0,0.0,0.0,0.0,0.0,-9.4176,-9.6711,-9.548,-9.7942,-9.9635,0.0,0.0,0.0,0.0,0.0,0.0,-10.602,-10.8175,-10.9867,-11.1098,-11.2868,-11.4099,-11.5022,-11.6099,-11.7176,-11.8254,-11.996,-12.1541,-12.2816,-12.3536,-12.4218,-12.4765,-12.4765,-12.4375,-12.3437,-11.7968,-11.4922,-11.3203,-11.0,-10.8672,-10.8593,-10.75,-10.7734,-10.8281,-10.789,-10.7734,-10.7734,-10.75,-10.6875,-10.6015,-10.4922,0.0,0.0,0.0,0.0,-10.7265,-11.1015,-11.2968,-11.5,-11.8203,-12.0468,-12.1718,-12.1093,-11.9687,-11.6718,-11.0,-10.8515,-10.7109,-10.3281,-10.1015,0.0,-10.0781,-10.3437,-10.6406,-10.9609,-11.2578,-11.5078,-11.6484,-11.6484,-11.6484,-11.6718,-11.6328,-11.5468,-11.4297,-11.2265,-11.0703,-10.9375,-10.6719,-10.4062,-10.1719,0.0,0.0,0.0,0.0,0.0,0.0,0.0,0.0,0.0,0.0,0.0,0.0,0.0,0.0,0.0,0.0,0.0,0.0,0.0,0.0,0.0,0.0,0.0,0.0,0.0,0.0,0.0,0.0,0.0,-9.9481,-10.3405,0.0,0.0,0.0,0.0,-10.7098,-10.7328,-10.879,-11.2099,-11.3176,-11.4791,-11.733,-11.9023,-12.0331,-12.11,-12.3148,-12.3687,-12.2994,-12.5397,-12.6522,-12.6735,-12.7807,-12.8281,-12.8281,-12.8281,-12.8281,-12.7812,-12.1797,-11.8828,-11.7734,-11.5078,-11.4062,-11.3906,-11.2187,-11.2109,-11.2578,-11.1015,-11.039,-11.0703,-11.2265,-11.2187,-11.1172,-10.9531,-10.8437,0.0,0.0,-10.7812,-11.0078,-11.4297,-11.6093,-11.8125,-12.3203,-12.4531,-12.4609,-12.4531,-12.3828,-12.1406,-11.5312,-11.1484,-10.9218,-10.8906,0.0,-10.539,-10.6172,-10.9218,-11.1484,-11.1718,-11.539,-11.8437,-11.9297,-11.8672,-11.8515,-11.9297,-11.789,-11.6875,-11.6797,-11.4531,-11.2968,-11.289,-10.9609,-10.7031,-10.5312,-10.1015,0.0,0.0,0.0,0.0,0.0,0.0,0.0,0.0,0.0,0.0,0.0,0.0,0.0,0.0,0.0,0.0,0.0,0.0,0.0,0.0,0.0,0.0,0.0,0.0,0.0,0.0,0.0,0.0,-10.6405,-11.0329,0.0,-11.1329,-11.1021,-11.1483,-11.3176,-11.4407,-11.6484,-11.9869,-12.2408,-12.4716,-12.6717,-12.7871,-12.8717,-12.9305,-12.9459,-12.9182,-12.8588,-12.9688,-12.9864,-12.942,-12.9978,-13.0312,-13.0234,-12.9687,-12.9765,-13.0,-12.6718,-12.4218,-12.2265,-12.0234,-11.9062,-11.8515,-11.789,-11.8203,-11.8828,-11.7578,-11.7187,-11.7109,-11.6015,-11.5078,-11.4218,-11.2968,-11.2812,-11.289,-11.2578,-11.3437,-11.5078,-11.8906,-12.0468,-12.2109,-12.5625,-12.6797,-12.7109,-12.6484,-12.6172,-12.5,-12.1797,-11.789,-11.4687,-11.3672,-11.1797,-11.0703,-11.1562,-11.3281,-11.5,-11.6562,-11.8672,-12.0078,-12.039,-11.9687,-11.9297,-11.9609,-11.7968,-11.6797,-11.6328,-11.4297,-11.289,-11.2422,-10.9609,-10.7187,-10.5469,-10.1797,-9.8828,0.0,0.0,0.0,0.0,0.0,0.0,0.0,0.0,0.0,0.0,0.0,0.0,0.0,0.0,0.0,0.0,0.0,0.0,0.0,0.0,0.0,0.0,0.0,0.0,0.0,0.0,-11.0406,-11.2099,-11.6561,-11.91,-11.8023,-11.81,-11.9023,-12.0716,-12.21,-12.4409,-12.7794,-13.0102,-13.2025,-13.341,-13.4257,-13.4616,-13.4385,-13.4245,-13.3612,-13.2534,-13.2923,-13.2612,-13.1712,-13.1716,-13.1562,-13.1562,-13.0703,-13.0703,-13.1093,-13.0,-12.8281,-12.6328,-12.4609,-12.3593,-12.2968,-12.2734,-12.2968,-12.3437,-12.25,-12.1797,-12.1093,-11.9687,-11.8437,-11.7422,-11.6797,-11.7031,-11.7422,-11.7187,-11.789,-11.9375,-12.2265,-12.3906,-12.539,-12.7578,-12.8828,-12.9218,-12.7968,-12.7734,-12.7187,-12.5468,-12.2422,-11.9609,-11.8203,-11.6797,-11.6172,-11.7422,-11.7812,-11.8672,-12.0703,-12.1172,-12.1328,-12.1328,-12.0312,-11.9687,-12.0,-11.8203,-11.6484,-11.539,-11.3437,-11.1797,-11.0625,-10.8593,-10.6797,-10.5078,-10.1328,-9.8594,-9.6875,0.0,0.0,0.0,0.0,0.0,0.0,0.0,0.0,0.0,0.0,0.0,0.0,0.0,0.0,0.0,0.0,0.0,0.0,0.0,0.0,0.0,0.0,0.0,-10.2991,-10.9482,-11.4868,-11.6715,-12.21,-12.5101,-12.3485,-12.5563,-12.7717,-12.941,-13.0333,-13.2179,-13.5488,-13.5719,-13.6103,-13.7026,-13.7796,-13.7618,-13.6361,-13.7392,-13.6838,-13.4727,-13.4986,-13.4687,-13.3828,-13.2968,-13.2578,-13.2578,-13.1718,-13.1328,-13.1328,-13.1328,-13.0703,-12.9765,-12.8125,-12.7422,-12.7187,-12.6406,-12.6093,-12.5937,-12.5078,-12.3828,-12.25,-12.3281,-12.2422,-12.1015,-12.1015,-12.1015,-12.0781,-11.9922,-12.0937,-12.2578,-12.4375,-12.6093,-12.7812,-12.9531,-13.0625,-13.0781,-12.9062,-12.8672,-12.8203,-12.6406,-12.4687,-12.3281,-12.2422,-12.1562,-12.1562,-12.3203,-12.2812,0.0,-12.3437,-12.2812,-12.2265,-12.2265,-12.0703,-12.0,-12.0937,-11.8515,-11.6172,-11.4531,-11.1875,-10.9687,-10.7969,-10.7031,-10.5781,-10.4219,-9.9922,-9.6953,-9.539,0.0,0.0,0.0,0.0,0.0,0.0,0.0,0.0,0.0,0.0,0.0,0.0,0.0,0.0,0.0,0.0,0.0,0.0,0.0,0.0,0.0,-10.5907,-10.9649,-10.988,-11.5471,-12.11,-12.5178,-12.9333,-13.2102,-13.2872,-13.3564,-13.4487,-13.5565,-13.6411,-13.7796,-14.0027,-14.0719,-14.1412,-14.2335,-14.1412,-14.0873,-14.1027,-14.0074,-13.9014,-13.7681,-13.7796,-13.7031,-13.5625,-13.539,-13.5312,-13.5234,-13.4297,-13.3984,-13.3906,-13.2578,-13.2031,-13.1562,-12.9922,-12.8828,-12.8203,-12.7968,-12.75,-12.6875,-12.6718,-12.5937,-12.5,-12.5234,-12.4609,-12.3593,-12.2968,-12.2265,-12.1797,-12.1562,-12.2265,-12.3515,-12.5234,-12.7422,-12.9531,-13.0625,-13.2031,-13.2812,-13.1718,-13.0937,-13.0,-12.8203,-12.7031,-12.5781,-12.4297,-12.3437,-12.289,-12.3437,-12.3281,-12.3203,-12.3515,-12.3281,-12.3437,-12.3984,-12.25,-12.1562,-12.1797,-11.7812,-11.4531,-11.2734,-10.8437,-10.6015,-10.6172,-10.4062,-10.3125,-10.3281,-10.0234,-9.875,0.0,0.0,0.0,0.0,0.0,0.0,0.0,0.0,0.0,0.0,0.0,0.0,0.0,0.0,0.0,0.0,0.0,0.0,0.0,0.0,0.0,0.0,-11.3088,-11.7792,-12.0331,-12.3024,-12.6717,-13.1795,-13.4795,-13.7103,-13.8796,-13.9181,-13.9565,-14.0181,-14.1027,-14.1874,-14.2874,-14.3412,-14.3874,-14.4412,-14.3797,-14.372,-14.3951,-14.2986,-14.2019,-14.1015,-14.0703,-13.9765,-13.8515,-13.8125,-13.789,-13.789,-13.6562,-13.6093,-13.6015,-13.4297,-13.3281,-13.2812,0.0,0.0,0.0,0.0,-12.8281,-12.7812,-12.7812,-12.75,-12.7109,-12.7109,-12.6484,-12.5781,-12.5234,-12.4531,-12.3828,-12.3828,-12.4375,-12.5312,-12.6328,-12.8515,-13.0625,-13.1093,-13.25,-13.3593,-13.2734,-13.2109,-13.1328,-13.0,-12.8672,0.0,-12.6562,-12.5078,-12.4218,-12.4531,-12.3906,-12.3828,-12.4531,-12.3593,-12.3125,-12.3672,-12.2187,-12.1093,-12.1093,-11.7031,0.0,0.0,0.0,-10.4297,-10.3437,-10.1484,0.0,0.0,0.0,-10.0469,-10.1406,-10.1172,0.0,0.0,-9.7109,-9.6953,0.0,0.0,0.0,0.0,0.0,0.0,0.0,0.0,0.0,0.0,0.0,0.0,0.0,0.0,0.0,0.0,-12.081,-12.6101,-13.1872,-13.1487,-13.2333,-13.6796,-13.8796,-14.0412,-14.2027,-14.2797,-14.3258,-14.3412,-14.4105,-14.4643,-14.472,-14.472,0.0,0.0,0.0,-14.5699,-14.56,-14.5546,-14.5001,-14.3975,-14.328,-14.25,-14.1562,-14.0781,-14.039,-14.0312,-13.8672,-13.789,-13.7578,-13.6093,-13.4765,-13.3515,-13.1015,-13.0,-12.9765,-12.8984,-12.8672,-12.8593,-12.8593,0.0,0.0,-12.8593,-12.7968,-12.7265,-12.7265,-12.6718,-12.6015,-12.6093,-12.6718,-12.7265,-12.7422,-12.9297,-13.1172,-13.1172,-13.25,-13.3593,-13.2812,-13.2578,-13.2265,-13.1484,-13.0,-12.8906,-12.8828,-12.6562,-12.5234,-12.5937,-12.4687,-12.4218,-12.5703,-12.3828,-12.2265,-12.2265,-12.0937,0.0,-11.9765,-11.6562,-11.3515,-11.0937,-10.7422,-10.4062,-10.0937,-10.0078,-10.0078,-10.0937,-10.1562,-10.2422,-10.3203,-10.4062,-10.4531,-10.4609,-10.2109,-10.1719,0.0,0.0,0.0,0.0,0.0,0.0,0.0,0.0,0.0,0.0,0.0,0.0,0.0,0.0,0.0,-12.2753,-12.7744,-13.2872,-13.8104,-13.9181,-13.9796,-14.0796,-14.1797,-14.2797,-14.3797,-14.4105,-14.4412,-14.5105,-14.5413,-14.572,-14.6413,-14.6413,-14.6413,-14.6413,-14.6028,-14.5797,-14.6105,-14.5421,-14.469,-14.4234,-14.4333,0.0,-14.2109,-14.2187,-14.1875,-14.1172,-14.0937,-13.9922,-13.8593,-13.8281,-13.6406,-13.3593,-13.1718,-13.0468,-12.9922,-12.9687,-12.9218,-12.8593,-12.8593,-12.8593,-12.8593,-12.8593,-12.7968,-12.7265,-12.7265,-12.6718,0.0,-12.6875,-12.7187,-12.75,-12.8203,-12.9765,-13.1172,-13.1172,-13.25,-13.3828,-13.3593,-13.2968,-13.25,-13.2265,-13.1406,-13.0468,-12.9765,-12.75,-12.5781,-12.6015,-12.5234,-12.4687,-12.5,-12.3984,-12.3203,-12.3203,-12.2265,-12.1406,-12.0703,-11.75,-11.4375,-11.1797,-10.7812,-10.4922,-10.3515,-10.3984,-10.4297,-10.4531,-10.4687,-10.4765,-10.5,-10.5781,-10.6562,-10.7187,-10.539,-10.4297,0.0,0.0,0.0,0.0,0.0,0.0,0.0,0.0,0.0,0.0,0.0,-11.2774,-11.6621,0.0,-12.603,-13.1513,-13.518,-13.8873,-14.3181,-14.4489,-14.472,-14.3874,-14.4182,-14.472,-14.5567,-14.572,-14.5797,-14.6336,-14.6336,-14.649,-14.6875,-14.6875,-14.7105,-14.749,-14.6721,-14.6721,-14.749,-14.6197,-14.5478,-14.5499,-14.5326,-14.4826,-14.4062,-14.4297,-14.4297,-14.3984,-14.3125,-14.2265,-14.1328,-13.9609,-13.7422,-13.5,-13.4062,-13.2422,-13.0625,-13.0625,-13.0312,-12.9922,-12.9922,-12.9609,-12.9297,-12.9297,-12.8672,-12.7968,-12.7968,-12.7578,-12.7422,-12.7812,-12.7968,-12.8125,-12.8515,-12.9609,-13.0703,-13.1093,-13.2187,-13.3281,-13.3672,-13.3515,-13.3203,-13.3203,-13.2422,-13.1718,-13.1328,-12.9375,-12.7734,-12.6797,-12.6328,-12.5703,-12.4922,-12.3984,-12.3203,-12.2265,-12.1406,-12.0468,-11.9687,-11.6875,-11.4218,-11.2031,-10.9062,-10.7031,-10.6093,-10.6093,-10.6093,-10.6093,-10.6484,-10.7187,-10.8125,-10.8906,-10.9765,-11.0625,-10.9687,-10.8906,0.0,0.0,0.0,0.0,0.0,0.0,0.0,0.0,-11.0525,-11.3656,-11.7126,-12.1295,-12.6822,-13.0179,-13.4103,-14.0104,-14.2335,-14.4412,-14.749,-14.849,-14.8413,-14.6875,-14.649,-14.6721,-14.7336,-14.7413,-14.7413,-14.7413,-14.7413,-14.7413,-14.7413,-14.7413,-14.7721,-14.8413,-14.7798,-14.7875,-14.8932,-14.749,-14.6875,-14.7105,-14.6413,-14.6088,-14.6004,-14.6215,-14.6305,-14.6305,-14.4608,-14.3906,-14.3672,-14.0468,-13.8203,-13.6797,-13.6562,-13.4687,-13.1875,-13.1797,-13.1562,-13.1406,-13.1328,-13.0625,-12.9922,-12.9922,-12.9297,-12.8593,-12.8593,-12.8593,-12.8593,-12.8593,-12.8593,-12.8593,-12.8593,-12.9218,-13.0078,-13.1015,-13.1875,-13.2734,-13.3593,-13.3828,-13.3828,-13.3828,-13.3125,-13.25,-13.25,-13.1172,-12.9609,-12.7968,-12.7422,-12.6562,-12.5234,-12.4062,-12.2812,-12.1093,-12.0312,-11.9375,-11.8437,-11.6328,-11.4375,-11.2968,-11.1328,-11.0,-10.9297,-10.8593,-10.8125,-10.7969,-10.8984,-11.0078,-11.1406,-11.2187,-11.289,-11.3515,-11.3515,-11.2968,-10.8774,-10.6396,-10.5745,-10.9997,-10.9116,-10.9909,0.0,0.0,-12.158,-12.7023,-13.1466,-13.4897,-13.6411,-14.0027,-14.372,-14.6721,-14.8029,-14.9337,-15.1183,-15.1491,-15.1183,-15.0337,-14.949,-14.9106,-14.9183,-14.9183,-14.9183,-14.9183,-14.9183,-14.9183,-14.9183,-14.9183,-14.9337,-14.9413,-14.9337,-14.9337,-14.9413,-14.9183,-14.8798,-14.8029,-14.8316,-14.758,-14.6197,-14.6569,-14.6266,-14.5512,-14.4177,-14.3672,-14.3828,-14.1093,-13.9531,-13.8515,-13.7812,-13.6328,-13.4531,-13.3828,-13.2968,-13.2187,-13.1484,-13.0625,-12.9922,-12.9922,-12.9297,-12.8593,-12.8593,-12.8593,-12.8593,-12.8593,-12.8593,-12.8593,-12.8593,-12.9218,-13.0078,-13.1015,-13.1875,-13.2734,-13.3593,-13.3828,-13.3828,-13.3828,-13.3125,-13.25,-13.25,-13.1718,-13.0703,-12.9765,-12.7578,-12.6093,-12.5937,-12.4531,-12.2812,-12.1093,-12.0781,-12.0078,-11.8437,-11.7265,-11.6562,-11.6406,-11.4765,-11.3906,-11.3828,-11.3672,-11.3281,-11.25,-11.3984,-11.4609,-11.4062,-11.4922,-11.5,-11.4375,-11.4375,-11.3906,-11.1594,-11.1615,-11.2797,0.0,-11.6391,-11.967,-12.61,-12.8356,-13.0328,-13.4723,-13.8633,-14.1797,-14.3566,-14.6567,-14.949,0.0,-15.2568,-15.3568,-15.4799,-15.4491,-15.3722,-15.2414,-15.1491,-15.0798,-15.0183,-15.1106,-15.1491,-15.1029,-15.1414,-15.1491,-15.1029,-15.1029,-15.1183,-15.1722,-15.0721,-15.0414,-15.0875,-15.0029,-14.9337,-14.9029,-14.8567,-14.8182,-14.77,-14.7425,-14.6683,-14.5765,-14.5187,-14.4375,-14.3203,-14.2187,-14.0937,-13.9609,-13.9297,-13.8437,-13.7031,-13.5234,-13.4297,-13.3828,-13.2968,-13.2109,-13.1328,-13.0781,-12.9687,-12.8672,-12.9218,-12.9375,-12.9531,-13.0,-13.0078,-13.0,-12.9531,-12.9609,-13.0078,-13.1015,-13.1484,-13.2109,-13.3515,-13.3828,-13.3828,-13.3828,-13.3125,-13.2734,-13.3203,-13.1718,-13.0468,-13.0625,-12.8906,-12.7109,-12.6093,-12.5,-12.3437,-12.1093,-12.0,-11.9062,-11.8437,-11.7968,-11.7812,-11.7812,-11.7109,-11.6484,-11.6015,-11.6015,-11.5312,-11.3984,-11.5078,-11.5078,-11.3672,-11.4609,-11.4609,-11.3672,-11.3672,-11.3515,-11.3572,-11.5728,0.0,-11.9402,-12.3899,-12.8978,-13.2307,-13.5334,-13.8411,-14.1797,-14.4643,-14.7182,-14.949,-15.1568,-15.3568,-15.5261,-15.6107,-15.6723,-15.7338,-15.6492,-15.5107,-15.3183,-15.2029,-15.1106,-15.0414,-15.1875,-15.2876,-15.2722,-15.3491,-15.3799,-15.3414,-15.3414,-15.3568,-15.403,-15.2799,-15.2337,-15.2722,-15.1337,-15.0414,-15.0183,-14.9337,-14.8798,-14.8624,-14.7644,-14.7028,-14.637,-14.6127,-14.5061,-14.3672,-14.3281,-14.2265,-14.0937,-14.0703,-14.0,-13.8984,-13.6562,-13.5625,-13.5234,-13.4218,-13.3125,-13.2031,-13.1406,-13.0234,-12.9062,-13.0,-13.0312,-13.039,-13.1015,-13.1172,-13.1015,-13.0078,-12.9922,-13.0078,-13.1015,-13.1172,-13.1718,-13.3437,-13.3828,-13.3828,-13.3828,-13.3125,-13.2734,-13.3281,-13.1484,-13.0078,-13.0703,-12.9218,-12.7422,-12.6172,-12.4687,-12.2968,-12.1093,-11.9297,-11.8281,-11.8281,-11.8281,-11.8281,-11.8281,-11.8281,-11.7968,-11.7422,-11.7422,-11.6562,-11.4922,-11.5703,-11.5312,-11.3593,-11.4375,-11.4375,-11.3593,-11.3593,-11.3437,-11.5031,-11.7529,-12.1238,-12.6323,-13.139,-13.6488,-14.1489,-14.4105,-14.6336,-14.9721,-15.1106,-15.226,-15.403,-15.5107,-15.6184,-15.7877,-15.8184,-15.8184,-15.8261,-15.6799,-15.4876,-15.2337,-15.0568,-14.9567,0.0,-15.1106,-15.2722,-15.4261,-15.5184,-15.6107,-15.6876,-15.6876,-15.6569,-15.5722,-15.5722,-15.5261,-15.4414,-15.3568,-15.2799,-15.1875,-15.1029,-14.9798,-14.8182,-14.7259,-14.7105,-14.7448,-14.6122,-14.572,-14.5781,-14.4531,-14.3515,-14.2578,-14.1797,-14.0937,-13.9922,-13.8203,-13.7031,-13.6015,-13.4375,-13.2734,-13.1172,-13.1172,-13.0625,-13.0,-13.0937,-13.1172,-13.1172,-13.1172,-13.1172,-13.1015,-13.0078,-12.9922,-13.0078,-13.1015,-13.1172,-13.1718,-13.3437,-13.3828,-13.3828,-13.3828,-13.3125,-13.25,-13.25,-13.1093,-12.9922,-12.9922,-12.7734,-12.6093,-12.6015,-12.3125,-12.1015,-12.0937,-11.9297,-11.8281,-11.8281,-11.8281,-11.8281,-11.8281,-11.8281,-11.8281,-11.8281,-11.8281,-11.7422,-11.5703,-11.6484,-11.6093,-11.4531,-11.5312,-11.5312,-11.4531,-11.4531,-11.3984,-11.8015,-12.2111,-12.7514,-13.3935,-13.8501,-14.2566,-14.7105,-14.8567,-14.949,-15.1183,-15.0875,-15.0337,-15.026,-15.1491,-15.2799,-15.3876,-15.6492,-15.8261,-15.8261,-15.88,-15.703,-15.1029,-15.0798,0.0,0.0,0.0,0.0,-15.4261,-15.5338,-15.6415,-15.78,-15.7415,-15.7184,-15.7492,-15.6415,-15.5415,-15.4491,-15.3722,-15.2876,-15.2029,-15.0568,-14.9337,-14.8182,-14.7259,-14.649,-14.5797,-14.5579,-14.5092,-14.4297,-14.4062,-14.3515,-14.2812,-14.25,-14.1797,-14.1015,-14.039,-13.8906,-13.6875,-13.5234,-13.3906,-13.2812,-13.2265,-13.1484,-13.0937,-13.1797,-13.2109,-13.2187,-13.2812,-13.25,-13.1875,-13.1015,-13.0312,-13.0,-13.0312,-13.0781,-13.1484,-13.2734,-13.3437,-13.3828,-13.3828,-13.3125,-13.2734,-13.3281,-13.1406,-12.9531,-12.8281,-12.6875,-12.5625,-12.4531,-12.2812,-12.1797,-12.1797,-12.0234,-11.9218,-11.9218,-11.8593,-11.8281,-11.8281,-11.8281,-11.8281,-11.8281,-11.8281,-11.7812,-11.6562,-11.6875,-11.6172,-11.4531,-11.4765,-11.4531,-11.3593,-11.3593,-11.3828,-12.1711,-12.662,-13.2135,-13.9309,-14.3425,-14.6523,-14.9894,-15.0875,-15.1183,-15.1491,-15.0029,-14.8182,-14.7105,-14.7182,-14.8029,-14.949,-15.2491,-15.5261,-15.7184,-15.7569,-15.603,-15.1414,-15.0491,-14.9413,0.0,0.0,0.0,-15.3799,-15.4876,-15.6184,-15.8184,-15.8107,-15.8107,-15.8261,-15.7569,-15.6569,-15.5415,-15.4261,-15.303,-15.1491,-15.0183,-14.9029,-14.8182,-14.7259,-14.6413,-14.5643,-14.549,-14.5004,-14.4229,-14.4135,-14.3672,-14.3203,-14.3203,-14.289,-14.2422,-14.2109,-14.0312,-13.7812,-13.6093,-13.4531,-13.3203,-13.2734,-13.2109,-13.1797,-13.2734,-13.2968,-13.2968,-13.3281,-13.289,-13.2187,-13.1015,-13.0312,-12.9922,-12.9922,-13.0625,-13.1406,-13.2265,-13.3203,-13.3828,-13.3828,-13.3281,-13.3125,-13.3672,-13.2109,-13.0078,-12.8125,-12.7031,-12.5937,-12.4218,-12.3203,-12.25,-12.2187,-12.0625,-11.9609,-11.9609,-11.8828,-11.8281,-11.8281,-11.8281,-11.8281,-11.8281,-11.8281,-11.789,-11.7031,-11.6718,-11.5937,-11.4531,-11.4218,-11.3906,-11.3672,-11.3173,-11.3538,-12.5949,-13.0903,-13.5637,-14.2812,-14.6275,-14.8395,-15.0314,-15.1337,-15.1491,-15.0491,-14.8182,-14.5797,0.0,0.0,-14.2412,-14.5028,-14.7028,-15.0106,-15.5107,-15.3876,-15.2722,0.0,0.0,0.0,0.0,0.0,0.0,-15.3106,0.0,-15.5722,-15.8261,-15.9185,-15.9185,-15.8415,-15.9108,-15.8723,-15.703,-15.5184,-15.3106,-15.0721,-14.9875,-14.9029,-14.8182,-14.7259,-14.6875,-14.6798,-14.5874,-14.54,-14.5331,-14.4403,-14.3984,-14.3984,-14.3984,-14.3984,-14.3906,-14.3125,-14.1172,-13.8672,-13.7031,-13.4687,-13.2578,-13.2578,-13.2578,-13.2734,-13.3515,-13.3828,-13.3593,-13.2734,-13.25,-13.2109,-13.039,-12.9922,-12.9922,-12.9765,-13.0468,-13.1406,-13.2265,-13.3203,-13.3828,-13.3828,-13.3828,-13.3828,-13.3672,-13.2968,-13.1562,-12.8984,-12.789,-12.6718,-12.5,-12.3984,-12.3203,-12.2265,-12.0703,-11.9609,-11.9609,-11.8828,-11.8281,-11.8281,-11.8281,-11.8281,-11.8281,-11.8281,-11.789,-11.7109,-11.6172,-11.539,-11.4609,-11.3828,-11.3671,-11.4368,-11.329,-11.3296,-13.0625,-13.5767,-14.0903,-14.666,-14.8546,-14.9408,-15.0509,-14.9875,-14.8413,-14.5567,-14.1489,-13.7488,0.0,0.0,0.0,-14.0412,-14.6105,0.0,-15.5338,-15.7415,0.0,-15.3722,0.0,-15.3722,-15.1568,-15.1491,0.0,0.0,-15.4799,-15.6184,-16.0031,-15.98,-15.9492,-15.9262,-15.8261,-15.6876,-15.5184,-15.3491,-15.2029,-15.0721,-14.9875,-14.9029,-14.8182,-14.7259,-14.6567,-14.6028,-14.5336,-14.4673,-14.4083,-14.3761,-14.3593,-14.3672,-14.3906,-14.3984,-14.3906,-14.3125,-14.1562,-13.9609,-13.789,-13.5625,-13.3515,-13.3515,-13.3515,-13.3515,-13.3672,-13.3828,-13.3593,-13.2734,-13.25,-13.2109,-13.039,-12.9922,-12.9687,-12.9062,-13.0078,-13.1328,-13.1484,-13.2734,-13.3828,-13.3828,-13.3828,-13.3593,-13.289,-13.2109,-13.1093,-12.9765,-12.8828,-12.7422,-12.5078,-12.3984,-12.3203,-12.2265,-12.1172,-12.0312,-11.9687,-11.8828,-11.8281,-11.8281,-11.8281,-11.8281,-11.8281,-11.8281,-11.8203,-11.7968,-11.7109,-11.6562,-11.6406,-11.5468,-11.4734,-11.4126,-11.4507,-11.4835,-13.4999,-13.9479,-14.3715,-14.881,-14.9408,-14.8533,-14.7587,-14.6413,-14.3874,-13.8719,-13.4411,-13.0564,-12.7178,0.0,0.0,0.0,0.0,0.0,-15.4414,-15.7184,-15.803,0.0,-15.6723,0.0,-15.4876,-15.4876,-15.5799,0.0,-15.6184,-15.6415,-15.9569,-15.9723,-15.9569,-15.9569,-15.8261,-15.6492,-15.403,-15.2722,-15.1414,-15.0183,-14.9337,-14.849,-14.7567,-14.7105,-14.6721,-14.6182,-14.572,-14.5196,-14.4716,-14.4129,-14.3911,-14.4062,-14.4297,-14.4218,-14.3906,-14.3515,-14.2031,-14.0,-13.8203,-13.6172,-13.4297,-13.3906,-13.3828,-13.3828,-13.3828,-13.3515,-13.2968,-13.2187,-13.1718,-13.1015,-12.9687,-12.9297,-12.9218,-12.8672,-12.9922,-13.1172,-13.1172,-13.2578,-13.3828,-13.3828,-13.3828,-13.3593,-13.3203,-13.2734,-13.2031,-13.1172,-13.0,-12.8515,-12.6718,-12.539,-12.4062,-12.289,-12.1562,-12.0703,-12.0234,-11.8984,-11.8281,-11.8281,-11.8281,-11.8281,-11.8281,-11.8281,-11.8281,-11.8281,-11.7422,-11.7031,-11.7031,-11.6093,-11.5563,-11.5326,-11.5282,-11.5528,-13.8898,-14.2104,-14.5016,-14.9238,-14.888,-14.6704,-14.3474,-14.172,-13.8565,-13.1179,-12.7486,-12.4716,-12.1408,-12.2331,-12.5409,-13.0794,0.0,-14.4566,-15.3414,-15.5415,-15.703,-15.9569,-15.8569,-15.803,-15.8723,-15.8184,-15.8723,-16.0877,-15.8338,-15.7338,-15.8723,-15.9492,-15.9723,-15.9262,-15.8415,-15.6415,-15.3183,-15.226,-15.1029,-14.949,-14.8567,-14.7721,-14.6875,-14.6875,-14.6875,-14.6875,-14.6413,-14.6105,-14.593,-14.4622,-14.43,-14.4497,-14.4514,-14.4215,-14.3672,-14.3593,-14.2109,-13.9765,-13.7968,-13.6406,-13.4922,-13.4062,-13.3828,-13.3828,-13.3828,-13.3281,-13.25,-13.1562,-13.0781,-13.0,-12.8984,-12.8828,-12.8672,-12.8593,-12.9922,-13.1172,-13.1172,-13.2578,-13.3828,-13.3828,-13.3828,-13.3828,-13.3828,-13.3672,-13.3437,-13.2578,-13.1015,-12.9531,-12.8593,-12.6875,-12.5234,-12.3672,-12.1875,-12.0937,-12.0703,-11.9218,-11.8281,-11.8281,-11.8281,-11.8281,-11.8281,-11.8281,-11.8281,-11.8281,-11.7578,-11.7183,-11.7075,-11.6372,-11.6294,-11.6913,-11.5972,-11.588,-14.0793,-14.3681,-14.6377,-14.7806,-14.7117,-14.5165,-14.1742,-13.7719,0.0,-12.6486,-12.2716,-11.9562,-11.6869,-11.8869,-12.3332,-13.0487,0.0,0.0,0.0,0.0,-15.8107,0.0,0.0,0.0,-16.1416,-16.1339,0.0,0.0,-16.1339,-16.1108,-16.1416,-16.157,-16.0416,-15.7569,-15.6723,-15.4876,-15.226,-15.1414,-15.0414,-14.949,-14.8567,-14.7721,-14.6875,-14.6875,-14.6875,-14.6875,-14.6105,-14.5413,-14.472,-14.3951,-14.3423,-14.2815,-14.3224,-14.2988,-14.2422,-14.1718,-14.0468,-13.8906,-13.7109,-13.5937,-13.4922,-13.4062,-13.3828,-13.3828,-13.3828,-13.3672,-13.3437,-13.25,-13.2187,-13.1718,-13.0078,-12.9687,-12.9531,-12.8828,-12.9922,-13.1172,-13.1172,-13.2578,-13.3828,-13.3828,-13.3828,-13.3828,-13.3828,-13.3203,-13.2734,-13.25,-13.1015,-12.9297,-12.7734,-12.6093,-12.4609,-12.3593,-12.1875,-12.0625,-11.9922,-11.8906,-11.8281,-11.8281,-11.8281,-11.8281,-11.8281,-11.8281,-11.8281,-11.8281,-11.8203,-11.7989,-11.7675,-11.7598,-11.7094,-11.6398,-11.6778,-11.6881,-14.4384,-14.684,-14.8867,-14.9186,-14.7121,-14.3566,-13.7873,0.0,0.0,-12.0331,-11.6869,-11.4638,-11.3022,-11.5407,0.0,0.0,0.0,0.0,0.0,0.0,0.0,0.0,0.0,0.0,0.0,0.0,-16.157,-16.2108,-16.1262,-16.1185,-16.2108,-16.1262,-15.9723,-15.7184,-15.5799,-15.4107,-15.2029,-15.1106,-15.0337,-14.949,-14.8567,-14.7721,-14.6875,-14.649,-14.649,-14.6875,-14.6028,-14.572,-14.5567,-14.4489,-14.3874,-14.3598,-14.2958,-14.2479,-14.201,-14.0669,-13.9687,-13.8593,-13.6406,-13.5312,-13.4922,-13.4062,-13.3828,-13.3828,-13.3828,-13.3515,-13.2968,-13.2578,-13.1797,-13.1015,-13.0078,-12.9609,-12.9062,-12.8672,-12.9922,-13.1328,-13.1797,-13.289,-13.3828,-13.3828,-13.3828,-13.3828,-13.3828,-13.3515,-13.2968,-13.2578,-13.1406,-12.9922,-12.8203,-12.6484,-12.4922,-12.3593,-12.2265,-12.1172,-12.039,-11.9531,-11.8828,-11.8281,-11.8281,-11.8281,-11.8281,-11.8281,-11.8233,-11.8119,-11.8119,-11.7893,-11.7612,-11.7555,-11.7375,-11.7112,-11.7472,-11.7563,-14.6609,-14.8692,-15.033,-15.01,-14.6837,-14.1566,-13.418,-12.8102,-12.2024,-11.4868,-11.2099,-11.0714,-11.0021,-11.2329,-11.5715,0.0,-12.487,0.0,0.0,0.0,0.0,0.0,0.0,0.0,0.0,0.0,0.0,-16.18,-16.0569,-16.0262,-16.1185,-16.0031,-15.8492,-15.6569,-15.5184,-15.3722,-15.2029,-15.1029,-15.0106,-14.949,-14.8413,-14.7567,-14.6875,-14.6182,-14.6182,-14.6567,-14.6028,-14.5797,-14.6028,-14.472,-14.4182,-14.416,-14.272,-14.1874,-14.1444,-13.9871,-13.8795,-13.7812,-13.5703,-13.4922,-13.4609,-13.3984,-13.3828,-13.3828,-13.3828,-13.3281,-13.2734,-13.2578,-13.1406,-13.0078,-12.9922,-12.9297,-12.8593,-12.8828,-13.0078,-13.1406,-13.2265,-13.3203,-13.3828,-13.3828,-13.3828,-13.3828,-13.3828,-13.3828,-13.3593,-13.289,-13.1875,-13.0625,-12.9062,-12.7187,-12.539,-12.3906,-12.2812,-12.1875,-12.1172,-12.0234,-11.9297,-11.8593,-11.8437,-11.8281,-11.8281,-11.8281,-11.8183,-11.7881,-11.7914,-11.7716,-11.7295,-11.733,-11.7375,-11.7727,-11.7777,-11.804,-14.439,-14.6993,-14.9027,-14.8188,-14.4421,-13.9181,-13.2333,-12.5024,-11.8177,-11.2791,-11.0329,-10.9098,-10.9021,-10.9867,-11.256,-11.8407,-12.1716,-12.764,0.0,0.0,0.0,0.0,0.0,0.0,0.0,0.0,0.0,-16.0877,-16.0877,-16.0185,-15.8723,-15.8492,-15.7261,-15.4799,-15.4568,-15.3722,-15.2029,-15.0414,-14.9567,-14.949,-14.7798,-14.7028,-14.6875,-14.6798,-14.6413,-14.5797,-14.572,-14.4797,-14.3412,-14.3258,-14.2797,-14.2104,-14.1489,-14.0511,-13.9281,-13.8696,-13.7178,-13.5312,-13.5078,-13.4531,-13.3906,-13.3828,-13.3828,-13.3828,-13.3828,-13.3672,-13.3515,-13.2734,-13.1797,-13.0937,-13.0078,-12.9297,-12.8828,-12.9609,-13.0468,-13.1406,-13.2265,-13.3203,-13.3828,-13.3828,-13.3828,-13.3828,-13.3828,-13.3828,-13.3828,-13.3672,-13.2265,-13.0937,-12.9922,-12.7578,-12.5703,-12.4765,-12.3203,-12.2187,-12.2109,-12.0625,-11.9609,-11.9531,-11.8672,-11.8281,-11.8281,-11.8281,-11.8183,-11.7881,-11.7914,-11.7573,-11.6967,-11.7035,-11.7144,-11.7067,-11.7267,-11.7976,-14.289,-14.6529,-14.9084,-14.8164,-14.3109,-13.6873,-13.1718,-12.3793,-11.6407,-11.2329,-10.9329,-10.7636,-10.8098,-10.7175,-10.8021,-11.2868,-11.3714,-11.7407,-12.7717,0.0,0.0,0.0,0.0,0.0,0.0,0.0,0.0,-15.78,-15.8338,-15.7569,-15.5415,-15.6184,-15.6107,-15.4491,-15.303,-15.1875,-15.1183,-15.0106,-14.9183,-14.8721,-14.8029,-14.7182,-14.6182,-14.5567,-14.5182,-14.4874,-14.4412,-14.4028,-14.3874,-14.3566,-14.3028,-14.2104,-14.105,-13.9896,-13.8457,-13.725,-13.6125,-13.4922,-13.4375,-13.4062,-13.3828,-13.3828,-13.4062,-13.4375,-13.3906,-13.4062,-13.4218,-13.289,-13.1875,-13.1015,-13.0078,-12.9609,-12.9297,-12.9218,-13.0625,-13.1875,-13.1797,-13.2812,-13.3828,-13.3828,-13.3828,-13.3828,-13.3828,-13.3828,-13.3437,-13.2422,-13.1562,-13.0468,-12.8593,-12.7031,-12.5703,-12.4922,-12.3672,-12.2812,-12.2187,-12.1093,-12.0234,-11.9609,-11.8828,-11.8281,-11.8281,-11.8281,-11.8175,-11.7933,-11.7707,-11.7606,-11.7715,-11.7023,-11.7375,-11.8805,-11.8373,-11.8575,-14.0104,-14.4489,-14.7875,-14.749,-14.1874,-13.518,-13.0487,-12.2331,-11.4714,-11.0791,-10.7713,-10.579,-10.6482,-10.5097,-10.502,-10.8175,-10.8482,-11.1329,-11.9331,-12.3332,0.0,0.0,0.0,0.0,0.0,0.0,0.0,-15.5492,-15.6184,-15.5722,-15.3414,-15.4184,-15.4337,-15.3414,-15.1568,-15.0568,-15.0337,-14.949,-14.8798,-14.8182,-14.7875,-14.7105,-14.572,-14.5105,-14.4489,-14.4028,-14.3489,-14.3412,-14.3566,-14.3258,-14.272,-14.1896,-14.0434,-13.9072,-13.7796,-13.5887,-13.4784,-13.4218,-13.3593,-13.3437,-13.3515,-13.3672,-13.4531,-13.5234,-13.4062,-13.4375,-13.4687,-13.2968,-13.1718,-13.0625,-12.9687,-12.9531,-12.9375,-12.8672,-13.039,-13.1875,-13.1328,-13.2578,-13.3828,-13.3828,-13.3828,-13.3828,-13.3828,-13.3828,-13.3437,-13.2187,-13.1484,-13.0468,-12.8672,-12.7187,-12.6093,-12.5234,-12.4375,-12.3515,-12.2734,-12.1797,-12.1015,-12.039,-11.9297,-11.8672,-11.8672,-11.8437,-11.8203,-11.789,-11.7662,-11.7826,-11.8299,-11.7484,-11.8145,-11.996,-11.9498,-11.9267,-13.5026,-14.0566,-14.472,-14.549,-14.0566,-13.4026,-12.8102,-12.01,-11.2637,-10.7482,-10.5097,-10.3866,-10.3866,-10.3866,-10.4174,-10.502,-10.8021,-11.2022,-11.71,-12.2177,0.0,0.0,0.0,0.0,0.0,0.0,0.0,-15.4568,-15.5338,-15.5107,-15.3414,-15.2491,-15.1568,-15.0798,-15.0721,-15.0337,-14.949,-14.8567,-14.8182,-14.8182,-14.7336,-14.649,-14.572,-14.572,-14.472,-14.3105,-14.3489,-14.3028,-14.1874,-14.1797,-14.1489,-14.095,-13.9072,-13.7919,-13.6847,-13.461,-13.3281,-13.25,-13.25,-13.25,-13.2734,-13.3515,-13.4922,-13.6015,-13.4297,-13.4375,-13.4687,-13.2968,-13.1328,-12.9687,-12.8828,-12.8593,-12.8593,-12.8593,-12.9922,-13.1172,-13.1172,-13.2578,-13.3828,-13.3828,-13.3828,-13.3828,-13.3828,-13.3828,-13.3828,-13.3828,-13.2265,-13.1172,-13.1172,-12.8906,-12.7031,-12.6093,-12.5312,-12.4375,-12.3593,-12.2734,-12.2187,-12.2187,-12.0468,-11.9609,-11.9609,-11.8828,-11.8203,-11.789,-11.789,-11.8232,-11.8728,-11.8715,-11.9145,-11.996,-12.0313,-11.996,-12.3101,-12.8025,-13.2179,-13.1872,-12.8871,-12.487,-12.0716,-11.5407,-11.0329,-10.6328,-10.3712,-10.2327,-10.2866,-10.2097,-10.2481,-10.6328,-10.7328,-10.9406,-11.4484,0.0,0.0,0.0,0.0,0.0,0.0,0.0,0.0,-15.2799,-15.2491,-15.1799,-15.0798,-15.0414,-15.0414,-15.0721,-14.9567,-14.8875,-14.8567,-14.7721,-14.7028,-14.649,-14.6182,-14.5336,-14.3874,-14.3874,-14.3028,-14.1412,-14.2412,-14.1874,-14.0566,-14.1566,-14.095,-13.9209,-13.8195,-13.6559,-13.4799,-13.4125,-13.3203,-13.2578,-13.3203,-13.3437,-13.3437,-13.3672,-13.4531,-13.5234,-13.4062,-13.4765,-13.5312,-13.2422,-13.039,-12.8906,-12.8672,-12.8984,-12.9297,-12.8672,-12.9922,-13.1172,-13.1172,-13.2109,-13.3125,-13.3672,-13.3828,-13.3828,-13.3828,-13.3828,-13.3593,-13.2968,-13.2422,-13.1718,-13.0468,-12.9062,-12.7578,-12.6172,-12.5312,-12.4375,-12.3593,-12.2734,-12.2187,-12.2187,-12.1093,-12.0468,-12.0468,-12.0234,-12.0,-12.0,-11.9687,-11.9995,-12.0733,-12.0005,-12.01,-12.116,-12.1192,-12.0685,-11.4714,-11.9485,-12.3408,-12.3485,-12.1562,-11.8792,-11.5407,-11.1329,-10.7328,-10.3866,-10.1712,-10.0481,-10.1096,-10.0327,-10.0635,-10.3789,-10.502,-10.6867,-11.1021,0.0,0.0,0.0,0.0,0.0,0.0,0.0,-15.1106,-15.1106,-15.0568,-15.0029,-14.949,-14.9183,-14.9183,-14.9721,-14.8721,-14.8029,-14.7721,-14.7182,-14.649,-14.572,-14.572,-14.4797,-14.3105,-14.2797,-14.1874,-14.0566,-14.1258,-14.095,0.0,-14.0701,-13.9918,-13.826,-13.7107,-13.5625,-13.4218,-13.3515,-13.2968,-13.2578,-13.3125,-13.3281,-13.3437,-13.3672,-13.4062,-13.4531,-13.3984,-13.4297,-13.4375,-13.1875,-13.0234,-12.8984,-12.8672,-12.8984,-12.9297,-12.8672,-12.9687,-13.0781,-13.1093,-13.1875,-13.2812,-13.3593,-13.3828,-13.3828,-13.3828,-13.3828,-13.3593,-13.3125,-13.2422,-13.1562,-13.0468,-12.9297,-12.8125,-12.6562,-12.6015,-12.539,-12.4531,-12.3437,-12.2734,-12.2734,-12.1875,-12.1406,-12.1406,-12.1093,-12.0937,-12.0937,-12.0703,-12.0997,-12.1864,-12.1474,-12.1734,-12.2373,-12.2189,-12.1607,0.0,-11.3791,-11.6792,-11.8407,-11.71,-11.4561,-11.1406,-10.7636,0.0,-10.0712,-9.9327,-9.8711,-9.8865,-9.8788,-9.8788,-9.9096,-10.1866,-10.4866,-10.7482,0.0,0.0,0.0,0.0,0.0,0.0,0.0,-14.9413,-14.9413,-14.9413,-14.9337,-14.9337,-14.849,-14.8106,-14.8029,-14.8029,-14.7567,-14.6798,-14.6798,-14.6413,-14.549,-14.549,-14.4566,-14.2874,-14.2104,-14.1335,-14.0412,-14.0412,-14.0158,-13.9694,-13.9058,-13.8609,-13.7938,-13.5795,-13.4765,-13.4531,-13.2968,-13.2422,-13.2265,-13.25,-13.2578,-13.2578,-13.3515,-13.3828,-13.3828,-13.3672,-13.3125,-13.2187,-13.1406,-13.0468,-12.9609,-12.8828,-12.8593,-12.8593,-12.8593,-12.9218,-13.0,-13.0937,-13.1797,-13.2734,-13.3515,-13.3828,-13.3828,-13.3672,-13.3672,-13.3672,-13.3672,-13.2265,-13.1172,-13.1172,-12.9687,-12.8281,-12.7422,-12.7265,-12.6875,-12.6093,-12.4609,-12.3672,-12.3593,-12.2812,-12.2422,-12.2265,-12.1484,-12.1093,-12.1093,-12.1093,-12.1484,-12.2422,-12.3125,-12.3515,-12.3593,-12.3203,-12.2427,-9.7326,0.0,-10.3405,-10.3789,-10.4405,-10.4482,0.0,-10.2481,-10.1635,0.0,0.0,-9.8173,-9.9558,-9.8711,-9.8865,-10.2174,-10.3866,-10.5867,-10.9175,0.0,0.0,0.0,0.0,0.0,0.0,0.0,-14.849,-14.849,-14.7875,-14.749,-14.749,-14.7336,-14.6875,-14.6336,-14.6336,-14.6182,-14.6028,-14.6028,-14.5182,-14.372,-14.372,-14.2797,-14.1181,-14.1027,-14.0104,-13.8796,-13.9873,-13.9621,-13.8332,-13.8685,-13.7713,-13.5664,-13.4523,-13.289,-13.1172,-13.2187,-13.1718,-13.0781,-13.2812,-13.3125,-13.2578,-13.3515,-13.3828,-13.3672,-13.2968,-13.2187,-13.1328,-13.0468,-12.9609,-12.8906,-12.8672,-12.8593,-12.8593,-12.8593,-12.8828,-12.9062,-13.0,-13.0937,-13.1797,-13.2578,-13.3281,-13.3593,-13.289,-13.2812,-13.2812,-13.2812,-13.1875,-13.1172,-13.1172,-13.0312,-12.8984,-12.75,-12.7265,-12.6875,-12.6093,-12.5625,-12.5078,-12.4531,-12.4297,-12.3906,-12.3203,-12.2968,-12.289,-12.289,-12.289,-12.3281,-12.4218,-12.3672,-12.3828,-12.4531,-12.3515,-12.2405,-9.233,-9.5326,-9.8173,-9.8173,-9.9481,-10.0481,-9.9712,-9.9558,0.0,0.0,0.0,-9.725,-9.8173,-9.7865,-9.8557,-10.1558,-10.3482,-10.7175,0.0,0.0,0.0,0.0,0.0,0.0,0.0,0.0,-14.7182,-14.7567,-14.6798,-14.649,-14.6875,-14.6875,-14.649,-14.572,-14.5336,-14.5105,-14.5105,-14.5105,-14.4412,-14.3105,-14.272,-14.1874,-14.0566,-13.9796,-13.9027,-13.8411,-13.895,-13.8508,-13.7519,-13.7182,-13.6093,-13.4297,-13.3125,-13.2031,-13.1172,-13.2187,-13.1875,-13.1328,-13.2734,-13.2578,-13.2031,-13.289,-13.289,-13.2422,-13.1562,-13.1015,-13.0468,-13.0,-12.9297,-12.8593,-12.8593,-12.8593,-12.8593,-12.8593,-12.8593,-12.8828,-12.9687,-13.0625,-13.1484,-13.2265,-13.3203,-13.3515,-13.2734,-13.2812,-13.2968,-13.2578,-13.2109,-13.1718,-13.1328,-13.039,-12.9531,-12.8593,-12.8125,-12.7968,-12.8437,-12.7734,-12.6718,-12.539,-12.539,-12.5078,-12.4687,-12.4609,-12.4531,-12.4062,-12.4062,-12.4062,-12.4218,-12.3672,-12.3672,-12.4218,-12.3515,-12.2794,-9.1335,-9.4368,-9.7247,-9.6866,-9.8057,-9.9133,-9.8442,0.0,0.0,0.0,0.0,0.0,0.0,0.0,0.0,0.0,0.0,0.0,0.0,0.0,0.0,0.0,0.0,0.0,0.0,-14.572,-14.5797,-14.649,-14.5874,-14.5874,-14.6721,-14.6567,-14.6105,-14.5336,-14.4489,-14.3874,-14.3643,-14.3797,-14.3412,-14.2489,-14.1797,-14.1104,-14.0181,-13.8719,-13.8104,-13.8181,-13.7821,-13.7309,-13.677,-13.5376,-13.4297,-13.3437,-13.1718,-13.1484,-13.2109,-13.2265,-13.2187,-13.2109,-13.2109,-13.1718,-13.1328,-13.2109,-13.1797,-13.1015,-13.0234,-12.9922,-12.9922,-12.9687,-12.9218,-12.8593,-12.8593,-12.8593,-12.8593,-12.8593,-12.8593,-12.8828,-12.9531,-13.039,-13.1328,-13.2109,-13.2968,-13.3281,-13.25,-13.289,-13.3125,-13.2187,-13.2031,-13.1718,-13.1093,-13.0234,-12.9687,-12.9687,-12.8984,-12.9218,-13.0703,-12.9609,-12.8125,-12.6484,-12.6328,-12.6093,-12.5781,-12.5937,-12.5625,-12.4609,-12.4687,-12.4375,-12.3672,-12.3593,-12.3593,-12.3672,-12.3593,-12.3281,-9.273,-9.5053,-9.612,-9.3892,-9.4637,-9.5936,-9.5783,-9.563,0.0,0.0,0.0,0.0,0.0,0.0,0.0,0.0,0.0,0.0,0.0,0.0,0.0,0.0,0.0,0.0,-14.172,-14.3412,-14.472,-14.4797,-14.472,-14.5028,-14.5797,-14.5182,-14.4412,-14.3489,-14.272,-14.1566,-14.0104,-14.0796,-14.0719,-13.9873,-13.9796,-13.9335,-13.8488,-13.8181,-13.7488,-13.6386,-13.6707,-13.6517,-13.5922,-13.4518,-13.3515,-13.25,-13.0781,-13.0234,-13.039,-13.1093,-13.0937,-13.0312,-13.0312,-13.0703,-13.1172,-13.1406,-13.1328,-13.1015,-13.0234,-12.9922,-12.9687,-12.8984,-12.8672,-12.8593,-12.8593,-12.8593,-12.8593,-12.8593,-12.8593,-12.8593,-12.8828,-12.9531,-13.039,-13.1172,-13.2109,-13.2422,-13.1484,-13.1484,-13.1328,-13.039,-12.9687,-12.9375,-13.0,-12.9297,-12.8828,-12.8828,-12.8672,-12.8672,-12.8984,-12.9375,-12.9297,-12.8281,-12.75,-12.6484,-12.5,-12.5625,-12.5312,-12.3672,-12.4375,-12.4687,-12.4609,-12.3906,-12.3906,-12.4609,-12.3828,-12.3281,-9.0072,-9.2216,-9.38,-9.3539,-9.5701,-9.756,-9.6248,-9.5565,0.0,0.0,0.0,0.0,0.0,0.0,0.0,0.0,0.0,0.0,0.0,0.0,0.0,0.0,0.0,0.0,-14.2566,-14.3335,-14.3874,-14.4412,-14.4412,-14.4643,-14.5028,-14.5105,-14.4336,-14.2489,-14.1566,-14.0412,-13.8719,-13.8565,-13.8796,-13.9335,-13.8873,-13.8181,-13.7411,-13.7411,-13.7026,-13.6309,-13.6538,-13.638,-13.5931,-13.3874,-13.2578,-13.1718,-13.039,-13.0234,-13.0703,-13.1093,-13.0937,-13.0468,-13.0078,-12.9922,-12.9922,-13.0312,-13.0234,-12.9687,-12.9297,-12.9218,-12.9062,-12.8672,-12.8593,-12.8593,-12.8593,-12.8593,-12.8593,-12.8593,-12.8593,-12.8593,-12.8593,-12.9297,-13.0234,-13.1015,-13.1875,-13.2422,-13.2031,-13.2265,-13.2265,-13.1406,-13.1406,-13.1172,-13.0703,-13.0312,-13.0,-13.0,-12.9609,-12.9922,-13.1328,-13.0937,-13.0234,-12.9375,-12.8515,-12.7422,-12.6172,-12.6484,-12.6093,-12.4922,-12.4765,-12.4765,-12.4765,-12.4375,-12.4218,-12.4062,-12.4218,-12.3906,-8.8316,-9.0061,-9.1687,-9.3165,-9.6217,-9.8637,-9.805,-9.7057,0.0,0.0,0.0,0.0,0.0,0.0,0.0,0.0,0.0,0.0,0.0,0.0,0.0,0.0,-14.0796,-14.172,-14.3643,-14.3412,-14.3258,-14.3797,-14.4028,-14.4105,-14.4105,-14.4412,-14.3566,-14.172,-14.0566,-13.9258,-13.7796,-13.7103,-13.7411,-13.8719,-13.8104,-13.7257,-13.6488,-13.6488,-13.6411,-13.6155,-13.5995,-13.5813,-13.539,-13.3125,-13.1718,-13.0781,-12.9922,-13.0078,-13.0937,-13.0937,-13.0937,-13.0781,-12.9922,-12.9218,-12.8672,-12.9375,-12.9062,-12.8593,-12.8593,-12.8593,-12.8593,-12.8593,-12.8593,-12.8593,-12.8593,-12.8593,-12.8593,-12.8593,-12.8593,-12.8593,-12.8593,-12.9062,-12.9922,-13.0703,-13.1562,-13.2187,-13.2187,-13.289,-13.3203,-13.2265,-13.2812,-13.2734,-13.1406,-13.1172,-13.1172,-13.1172,-13.0625,-13.1093,-13.3281,-13.2109,-13.1015,-13.0468,-12.9531,-12.8515,-12.7578,-12.7578,-12.7109,-12.6015,-12.5625,-12.5312,-12.5078,-12.5078,-12.4687,-12.4062,-12.4765,-12.4687,-9.0732,-9.11,-9.0879,-9.1764,-9.3276,-9.5949,-10.1034,-10.0438,0.0,-10.4516,0.0,0.0,0.0,0.0,0.0,0.0,0.0,0.0,0.0,0.0,0.0,-14.0489,-14.1335,-14.1874,-14.2104,-14.272,-14.2797,-14.2104,-14.2797,-14.3181,-14.3181,-14.1797,-14.0873,-14.0719,-13.9104,-13.7796,-13.6873,-13.6796,-13.6873,-13.7026,-13.6873,-13.6411,-13.5565,-13.5565,-13.5411,-13.4872,-13.4409,-13.3925,-13.3281,-13.1875,-13.0781,-12.9922,-12.8984,-12.9218,-13.0,-13.0,-13.0,-12.9922,-12.8984,-12.8672,-12.8593,-12.8672,-12.8672,-12.8593,-12.8593,-12.8593,-12.8593,-12.8593,-12.8593,-12.8593,-12.8593,-12.8593,-12.8593,-12.8593,-12.8593,-12.8593,-12.8593,-12.8593,-12.8984,-12.9765,-13.0703,-13.1328,-13.1328,-13.2031,-13.2265,-13.1406,-13.1328,-13.1328,-13.1172,-13.1172,-13.1172,-13.1172,-13.1093,-13.1484,-13.25,-13.1718,-13.1484,-13.2265,-13.0703,-12.9375,-12.8515,-12.8515,-12.7734,-12.6015,-12.6718,-12.6718,-12.5937,-12.5937,-12.5937,-12.5781,-12.5937,-12.5937,-8.8243,-8.8977,-8.9638,-9.1987,-9.3454,0.0,0.0,-10.0902,-10.2529,-10.6908,-10.7876,0.0,0.0,0.0,0.0,0.0,0.0,0.0,0.0,0.0,-14.0412,-14.1335,-14.1181,-14.1335,-14.1797,-14.172,-14.1566,-14.1874,-14.2566,-14.2874,-14.2412,-14.1797,-14.0873,-13.9796,-13.8719,-13.7411,-13.6026,-13.6026,-13.5719,-13.5334,-13.5795,-13.5334,-13.4026,-13.4487,-13.4795,-13.4693,-13.3429,-13.3188,-13.3488,-13.0914,-12.9696,-12.9609,-12.9531,-12.9922,-13.0625,-13.0078,-12.9922,-12.9765,-12.8906,-12.8593,-12.8593,-12.8593,-12.8593,-12.8593,-12.8593,-12.8593,-12.8593,-12.8593,-12.8593,-12.8593,-12.8593,-12.8593,-12.8593,-12.8593,-12.8593,-12.8593,-12.8593,-12.8593,-12.8906,-12.9687,-13.0625,-13.1406,-13.1875,-13.2734,-13.3203,-13.289,-13.2812,-13.2578,-13.2109,-13.2031,-13.2031,-13.2031,-13.25,-13.2968,-13.3281,-13.2968,-13.2968,-13.3281,-13.1172,-12.9531,-12.8593,-12.8125,-12.7734,-12.7578,-12.6875,-12.6875,-12.7578,-12.7109,-12.6484,-12.6015,-12.6562,-12.6484,-8.7142,-8.7582,-8.839,-9.0959,-9.3159,0.0,-10.0385,-10.2874,-10.5789,-11.1074,-11.2176,0.0,0.0,0.0,0.0,0.0,0.0,0.0,0.0,0.0,-14.1104,-14.1489,-14.1027,-14.0796,-14.1412,-14.1181,-14.1335,-14.1874,-14.2566,-14.2566,-14.1489,-14.1181,-14.0412,-13.9027,-13.8104,-13.7026,-13.5488,-13.5488,-13.5026,-13.3872,-13.4411,-13.4103,-13.3026,-13.3564,-13.4026,-13.4154,-13.2487,-13.2314,-13.2767,-13.0018,-12.8876,-12.8862,-12.9216,-12.9687,-13.0234,-12.9687,-12.9531,-12.9375,-12.8828,-12.8593,-12.8593,-12.8593,-12.8593,-12.8593,-12.8593,-12.8593,-12.8593,-12.8593,-12.8593,-12.8593,-12.8593,-12.8593,-12.8593,-12.8593,-12.8593,-12.8593,-12.8593,-12.8593,-12.8828,-12.9375,-13.0234,-13.1093,-13.1875,-13.2812,-13.3515,-13.3828,-13.3828,-13.3593,-13.2968,-13.289,-13.289,-13.289,-13.3437,-13.3828,-13.3828,-13.3828,-13.3828,-13.3828,-13.1875,-13.0468,-12.9922,-12.8984,-12.8672,-12.8984,-12.8125,-12.8125,-12.8984,-12.8672,-12.8203,-12.7734,-12.8281,-12.8125,-8.839,-8.7655,-8.7215,-8.8023,0.0,0.0,-10.4899,-10.72,-10.99,-11.7975,0.0,-11.783,-11.9476,0.0,0.0,0.0,0.0,0.0,0.0,-14.0796,-14.1566,-14.0719,-14.0566,-14.0566,-14.0566,-14.1412,-14.1874,-14.1874,-14.2566,-14.2335,-14.0719,-13.9796,-13.8873,-13.8104,-13.718,-13.6411,-13.5488,-13.5488,-13.4564,-13.3026,-13.3026,-13.3026,-13.3026,-13.3026,-13.3026,-13.2872,-13.1641,-13.0871,-13.0844,-12.9382,-12.8425,-12.7607,-12.801,-12.8125,-12.8125,-12.8515,-12.8593,-12.8593,-12.8593,-12.8593,-12.8593,-12.8593,-12.8593,-12.8593,-12.8593,-12.8593,-12.8593,-12.8593,-12.8593,-12.8593,-12.8593,-12.8593,-12.8593,-12.8593,-12.8593,-12.8593,-12.8593,-12.8593,-12.8593,-12.8593,-12.9297,-13.0234,-13.1015,-13.1875,-13.2812,-13.3672,-13.3828,-13.3828,-13.3828,-13.3828,-13.3828,-13.3828,-13.3828,-13.3828,-13.3828,-13.3828,-13.3828,-13.3828,-13.2968,-13.25,-13.25,-13.1718,-13.0781,-12.9922,-13.0781,-13.0781,-12.9922,-13.0781,-13.1172,-13.1172,-13.1172,-13.0703,-8.8536,-8.8023,0.0,0.0,0.0,0.0,0.0,-11.0195,0.0,0.0,0.0,0.0,-12.24,0.0,0.0,0.0,0.0,-13.6273,-13.9665,-14.0719,-14.0873,-14.0566,-14.0104,-13.9719,-13.9719,-13.9873,-14.0104,-14.0104,-14.0873,-14.0873,-13.9719,-13.8873,-13.8257,-13.8104,-13.6719,-13.5488,-13.4718,-13.4026,-13.318,-13.2102,-13.2102,-13.2102,-13.2102,-13.2102,-13.241,-13.2872,-13.0718,-13.0102,-13.0487,-12.8535,-12.7493,-12.7299,-12.7607,-12.7871,-12.8125,-12.8203,-12.8437,-12.8593,-12.8593,-12.8593,-12.8593,-12.8593,-12.8593,-12.8593,-12.8593,-12.8593,-12.8593,-12.8593,-12.8593,-12.8593,-12.8593,-12.8593,-12.8593,-12.8593,-12.8593,-12.8593,-12.8593,-12.8593,-12.8593,-12.8593,-12.9297,-13.0234,-13.1015,-13.1875,-13.2812,-13.3672,-13.3828,-13.3828,-13.3828,-13.3828,-13.3828,-13.3828,-13.3828,-13.3828,-13.3828,-13.3828,-13.3828,-13.3828,-13.3593,-13.3125,-13.25,-13.1718,-13.1406,-13.1718,-13.1406,-13.1406,-13.1718,-13.1406,-13.1172,-13.1172,-13.1172,-13.0703,-8.9711,0.0,0.0,0.0,0.0,0.0,0.0,0.0,0.0,0.0,0.0,0.0,0.0,0.0,0.0,0.0,-13.2981,-13.6084,-13.9588,-14.0104,-14.0104,-14.0104,-13.9335,-13.8796,-13.8796,-13.8796,-13.9027,-13.9335,-13.9796,-13.9719,-13.8873,-13.8027,-13.7411,-13.7103,-13.5719,-13.4564,-13.3795,-13.3256,-13.2564,-13.1718,-13.1718,-13.1718,-13.1718,-13.1718,-13.1795,-13.1872,-12.9717,-12.8794,-12.8871,-12.7486,-12.6871,-12.6948,-12.7304,-12.7493,-12.7694,-12.7925,-12.7969,-12.8221,-12.8432,-12.8437,-12.8437,-12.8593,-12.8593,-12.8593,-12.8593,-12.8593,-12.8593,-12.8593,-12.8593,-12.8593,-12.8593,-12.8593,-12.8593,-12.8593,-12.8593,-12.8593,-12.8593,-12.8593,-12.8593,-12.8593,-12.8984,-12.9687,-13.0468,-13.1406,-13.2265,-13.3203,-13.3593,-13.3828,-13.3828,-13.3828,-13.3828,-13.3828,-13.3828,-13.3828,-13.3828,-13.3828,-13.3828,-13.3828,-13.3828,-13.3593,-13.2968,-13.25,-13.2265,-13.25,-13.2265,-13.2265,-13.25,-13.2265,-13.2187,-13.2187,-13.2187,-13.1797,0.0,0.0,0.0,0.0,0.0,0.0,0.0,0.0,0.0,0.0,0.0,0.0,0.0,0.0,0.0,0.0,-13.3758,-13.5521,-13.8765,-13.9181,-13.9181,-13.9181,-13.8488,-13.8104,-13.8027,-13.8104,-13.8334,-13.8873,-13.9027,-13.8719,-13.7796,-13.7026,-13.618,-13.5411,-13.4564,-13.3795,-13.3026,-13.2872,-13.2487,-13.1718,-13.1564,-13.1564,-13.1564,-13.1564,-13.1102,-13.0179,-12.864,-12.7409,-12.6717,-12.6717,-12.6717,-12.6717,-12.6948,-12.7101,-12.7091,-12.7424,-12.7613,-12.7637,-12.7891,-12.812,-12.8203,-12.8515,-12.8593,-12.8593,-12.8593,-12.8593,-12.8593,-12.8593,-12.8593,-12.8593,-12.8593,-12.8593,-12.8593,-12.8593,-12.8593,-12.8593,-12.8593,-12.8593,-12.8593,-12.8593,-12.8593,-12.8906,-12.9687,-13.0625,-13.1484,-13.25,-13.3281,-13.3828,-13.3828,-13.3828,-13.3828,-13.3828,-13.3828,-13.3828,-13.3828,-13.3828,-13.3828,-13.3828,-13.3828,-13.3828,-13.3828,-13.3828,-13.3437,-13.2578,-13.3437,-13.3437,-13.2578,-13.3437,-13.3828,-13.3828,-13.3828,-13.3281,0.0,0.0,0.0,0.0,0.0,0.0,0.0,0.0,0.0,0.0,0.0,0.0,0.0,0.0,0.0,-13.4674,-13.5624,-13.6865,-13.9027,-13.8796,-13.8411,-13.8411,-13.8181,-13.7796,-13.7103,-13.7719,-13.7565,-13.6411,-13.7026,-13.6719,-13.518,-13.4872,-13.4795,-13.4564,-13.3718,-13.318,-13.3026,-13.2333,-13.1872,-13.1718,-13.1102,-13.0794,-13.0794,-13.0794,-12.9871,-12.8409,-12.8102,-12.7409,-12.6717,-12.6717,-12.6717,-12.6717,-12.6794,-12.6871,-12.7073,-12.7197,-12.744,-12.7637,-12.7729,-12.7907,-12.8125,-12.8203,-12.8437,-12.8593,-12.8593,-12.8593,-12.8593,-12.8593,-12.8593,-12.8593,-12.8593,-12.8593,-12.8593,-12.8593,-12.8593,-12.8593,-12.8593,-12.8593,-12.8593,-12.8593,-12.8593,-12.8906,-12.9687,-13.0625,-13.1718,-13.3281,-13.3672,-13.3828,-13.3828,-13.3828,-13.3828,-13.3828,-13.3828,-13.3828,-13.3828,-13.3828,-13.3828,-13.3828,-13.3828,-13.3828,-13.3828,-13.3828,-13.3672,-13.3515,-13.3672,-13.3672,-13.3515,-13.3672,-13.3828,-13.3828,-13.3828,-13.3281,0.0,0.0,0.0,0.0,0.0,0.0,0.0,0.0,0.0,0.0,0.0,0.0,0.0,0.0,0.0,-13.6066,-13.6503,-13.7257,-13.8488,-13.8027,-13.7565,-13.8104,-13.7719,-13.7103,-13.6334,-13.6565,-13.6103,-13.4411,-13.4718,-13.4411,-13.3103,-13.3103,-13.3103,-13.3103,-13.2564,-13.241,-13.241,-13.1872,-13.1487,-13.1102,-13.0718,-13.0102,-12.9333,-12.9333,-12.8794,-12.7871,-12.7486,-12.7101,-12.6717,-12.6717,-12.6717,-12.6717,-12.6717,-12.6794,-12.6871,-12.6871,-12.6948,-12.7178,-12.7304,-12.7611,-12.7928,-12.8027,-12.8281,-12.8593,-12.8593,-12.8593,-12.8593,-12.8593,-12.8593,-12.8593,-12.8593,-12.8593,-12.8593,-12.8593,-12.8593,-12.8593,-12.8593,-12.8593,-12.8672,-12.9062,-12.9218,-12.9375,-12.9765,-13.0625,-13.1718,-13.2968,-13.3515,-13.3828,-13.3828,-13.3828,-13.3828,-13.3828,-13.3828,-13.3828,-13.3828,-13.3828,-13.3828,-13.3828,-13.3828,-13.3828,-13.3828,-13.3828,-13.3828,-13.3828,-13.3828,-13.3828,-13.3828,-13.3828,-13.3828,-13.3828,-13.4218,-13.3906,0.0,0.0,0.0,0.0,0.0,0.0,0.0,0.0,0.0,0.0,0.0,0.0,0.0,0.0,-13.6411,-13.6565,-13.6488,-13.6719,-13.7488,-13.6873,-13.6565,-13.7411,-13.6796,-13.6103,-13.5411,-13.518,-13.4411,-13.2872,-13.2564,-13.2179,-13.1333,-13.1333,-13.1333,-13.1333,-13.1333,-13.1333,-13.1333,-13.1333,-13.0871,-13.0333,-13.0102,-12.9179,-12.7717,-12.7717,-12.7717,-12.7717,-12.7025,-12.6717,-12.6717,-12.6717,-12.6717,-12.6717,-12.6717,-12.6717,-12.6717,-12.6717,-12.6717,-12.6717,-12.6948,-12.7304,-12.7594,-12.7885,-12.8276,-12.8593,-12.8593,-12.8593,-12.8593,-12.8593,-12.8593,-12.8593,-12.8593,-12.8593,-12.8593,-12.8593,-12.8593,-12.8593,-12.8593,-12.8593,-12.8906,-12.9687,-12.9922,-12.9922,-13.0078,-13.0625,-13.1328,-13.2265,-13.3125,-13.3593,-13.3828,-13.3828,-13.3828,-13.3828,-13.3828,-13.3828,-13.3828,-13.3828,-13.3828,-13.3828,-13.3828,-13.3828,-13.3828,-13.3828,-13.3828,-13.3828,-13.3828,-13.3828,-13.3828,-13.3828,-13.3906,-13.3984,-13.4687,-13.4687,0.0,0.0,0.0,0.0,0.0,0.0,0.0,0.0,0.0,0.0,0.0,0.0,0.0,0.0,-13.4872,-13.5565,-13.5103,-13.4872,-13.5719,-13.5103,-13.4718,-13.4795,-13.4718,-13.4564,-13.4487,-13.3795,-13.2872,-13.1872,-13.1179,-13.0487,-12.9563,-12.9487,-12.9487,-12.9487,-12.9487,-12.9487,-12.9487,-12.9487,-12.9487,-12.941,-12.864,-12.7794,-12.6871,-12.6871,-12.6871,-12.6871,-12.6717,-12.6717,-12.6717,-12.6717,-12.6717,-12.6717,-12.6717,-12.6717,-12.6717,-12.6717,-12.6717,-12.6717,-12.6717,-12.7101,-12.7615,-12.7663,-12.8093,-12.8593,-12.8593,-12.8593,-12.8593,-12.8593,-12.8593,-12.8593,-12.8593,-12.8593,-12.8593,-12.8593,-12.8593,-12.8593,-12.8593,-12.8593,-12.8906,-12.9687,-12.9922,-13.0078,-13.0937,-13.0468,-13.0625,-13.2265,-13.2578,-13.289,-13.3672,-13.3828,-13.3828,-13.3828,-13.3828,-13.3828,-13.3828,-13.3828,-13.3828,-13.3828,-13.3828,-13.3828,-13.3828,-13.3828,-13.3828,-13.3828,-13.3828,-13.3828,-13.3828,-13.3828,-13.4218,-13.4765,-13.4922,-13.5312,0.0,0.0,0.0,0.0,0.0,0.0,0.0,0.0,0.0,0.0,0.0,0.0,0.0,-13.2608,-13.3718,-13.4026,-13.418,-13.4411,-13.4795,-13.4487,-13.4334,-13.4334,-13.4334,-13.4103,-13.3564,-13.2795,-13.1718,-13.041,-12.9487,-12.8717,-12.7794,-12.8179,-12.8486,-12.8486,-12.8871,-12.9179,-12.9179,-12.9179,-12.9025,-12.8486,-12.7563,-12.7025,-12.6717,-12.6717,-12.6717,-12.6717,-12.6717,-12.6717,-12.6717,-12.6717,-12.6717,-12.6717,-12.6717,-12.6717,-12.6717,-12.6717,-12.6717,-12.6717,-12.6871,-12.7178,-12.7631,-12.7804,-12.8162,-12.8593,-12.8593,-12.8593,-12.8593,-12.8593,-12.8593,-12.8593,-12.8593,-12.8593,-12.8593,-12.8593,-12.8593,-12.8593,-12.8593,-12.8984,-12.9609,-13.0468,-13.0234,-13.0,-13.039,-13.0234,-13.0312,-13.1562,-13.2187,-13.2812,-13.3672,-13.3828,-13.3828,-13.3828,-13.3828,-13.3828,-13.3828,-13.3828,-13.3828,-13.3828,-13.3828,-13.3828,-13.3828,-13.3828,-13.3828,-13.3828,-13.3828,-13.3828,-13.3828,-13.4297,-13.4687,-13.5,-13.6015,-13.6406,0.0,0.0,0.0,0.0,0.0,0.0,0.0,0.0,0.0,0.0,0.0,0.0,0.0,-12.9681,-13.1817,-13.2333,-13.2872,-13.341,-13.3564,-13.3564,-13.3564,-13.3564,-13.3564,-13.3333,-13.241,-13.1564,-13.0487,-12.9025,-12.8102,-12.7332,-12.6717,-12.7332,-12.764,-12.764,-12.8179,-12.8563,-12.8563,-12.8563,-12.8179,-12.764,-12.7025,-12.6717,-12.6717,-12.6717,-12.6717,-12.6717,-12.6717,-12.6717,-12.6717,-12.6717,-12.6717,-12.6717,-12.6717,-12.6717,-12.6717,-12.6717,-12.6717,-12.6717,-12.6948,-12.7338,-12.7715,-12.8016,-12.8339,-12.8593,-12.8593,-12.8593,-12.8593,-12.8593,-12.8593,-12.8593,-12.8593,-12.8593,-12.8593,-12.8593,-12.8593,-12.8593,-12.8593,-12.9297,-13.0078,-13.0703,-13.0312,-13.0,-13.0234,-12.9922,-13.0,-13.1328,-13.1875,-13.2578,-13.3672,-13.3828,-13.3828,-13.3828,-13.3828,-13.3828,-13.3828,-13.3828,-13.3828,-13.3828,-13.3828,-13.3828,-13.3828,-13.3828,-13.3828,-13.3828,-13.3828,-13.3828,-13.3828,-13.4765,-13.5312,-13.539,-13.6875,-13.7422,0.0,0.0,0.0,0.0,0.0,0.0,0.0,0.0,0.0,0.0,0.0,0.0,0.0,-12.5632,-12.8652,-13.0308,-13.0718,-13.1025,-13.1718,-13.1795,-13.1795,-13.1795,-13.1795,-13.1487,-13.0718,-12.9794,-12.9025,-12.8025,-12.7178,-12.6717,-12.6717,-12.6717,-12.6794,-12.6794,-12.6794,-12.6794,-12.6794,-12.6794,-12.6794,-12.6794,-12.6717,-12.6717,-12.6717,-12.6717,-12.6717,-12.6717,-12.6717,-12.6717,-12.6717,-12.6717,-12.6717,-12.6717,-12.6717,-12.6717,-12.6717,-12.6717,-12.6717,-12.6717,-12.6948,-12.7303,-12.7713,-12.798,-12.8339,-12.8593,-12.8593,-12.8593,-12.8593,-12.8593,-12.8593,-12.8593,-12.8593,-12.8593,-12.8593,-12.8593,-12.8593,-12.8593,-12.8593,-12.9297,-12.9922,-13.0,-12.9922,-13.0234,-13.1015,-12.9765,-12.9531,-13.2109,-13.1797,-13.1875,-13.3593,-13.3828,-13.3828,-13.3828,-13.3828,-13.3828,-13.3828,-13.3828,-13.3828,-13.3828,-13.3828,-13.3828,-13.3828,-13.3828,-13.3828,-13.3828,-13.3828,-13.3828,-13.3828,-13.539,-13.6172,-13.6328,-13.7187,-13.7968,-8.7876,0.0,0.0,0.0,0.0,0.0,0.0,0.0,0.0,0.0,0.0,0.0,-12.2181,-12.4925,-12.7116,-12.7792,-12.887,-12.9794,-13.0102,-13.0102,-13.0102,-13.0102,-13.0102,-13.0025,-12.9717,-12.8871,-12.8179,-12.7871,-12.7178,-12.6717,-12.6717,-12.6717,-12.6717,-12.6717,-12.6717,-12.6717,-12.6717,-12.6717,-12.6717,-12.6717,-12.6717,-12.6717,-12.6717,-12.6717,-12.6717,-12.6717,-12.6717,-12.6717,-12.6717,-12.6717,-12.6717,-12.6717,-12.6717,-12.6717,-12.6717,-12.6717,-12.6717,-12.6794,-12.7304,-12.7496,-12.7661,-12.8222,-12.8515,-12.8593,-12.8593,-12.8593,-12.8593,-12.8593,-12.8593,-12.8593,-12.8593,-12.8593,-12.8593,-12.8593,-12.8593,-12.8593,-12.8593,-12.8828,-12.9218,-12.9765,-12.9375,-12.9218,-12.9531,-12.9531,-12.9765,-13.0703,-13.1484,-13.2265,-13.289,-13.3515,-13.3828,-13.3828,-13.3828,-13.3828,-13.3828,-13.3828,-13.3828,-13.3828,-13.3828,-13.3828,-13.3828,-13.3828,-13.3828,-13.3828,-13.4297,-13.4297,-13.3828,-13.5468,-13.6328,-13.6328,-13.7812,-13.8593,-8.6921,0.0,0.0,0.0,0.0,0.0,0.0,0.0,0.0,0.0,0.0,0.0,-12.1578,-12.4038,-12.5754,-12.6453,-12.7795,-12.8794,-12.8794,-12.9025,-12.9179,-12.9179,-12.9179,-12.9102,-12.8794,-12.8179,-12.7794,-12.7486,-12.7025,-12.6717,-12.6717,-12.6717,-12.6717,-12.6717,-12.6717,-12.6717,-12.6717,-12.6717,-12.6717,-12.6717,-12.6717,-12.6717,-12.6717,-12.6717,-12.6717,-12.6717,-12.6717,-12.6717,-12.6717,-12.6717,-12.6717,-12.6717,-12.6717,-12.6717,-12.6717,-12.6717,-12.6794,-12.6871,-12.7458,-12.7722,-12.7918,-12.8393,-12.8593,-12.8593,-12.8593,-12.8593,-12.8593,-12.8593,-12.8593,-12.8593,-12.8593,-12.8593,-12.8593,-12.8593,-12.8593,-12.8593,-12.8593,-12.8593,-12.8828,-12.9375,-12.8984,-12.8672,-12.8984,-12.9297,-12.9687,-13.0234,-13.1093,-13.1797,-13.2422,-13.2968,-13.3515,-13.3828,-13.3828,-13.3828,-13.3828,-13.3828,-13.3828,-13.3828,-13.3828,-13.3906,-13.4218,-13.3906,-13.3906,-13.4218,-13.4531,-13.4531,-13.4218,-13.5937,-13.6562,-13.6328,-13.8125,-13.8906,0.0,0.0,0.0,0.0,0.0,0.0,0.0,0.0,0.0,0.0,0.0,0.0,-12.0463,-12.2561,-12.4386,-12.6287,-12.7332,-12.7871,-12.7871,-12.864,-12.9102,-12.9102,-12.9102,-12.8794,-12.7871,-12.7871,-12.7486,-12.6794,-12.6717,-12.6717,-12.6717,-12.6717,-12.6717,-12.6717,-12.6717,-12.6717,-12.6717,-12.6717,-12.6717,-12.6717,-12.6717,-12.6717,-12.6717,-12.6717,-12.6717,-12.6717,-12.6717,-12.6717,-12.6717,-12.6717,-12.6717,-12.6717,-12.6717,-12.6717,-12.6717,-12.6717,-12.6871,-12.7101,-12.7506,-12.7766,-12.8178,-12.8505,-12.8593,-12.8593,-12.8593,-12.8593,-12.8593,-12.8593,-12.8593,-12.8593,-12.8593,-12.8593,-12.8593,-12.8593,-12.8593,-12.8593,-12.8593,-12.8593,-12.8593,-12.8593,-12.8593,-12.8906,-12.9687,-12.9218,-12.9218,-13.0937,-13.039,-13.0625,-13.2265,-13.25,-13.2812,-13.3672,-13.3828,-13.3828,-13.3828,-13.3828,-13.3828,-13.3828,-13.3828,-13.4218,-13.5,-13.4297,-13.4218,-13.5,-13.4297,-13.4297,-13.5,-13.6718,-13.7109,-13.6406,-13.8125,-13.8906,-8.5233,0.0,0.0,0.0,0.0,0.0,-9.6171,-9.8814,0.0,0.0,0.0,0.0,-11.8654,-12.0859,-12.2723,-12.4493,-12.6101,-12.7025,-12.7025,-12.7178,-12.7409,-12.7409,-12.7409,-12.7332,-12.7101,-12.7025,-12.6871,-12.6717,-12.6717,-12.6717,-12.6717,-12.6717,-12.6717,-12.6717,-12.6717,-12.6717,-12.6717,-12.6717,-12.6717,-12.6717,-12.6717,-12.6717,-12.6717,-12.6717,-12.6717,-12.6717,-12.6717,-12.6717,-12.6717,-12.6717,-12.6717,-12.6717,-12.6717,-12.6717,-12.6717,-12.6717,-12.6871,-12.7091,-12.7488,-12.7845,-12.8178,-12.8505,-12.8593,-12.8593,-12.8593,-12.8593,-12.8593,-12.8593,-12.8593,-12.8593,-12.8593,-12.8593,-12.8593,-12.8593,-12.8593,-12.8593,-12.8593,-12.8593,-12.8593,-12.8593,-12.8593,-12.8672,-12.8906,-12.9297,-12.9531,-12.9297,-13.0234,-13.1172,-13.2422,-13.25,-13.3125,-13.4531,-13.4062,-13.3828,-13.3828,-13.4297,-13.4375,-13.3828,-13.4297,-13.4765,-13.5,-13.4765,-13.5078,-13.5937,-13.5703,-13.5703,-13.5937,-13.6406,-13.6875,-13.7265,-13.8437,-13.8906,-8.6554,-8.6775,-8.7802,-8.905,0.0,0.0,-9.389,-9.5069,-9.7136,0.0,0.0,0.0,-11.6307,-11.8706,-12.0281,-12.1775,-12.3101,-12.4486,-12.6024,-12.6178,-12.6332,-12.6717,-12.6717,-12.6717,-12.6717,-12.6717,-12.6717,-12.6717,-12.6717,-12.6717,-12.6717,-12.6717,-12.6717,-12.6717,-12.6717,-12.6717,-12.6717,-12.6717,-12.6717,-12.6717,-12.6717,-12.6717,-12.6717,-12.6717,-12.6717,-12.6717,-12.6717,-12.6717,-12.6717,-12.6717,-12.6717,-12.6717,-12.6717,-12.6717,-12.6717,-12.6717,-12.6871,-12.7061,-12.7549,-12.7795,-12.8235,-12.8485,-12.8593,-12.8593,-12.8593,-12.8593,-12.8593,-12.8593,-12.8593,-12.8593,-12.8593,-12.8593,-12.8593,-12.8593,-12.8593,-12.8593,-12.8593,-12.8593,-12.8593,-12.8593,-12.8593,-12.8593,-12.8593,-12.8984,-12.9218,-12.8672,-12.9531,-13.0625,-13.1797,-13.2031,-13.2578,-13.4297,-13.4062,-13.3828,-13.3828,-13.4218,-13.4375,-13.4297,-13.4687,-13.5312,-13.6093,-13.5703,-13.6015,-13.6797,-13.6484,-13.6484,-13.6797,-13.6797,-13.7265,-13.8203,-13.8672,-13.8906,-8.8977,-8.883,-8.9784,-9.2941,-9.0445,0.0,-9.5997,-9.4561,-9.3998,-10.2098,-10.4996,-10.7645,-11.3022,-11.5401,-11.6973,-11.8238,-11.91,-12.0793,-12.4332,-12.5024,-12.5409,-12.6332,-12.6486,-12.6563,-12.6717,-12.6717,-12.6717,-12.6717,-12.6717,-12.6717,-12.6717,-12.6717,-12.6717,-12.6717,-12.6717,-12.6717,-12.6717,-12.6717,-12.6717,-12.6717,-12.6717,-12.6717,-12.6717,-12.6717,-12.6717,-12.6717,-12.6717,-12.6717,-12.6717,-12.6717,-12.6717,-12.6717,-12.6717,-12.6717,-12.6717,-12.6717,-12.6871,-12.7138,-12.7424,-12.7778,-12.8125,-12.8437,-12.8593,-12.8593,-12.8593,-12.8593,-12.8593,-12.8593,-12.8593,-12.8593,-12.8593,-12.8593,-12.8593,-12.8593,-12.8593,-12.8593,-12.8593,-12.8593,-12.8593,-12.8593,-12.8593,-12.8593,-12.8593,-12.8593,-12.8593,-12.8593,-12.8593,-12.9218,-13.1015,-13.1328,-13.2031,-13.3672,-13.3984,-13.3984,-13.3906,-13.4062,-13.4375,-13.5,-13.5234,-13.6015,-13.75,-13.6875,-13.6875,-13.7734,-13.7031,-13.7031,-13.7734,-13.7734,-13.8125,-13.8906,-13.8906,-13.8906,-9.1179,-9.2574,-9.3455,-9.0959,-9.2941,0.0,-9.0127,-9.0466,-9.2443,0.0,-9.6901,-9.9492,-10.5916,-10.9016,-11.1352,-11.3593,-11.4714,-11.6638,-12.0716,-12.2485,-12.3716,-12.4486,-12.5178,-12.587,-12.6563,-12.6717,-12.6717,-12.6717,-12.6717,-12.6717,-12.6717,-12.6717,-12.6717,-12.6717,-12.6717,-12.6717,-12.6717,-12.6717,-12.6717,-12.6717,-12.6717,-12.6717,-12.6717,-12.6717,-12.6717,-12.6717,-12.6717,-12.6717,-12.6717,-12.6717,-12.6717,-12.6717,-12.6717,-12.6717,-12.6717,-12.6717,-12.6871,-12.7073,-12.7153,-12.7637,-12.8125,-12.8203,-12.8437,-12.8593,-12.8593,-12.8593,-12.8593,-12.8593,-12.8593,-12.8593,-12.8593,-12.8593,-12.8593,-12.8593,-12.8593,-12.8593,-12.8593,-12.8593,-12.8593,-12.8593,-12.8593,-12.8593,-12.8593,-12.8593,-12.8593,-12.8593,-12.8593,-12.9218,-13.1015,-13.1797,-13.289,-13.4609,-13.539,-13.5468,-13.4765,-13.6093,-13.6328,-13.5078,-13.6328,-13.7187,-13.7578,-13.7422,-13.7812,-13.8593,-13.8515,-13.8515,-13.8593,-13.8593,-13.8672,-13.8906,-13.8906,-13.8906,-9.3015,-9.3675,-9.4703,-9.3822,-9.3969,0.0,0.0,-9.1221,-9.1301,-9.45,-9.4877,-9.5981,-10.0655,-10.2944,-10.474,-10.6783,-10.8592,-11.1016,-11.467,-11.8177,-12.0793,-12.21,-12.3408,-12.4486,-12.5332,-12.5794,-12.6178,-12.6717,-12.6717,-12.6717,-12.6717,-12.6717,-12.6717,-12.6717,-12.6717,-12.6717,-12.6717,-12.6717,-12.6717,-12.6717,-12.6717,-12.6717,-12.6717,-12.6717,-12.6717,-12.6717,-12.6717,-12.6717,-12.6717,-12.6717,-12.6717,-12.6717,-12.6717,-12.6717,-12.6717,-12.6717,-12.6794,-12.6871,-12.7101,-12.7341,-12.7607,-12.7793,-12.8003,-12.8115,-12.8276,-12.8515,-12.8593,-12.8593,-12.8593,-12.8593,-12.8593,-12.8593,-12.8593,-12.8593,-12.8593,-12.8593,-12.8593,-12.8593,-12.8672,-12.9218,-12.8906,-12.8593,-12.8593,-12.8593,-12.8593,-12.8593,-12.8593,-12.9062,-13.039,-13.0937,-13.2031,-13.4218,-13.4765,-13.5234,-13.5625,-13.6406,-13.6797,-13.6328,-13.7109,-13.7812,-13.8203,-13.8203,-13.8515,-13.8906,-13.8906,-13.8906,-13.8906,-13.8906,-13.8906,-13.8906,-13.8906,-13.8906,-9.6171,-9.6318,-9.764,-9.786,-9.6098,-9.4704,0.0,0.0,0.0,-9.4372,-9.3906,0.0,0.0,0.0,0.0,-10.0805,-10.2892,-10.5484,-10.9013,-11.3011,-11.6654,-11.9485,-12.11,-12.2408,-12.3485,-12.4486,-12.5486,-12.6409,-12.6563,-12.6717,-12.6717,-12.6717,-12.6717,-12.6717,-12.6717,-12.6717,-12.6717,-12.6717,-12.6717,-12.6717,-12.6717,-12.6717,-12.6717,-12.6717,-12.6717,-12.6717,-12.6717,-12.6717,-12.6717,-12.6717,-12.6717,-12.6717,-12.6717,-12.6717,-12.6717,-12.6717,-12.6717,-12.6717,-12.6871,-12.7101,-12.7138,-12.7359,-12.7501,-12.7665,-12.8016,-12.8281,-12.8515,-12.8593,-12.8593,-12.8593,-12.8593,-12.8593,-12.8593,-12.8593,-12.8593,-12.8593,-12.8593,-12.8593,-12.8828,-12.9531,-12.9062,-12.8672,-12.8828,-12.8672,-12.8593,-12.8593,-12.8593,-12.8906,-12.9609,-12.9922,-13.1093,-13.3515,-13.3906,-13.4609,-13.6172,-13.6328,-13.6562,-13.7265,-13.75,-13.7968,-13.8906,-13.8906,-13.8906,-13.8906,-13.8906,-13.8906,-13.8906,-13.8906,-13.8828,-13.8672,-13.8828,-13.8828,-10.3219,-10.5935,-10.7404,-9.9769,-10.2925,-10.4861,-9.376,0.0,-9.3688,-9.0524,0.0,-8.9928,-9.1061,0.0,0.0,-9.8773,-10.0199,-10.2304,-10.628,-10.735,-11.0318,-11.7285,-11.8331,-11.9331,-12.1716,-12.3332,-12.4639,-12.5486,-12.6255,-12.6717,-12.6717,-12.6717,-12.6717,-12.6717,-12.6717,-12.6717,-12.6717,-12.6717,-12.6717,-12.6717,-12.6717,-12.6717,-12.6717,-12.6717,-12.6717,-12.6717,-12.6717,-12.6717,-12.6717,-12.6717,-12.6717,-12.6717,-12.6717,-12.6717,-12.6717,-12.6717,-12.6717,-12.6717,-12.6717,-12.6871,-12.7073,-12.7138,-12.7415,-12.7649,-12.7978,-12.8125,-12.8203,-12.8515,-12.8593,-12.8593,-12.8593,-12.8593,-12.8593,-12.8593,-12.8593,-12.8593,-12.8593,-12.8593,-12.8593,-12.8672,-12.8672,-12.8828,-12.9609,-12.9062,-12.8593,-12.8593,-12.8593,-12.8593,-12.8672,-13.0078,-13.1797,-13.3593,-13.4375,-13.5312,-13.6172,-13.6328,-13.6328,-13.6406,-13.7187,-13.7968,-13.8906,-13.8906,-13.8906,-13.8906,-13.8906,-13.8906,-13.8906,-13.8906,-13.8515,-13.7812,-13.8515,-13.8515,-10.4467,-10.6082,-10.733,-10.2558,-10.2925,-10.2727,-9.6152,-9.4211,-9.323,-9.1013,0.0,0.0,0.0,0.0,0.0,0.0,-9.6562,-9.8697,-10.2409,-10.2892,-10.5477,-11.2517,-11.4714,-11.6638,-11.91,-12.1408,-12.2793,-12.3178,-12.4409,-12.5409,-12.587,-12.587,-12.6178,-12.6717,-12.6717,-12.6717,-12.6717,-12.6717,-12.6717,-12.6717,-12.6717,-12.6717,-12.6717,-12.6717,-12.6717,-12.6717,-12.6717,-12.6717,-12.6717,-12.6717,-12.6717,-12.6717,-12.6717,-12.6717,-12.6717,-12.6717,-12.6717,-12.6717,-12.6717,-12.6794,-12.6871,-12.6871,-12.7101,-12.7338,-12.7502,-12.7652,-12.7807,-12.8041,-12.8041,-12.8081,-12.8276,-12.8281,-12.8437,-12.8593,-12.8593,-12.8593,-12.8593,-12.8593,-12.8672,-12.9297,-12.8906,-12.8906,-12.9687,-12.9218,-12.8593,-12.8593,-12.8593,-12.8593,-12.8593,-12.9218,-13.039,-13.2109,-13.3515,-13.4609,-13.5468,-13.6875,-13.7578,-13.7109,-13.789,-13.8515,-13.8906,-13.8906,-13.8906,-13.8906,-13.8906,-13.8906,-13.8906,-13.8906,-13.8515,-13.7578,-13.8515,-13.8437,-10.6376,-10.7257,-10.8064,-10.4173,-10.2412,-10.0661,-9.7206,-9.5661,-9.4423,-9.3025,-9.3275,0.0,0.0,0.0,-9.2863,-9.3593,0.0,-9.6257,-9.8647,-9.8567,-10.0786,-10.7686,-11.117,-11.3873,-11.6176,-11.893,-12.0562,-12.0562,-12.2562,-12.4024,-12.4716,-12.5178,-12.5794,-12.6717,-12.6717,-12.6717,-12.6717,-12.6717,-12.6717,-12.6717,-12.6717,-12.6717,-12.6717,-12.6717,-12.6717,-12.6717,-12.6717,-12.6717,-12.6717,-12.6717,-12.6717,-12.6717,-12.6717,-12.6717,-12.6717,-12.6717,-12.6717,-12.6717,-12.6717,-12.6717,-12.6717,-12.6717,-12.6794,-12.6948,-12.7101,-12.734,-12.7488,-12.7565,-12.7565,-12.7713,-12.7902,-12.7969,-12.801,-12.8322,-12.843,-12.8515,-12.8515,-12.8515,-12.8828,-12.9375,-12.8984,-12.8828,-12.9375,-12.9218,-12.8906,-12.8593,-12.8828,-12.8984,-12.8984,-12.8672,-12.9375,-13.1328,-13.25,-13.3515,-13.4609,-13.6562,-13.7812,-13.7578,-13.8437,-13.8906,-13.8906,-13.8906,-13.8906,-13.8906,-13.8906,-13.8906,-13.8906,-13.8906,-13.8515,-13.7578,-13.8515,-13.8437,-11.1074,-11.2689,-11.3424,-10.388,-10.3293,-10.2925,-9.4997,-9.6762,-9.9186,-9.6027,-9.9039,-10.0876,-9.6171,-9.6612,-9.7136,-9.5611,-9.5436,0.0,0.0,-9.4264,-9.6093,-10.3412,-10.7887,-11.1083,-11.2763,-11.6003,-11.7869,-11.7869,-12.1023,-12.3024,-12.3024,-12.4486,-12.5794,-12.6717,-12.6717,-12.6717,-12.6717,-12.6717,-12.6717,-12.6717,-12.6717,-12.6717,-12.6717,-12.6717,-12.6717,-12.6717,-12.6717,-12.6717,-12.6717,-12.6717,-12.6717,-12.6717,-12.6717,-12.6717,-12.6717,-12.6717,-12.6717,-12.6717,-12.6717,-12.6717,-12.6717,-12.6717,-12.6717,-12.6794,-12.6948,-12.7073,-12.7198,-12.7506,-12.7583,-12.7583,-12.7631,-12.7565,-12.7583,-12.7583,-12.7937,-12.8125,-12.8125,-12.8437,-12.8593,-12.8593,-12.8593,-12.8593,-12.8593,-12.9297,-12.9609,-12.8672,-12.9297,-12.9922,-12.9922,-12.9062,-12.9609,-13.2187,-13.1797,-13.2031,-13.3672,-13.4609,-13.5781,-13.75,-13.8437,-13.8906,-13.8906,-13.8906,-13.8906,-13.8906,-13.8906,-13.8906,-13.8906,-13.8906,-13.8515,-13.7578,-13.8515,-13.8437,-11.4378,-11.5699,-11.5773,-10.8211,-10.6523,-10.4908,-9.786,-9.9129,-10.0833,-9.7059,-10.0457,-10.2902,-9.8672,-9.8741,-9.8893,-9.7285,-9.6619,-9.5736,0.0,-9.2473,-9.3196,-9.7841,-10.2538,-10.5973,-10.7545,-10.9786,-11.1612,-11.267,-11.5407,-11.8023,-12.0331,-12.2024,-12.3793,-12.5794,-12.6409,-12.6717,-12.6717,-12.6717,-12.6717,-12.6717,-12.6717,-12.6717,-12.6717,-12.6717,-12.6717,-12.6717,-12.6717,-12.6717,-12.6717,-12.6717,-12.6717,-12.6717,-12.6717,-12.6717,-12.6717,-12.6717,-12.6717,-12.6717,-12.6717,-12.6717,-12.6717,-12.6717,-12.6717,-12.6717,-12.6794,-12.6794,-12.6871,-12.6948,-12.6948,-12.6948,-12.7178,-12.7275,-12.734,-12.7495,-12.7685,-12.7795,-12.8105,-12.8203,-12.8281,-12.8593,-12.8593,-12.8593,-12.8593,-12.9297,-12.9609,-12.8672,-12.9297,-12.9922,-12.9922,-12.9609,-12.9765,-13.0703,-13.1015,-13.1406,-13.2031,-13.4375,-13.6562,-13.8437,-13.8672,-13.8906,-13.8906,-13.8906,-13.8906,-13.8906,-13.8906,-13.8906,-13.8906,-13.8906,-13.8672,-13.8515,-13.8203,-13.789,-11.592,-11.7021,-11.7094,-11.1515,-10.9679,-10.7771,-10.2191,-10.3407,-10.475,-10.1617,-10.4292,-10.6302,-10.3448,-10.1971,-10.0503,-9.8594,-9.6685,-9.4263,0.0,-9.0078,-9.0585,-9.298,-9.7691,-10.1271,-10.2836,-10.4615,-10.6274,-10.7825,-11.0385,-11.3381,-11.71,-11.9715,-12.2331,-12.487,-12.6101,-12.6717,-12.6717,-12.6717,-12.6717,-12.6717,-12.6717,-12.6717,-12.6717,-12.6717,-12.6717,-12.6717,-12.6717,-12.6717,-12.6717,-12.6717,-12.6717,-12.6717,-12.6717,-12.6717,-12.6717,-12.6717,-12.6717,-12.6717,-12.6717,-12.6717,-12.6717,-12.6717,-12.6717,-12.6563,-12.6332,-12.6178,-12.6409,-12.7332,-12.6871,-12.6563,-12.7871,-12.7563,-12.6948,-12.7178,-12.7458,-12.7483,-12.773,-12.7834,-12.801,-12.8436,-12.8437,-12.8515,-12.8593,-12.9062,-12.9218,-12.8672,-12.9609,-13.039,-13.039,-13.0078,-13.0,-13.0312,-13.0625,-13.1172,-13.2422,-13.5078,-13.7422,-13.8828,-13.8906,-13.8906,-13.8906,-13.8906,-13.9531,-14.0703,-13.9531,-13.9531,-14.0703,-13.9531,-13.8906,-13.8906,-13.8281,-13.8125]}]]